<?xml version="1.0" encoding="UTF-8"?>
<gpx version="1.1" creator="RoadTrp.org" xmlns="http://www.topografix.com/GPX/1/1">
<trk><name>Mouse Creek Greenway — July 23, 2026</name><trkseg>
<trkpt lat="35.191115" lon="-84.866491"><ele>246.0</ele><time>2026-07-23T19:43:14Z</time></trkpt>
<trkpt lat="35.191117" lon="-84.866488"><ele>246.0</ele><time>2026-07-23T19:43:15Z</time></trkpt>
<trkpt lat="35.191148" lon="-84.866463"><ele>246.0</ele><time>2026-07-23T19:43:18Z</time></trkpt>
<trkpt lat="35.191168" lon="-84.866426"><ele>245.4</ele><time>2026-07-23T19:43:23Z</time></trkpt>
<trkpt lat="35.191176" lon="-84.866405"><ele>245.4</ele><time>2026-07-23T19:43:26Z</time></trkpt>
<trkpt lat="35.191175" lon="-84.866402"><ele>245.1</ele><time>2026-07-23T19:43:27Z</time></trkpt>
<trkpt lat="35.191172" lon="-84.866402"><ele>244.1</ele><time>2026-07-23T19:43:31Z</time></trkpt>
<trkpt lat="35.191171" lon="-84.8664"><ele>244.4</ele><time>2026-07-23T19:43:32Z</time></trkpt>
<trkpt lat="35.191171" lon="-84.866397"><ele>244.4</ele><time>2026-07-23T19:43:33Z</time></trkpt>
<trkpt lat="35.19117" lon="-84.866393"><ele>244.8</ele><time>2026-07-23T19:43:42Z</time></trkpt>
<trkpt lat="35.191162" lon="-84.866385"><ele>245.4</ele><time>2026-07-23T19:43:43Z</time></trkpt>
<trkpt lat="35.19114" lon="-84.866357"><ele>243.2</ele><time>2026-07-23T19:43:45Z</time></trkpt>
<trkpt lat="35.191123" lon="-84.86633"><ele>242.9</ele><time>2026-07-23T19:43:47Z</time></trkpt>
<trkpt lat="35.191091" lon="-84.8663"><ele>241.4</ele><time>2026-07-23T19:43:50Z</time></trkpt>
<trkpt lat="35.191075" lon="-84.86626"><ele>241.4</ele><time>2026-07-23T19:43:53Z</time></trkpt>
<trkpt lat="35.191061" lon="-84.866221"><ele>241.7</ele><time>2026-07-23T19:43:56Z</time></trkpt>
<trkpt lat="35.191041" lon="-84.866177"><ele>241.7</ele><time>2026-07-23T19:43:59Z</time></trkpt>
<trkpt lat="35.19103" lon="-84.866132"><ele>242.9</ele><time>2026-07-23T19:44:02Z</time></trkpt>
<trkpt lat="35.19105" lon="-84.866091"><ele>242.9</ele><time>2026-07-23T19:44:05Z</time></trkpt>
<trkpt lat="35.191085" lon="-84.866074"><ele>242.9</ele><time>2026-07-23T19:44:08Z</time></trkpt>
<trkpt lat="35.191119" lon="-84.866048"><ele>242.6</ele><time>2026-07-23T19:44:11Z</time></trkpt>
<trkpt lat="35.191149" lon="-84.866014"><ele>242.0</ele><time>2026-07-23T19:44:14Z</time></trkpt>
<trkpt lat="35.19118" lon="-84.865996"><ele>241.7</ele><time>2026-07-23T19:44:17Z</time></trkpt>
<trkpt lat="35.191209" lon="-84.865972"><ele>241.7</ele><time>2026-07-23T19:44:20Z</time></trkpt>
<trkpt lat="35.191236" lon="-84.865938"><ele>241.1</ele><time>2026-07-23T19:44:23Z</time></trkpt>
<trkpt lat="35.191253" lon="-84.865911"><ele>240.8</ele><time>2026-07-23T19:44:25Z</time></trkpt>
<trkpt lat="35.191276" lon="-84.865878"><ele>241.4</ele><time>2026-07-23T19:44:28Z</time></trkpt>
<trkpt lat="35.191306" lon="-84.865849"><ele>241.4</ele><time>2026-07-23T19:44:31Z</time></trkpt>
<trkpt lat="35.191332" lon="-84.865818"><ele>241.7</ele><time>2026-07-23T19:44:34Z</time></trkpt>
<trkpt lat="35.191356" lon="-84.865777"><ele>242.3</ele><time>2026-07-23T19:44:37Z</time></trkpt>
<trkpt lat="35.191371" lon="-84.865748"><ele>243.5</ele><time>2026-07-23T19:44:39Z</time></trkpt>
<trkpt lat="35.191388" lon="-84.86572"><ele>242.6</ele><time>2026-07-23T19:44:41Z</time></trkpt>
<trkpt lat="35.19141" lon="-84.865678"><ele>243.5</ele><time>2026-07-23T19:44:44Z</time></trkpt>
<trkpt lat="35.191434" lon="-84.865641"><ele>244.8</ele><time>2026-07-23T19:44:47Z</time></trkpt>
<trkpt lat="35.19146" lon="-84.865608"><ele>245.1</ele><time>2026-07-23T19:44:50Z</time></trkpt>
<trkpt lat="35.191467" lon="-84.865573"><ele>246.3</ele><time>2026-07-23T19:44:53Z</time></trkpt>
<trkpt lat="35.191494" lon="-84.865534"><ele>245.1</ele><time>2026-07-23T19:44:56Z</time></trkpt>
<trkpt lat="35.191516" lon="-84.865505"><ele>243.8</ele><time>2026-07-23T19:44:58Z</time></trkpt>
<trkpt lat="35.191527" lon="-84.865467"><ele>242.3</ele><time>2026-07-23T19:45:00Z</time></trkpt>
<trkpt lat="35.191549" lon="-84.865438"><ele>241.4</ele><time>2026-07-23T19:45:02Z</time></trkpt>
<trkpt lat="35.191569" lon="-84.86541"><ele>241.4</ele><time>2026-07-23T19:45:04Z</time></trkpt>
<trkpt lat="35.191595" lon="-84.865379"><ele>241.4</ele><time>2026-07-23T19:45:07Z</time></trkpt>
<trkpt lat="35.191617" lon="-84.865357"><ele>241.7</ele><time>2026-07-23T19:45:10Z</time></trkpt>
<trkpt lat="35.191649" lon="-84.86533"><ele>241.4</ele><time>2026-07-23T19:45:13Z</time></trkpt>
<trkpt lat="35.191669" lon="-84.865303"><ele>242.3</ele><time>2026-07-23T19:45:15Z</time></trkpt>
<trkpt lat="35.191692" lon="-84.865283"><ele>242.3</ele><time>2026-07-23T19:45:17Z</time></trkpt>
<trkpt lat="35.191714" lon="-84.865259"><ele>242.0</ele><time>2026-07-23T19:45:19Z</time></trkpt>
<trkpt lat="35.191742" lon="-84.865227"><ele>241.4</ele><time>2026-07-23T19:45:22Z</time></trkpt>
<trkpt lat="35.191769" lon="-84.865204"><ele>241.4</ele><time>2026-07-23T19:45:25Z</time></trkpt>
<trkpt lat="35.191802" lon="-84.86518"><ele>242.0</ele><time>2026-07-23T19:45:28Z</time></trkpt>
<trkpt lat="35.191829" lon="-84.865163"><ele>241.4</ele><time>2026-07-23T19:45:31Z</time></trkpt>
<trkpt lat="35.191856" lon="-84.865145"><ele>239.6</ele><time>2026-07-23T19:45:34Z</time></trkpt>
<trkpt lat="35.191886" lon="-84.865122"><ele>239.6</ele><time>2026-07-23T19:45:37Z</time></trkpt>
<trkpt lat="35.19192" lon="-84.865094"><ele>238.4</ele><time>2026-07-23T19:45:40Z</time></trkpt>
<trkpt lat="35.191953" lon="-84.865078"><ele>239.0</ele><time>2026-07-23T19:45:43Z</time></trkpt>
<trkpt lat="35.191988" lon="-84.865084"><ele>238.7</ele><time>2026-07-23T19:45:46Z</time></trkpt>
<trkpt lat="35.192024" lon="-84.865078"><ele>239.3</ele><time>2026-07-23T19:45:49Z</time></trkpt>
<trkpt lat="35.192062" lon="-84.865069"><ele>240.2</ele><time>2026-07-23T19:45:52Z</time></trkpt>
<trkpt lat="35.192086" lon="-84.865038"><ele>239.6</ele><time>2026-07-23T19:45:55Z</time></trkpt>
<trkpt lat="35.192118" lon="-84.865036"><ele>239.6</ele><time>2026-07-23T19:45:58Z</time></trkpt>
<trkpt lat="35.192153" lon="-84.86504"><ele>238.4</ele><time>2026-07-23T19:46:01Z</time></trkpt>
<trkpt lat="35.19219" lon="-84.865041"><ele>237.7</ele><time>2026-07-23T19:46:04Z</time></trkpt>
<trkpt lat="35.192226" lon="-84.865036"><ele>237.7</ele><time>2026-07-23T19:46:07Z</time></trkpt>
<trkpt lat="35.192261" lon="-84.865028"><ele>238.7</ele><time>2026-07-23T19:46:10Z</time></trkpt>
<trkpt lat="35.192294" lon="-84.865022"><ele>238.0</ele><time>2026-07-23T19:46:13Z</time></trkpt>
<trkpt lat="35.192329" lon="-84.865017"><ele>238.7</ele><time>2026-07-23T19:46:16Z</time></trkpt>
<trkpt lat="35.192361" lon="-84.865013"><ele>239.6</ele><time>2026-07-23T19:46:19Z</time></trkpt>
<trkpt lat="35.192394" lon="-84.865005"><ele>239.6</ele><time>2026-07-23T19:46:22Z</time></trkpt>
<trkpt lat="35.192431" lon="-84.864992"><ele>238.0</ele><time>2026-07-23T19:46:25Z</time></trkpt>
<trkpt lat="35.192461" lon="-84.86497"><ele>239.6</ele><time>2026-07-23T19:46:28Z</time></trkpt>
<trkpt lat="35.192496" lon="-84.864958"><ele>239.0</ele><time>2026-07-23T19:46:31Z</time></trkpt>
<trkpt lat="35.192534" lon="-84.864945"><ele>240.5</ele><time>2026-07-23T19:46:34Z</time></trkpt>
<trkpt lat="35.192565" lon="-84.864928"><ele>239.6</ele><time>2026-07-23T19:46:37Z</time></trkpt>
<trkpt lat="35.192598" lon="-84.864904"><ele>241.4</ele><time>2026-07-23T19:46:40Z</time></trkpt>
<trkpt lat="35.192632" lon="-84.86488"><ele>242.0</ele><time>2026-07-23T19:46:43Z</time></trkpt>
<trkpt lat="35.192664" lon="-84.864857"><ele>242.0</ele><time>2026-07-23T19:46:46Z</time></trkpt>
<trkpt lat="35.192695" lon="-84.86483"><ele>243.5</ele><time>2026-07-23T19:46:49Z</time></trkpt>
<trkpt lat="35.192727" lon="-84.86481"><ele>243.5</ele><time>2026-07-23T19:46:52Z</time></trkpt>
<trkpt lat="35.192761" lon="-84.864788"><ele>243.5</ele><time>2026-07-23T19:46:55Z</time></trkpt>
<trkpt lat="35.192795" lon="-84.864773"><ele>244.4</ele><time>2026-07-23T19:46:58Z</time></trkpt>
<trkpt lat="35.192825" lon="-84.864755"><ele>244.4</ele><time>2026-07-23T19:47:01Z</time></trkpt>
<trkpt lat="35.192862" lon="-84.864744"><ele>243.8</ele><time>2026-07-23T19:47:04Z</time></trkpt>
<trkpt lat="35.192895" lon="-84.864731"><ele>243.5</ele><time>2026-07-23T19:47:07Z</time></trkpt>
<trkpt lat="35.192924" lon="-84.864714"><ele>243.5</ele><time>2026-07-23T19:47:10Z</time></trkpt>
<trkpt lat="35.192954" lon="-84.8647"><ele>242.9</ele><time>2026-07-23T19:47:13Z</time></trkpt>
<trkpt lat="35.192992" lon="-84.864697"><ele>242.0</ele><time>2026-07-23T19:47:16Z</time></trkpt>
<trkpt lat="35.193023" lon="-84.864681"><ele>242.6</ele><time>2026-07-23T19:47:19Z</time></trkpt>
<trkpt lat="35.193049" lon="-84.864661"><ele>242.0</ele><time>2026-07-23T19:47:22Z</time></trkpt>
<trkpt lat="35.193075" lon="-84.864639"><ele>241.7</ele><time>2026-07-23T19:47:25Z</time></trkpt>
<trkpt lat="35.193101" lon="-84.864614"><ele>242.0</ele><time>2026-07-23T19:47:28Z</time></trkpt>
<trkpt lat="35.193129" lon="-84.864593"><ele>242.0</ele><time>2026-07-23T19:47:31Z</time></trkpt>
<trkpt lat="35.193159" lon="-84.864571"><ele>242.6</ele><time>2026-07-23T19:47:34Z</time></trkpt>
<trkpt lat="35.19319" lon="-84.86455"><ele>242.9</ele><time>2026-07-23T19:47:37Z</time></trkpt>
<trkpt lat="35.193224" lon="-84.864534"><ele>242.9</ele><time>2026-07-23T19:47:40Z</time></trkpt>
<trkpt lat="35.193255" lon="-84.864519"><ele>242.9</ele><time>2026-07-23T19:47:43Z</time></trkpt>
<trkpt lat="35.193288" lon="-84.864499"><ele>242.9</ele><time>2026-07-23T19:47:46Z</time></trkpt>
<trkpt lat="35.193321" lon="-84.864488"><ele>243.2</ele><time>2026-07-23T19:47:49Z</time></trkpt>
<trkpt lat="35.193354" lon="-84.864473"><ele>243.2</ele><time>2026-07-23T19:47:52Z</time></trkpt>
<trkpt lat="35.193389" lon="-84.864453"><ele>243.2</ele><time>2026-07-23T19:47:55Z</time></trkpt>
<trkpt lat="35.193424" lon="-84.864438"><ele>242.3</ele><time>2026-07-23T19:47:58Z</time></trkpt>
<trkpt lat="35.193459" lon="-84.864421"><ele>242.6</ele><time>2026-07-23T19:48:01Z</time></trkpt>
<trkpt lat="35.193491" lon="-84.864402"><ele>242.9</ele><time>2026-07-23T19:48:04Z</time></trkpt>
<trkpt lat="35.193523" lon="-84.864385"><ele>242.3</ele><time>2026-07-23T19:48:08Z</time></trkpt>
<trkpt lat="35.193553" lon="-84.86436"><ele>242.3</ele><time>2026-07-23T19:48:11Z</time></trkpt>
<trkpt lat="35.193582" lon="-84.86433"><ele>242.9</ele><time>2026-07-23T19:48:14Z</time></trkpt>
<trkpt lat="35.193613" lon="-84.86431"><ele>242.9</ele><time>2026-07-23T19:48:17Z</time></trkpt>
<trkpt lat="35.193639" lon="-84.864286"><ele>242.3</ele><time>2026-07-23T19:48:20Z</time></trkpt>
<trkpt lat="35.193671" lon="-84.86427"><ele>242.6</ele><time>2026-07-23T19:48:23Z</time></trkpt>
<trkpt lat="35.193705" lon="-84.864254"><ele>242.3</ele><time>2026-07-23T19:48:26Z</time></trkpt>
<trkpt lat="35.193734" lon="-84.864229"><ele>242.9</ele><time>2026-07-23T19:48:29Z</time></trkpt>
<trkpt lat="35.193765" lon="-84.864209"><ele>243.2</ele><time>2026-07-23T19:48:32Z</time></trkpt>
<trkpt lat="35.193799" lon="-84.864193"><ele>243.2</ele><time>2026-07-23T19:48:35Z</time></trkpt>
<trkpt lat="35.193831" lon="-84.864175"><ele>243.2</ele><time>2026-07-23T19:48:38Z</time></trkpt>
<trkpt lat="35.193863" lon="-84.864158"><ele>242.3</ele><time>2026-07-23T19:48:41Z</time></trkpt>
<trkpt lat="35.193899" lon="-84.864145"><ele>242.6</ele><time>2026-07-23T19:48:44Z</time></trkpt>
<trkpt lat="35.193931" lon="-84.864131"><ele>241.1</ele><time>2026-07-23T19:48:47Z</time></trkpt>
<trkpt lat="35.193964" lon="-84.864113"><ele>240.8</ele><time>2026-07-23T19:48:50Z</time></trkpt>
<trkpt lat="35.193998" lon="-84.864103"><ele>240.5</ele><time>2026-07-23T19:48:53Z</time></trkpt>
<trkpt lat="35.19403" lon="-84.864083"><ele>241.4</ele><time>2026-07-23T19:48:56Z</time></trkpt>
<trkpt lat="35.194055" lon="-84.864057"><ele>241.1</ele><time>2026-07-23T19:48:59Z</time></trkpt>
<trkpt lat="35.194087" lon="-84.864036"><ele>240.8</ele><time>2026-07-23T19:49:02Z</time></trkpt>
<trkpt lat="35.194118" lon="-84.864015"><ele>240.8</ele><time>2026-07-23T19:49:05Z</time></trkpt>
<trkpt lat="35.194149" lon="-84.863996"><ele>241.4</ele><time>2026-07-23T19:49:08Z</time></trkpt>
<trkpt lat="35.194182" lon="-84.863978"><ele>241.1</ele><time>2026-07-23T19:49:11Z</time></trkpt>
<trkpt lat="35.194215" lon="-84.86396"><ele>240.8</ele><time>2026-07-23T19:49:14Z</time></trkpt>
<trkpt lat="35.194251" lon="-84.863947"><ele>241.1</ele><time>2026-07-23T19:49:17Z</time></trkpt>
<trkpt lat="35.194285" lon="-84.863936"><ele>240.8</ele><time>2026-07-23T19:49:20Z</time></trkpt>
<trkpt lat="35.194318" lon="-84.863923"><ele>241.1</ele><time>2026-07-23T19:49:23Z</time></trkpt>
<trkpt lat="35.194353" lon="-84.863906"><ele>241.1</ele><time>2026-07-23T19:49:26Z</time></trkpt>
<trkpt lat="35.194385" lon="-84.863877"><ele>241.7</ele><time>2026-07-23T19:49:29Z</time></trkpt>
<trkpt lat="35.194393" lon="-84.863835"><ele>240.5</ele><time>2026-07-23T19:49:32Z</time></trkpt>
<trkpt lat="35.194397" lon="-84.863795"><ele>240.8</ele><time>2026-07-23T19:49:35Z</time></trkpt>
<trkpt lat="35.194373" lon="-84.86375"><ele>240.8</ele><time>2026-07-23T19:49:38Z</time></trkpt>
<trkpt lat="35.194359" lon="-84.863717"><ele>240.2</ele><time>2026-07-23T19:49:40Z</time></trkpt>
<trkpt lat="35.194344" lon="-84.863688"><ele>239.9</ele><time>2026-07-23T19:49:42Z</time></trkpt>
<trkpt lat="35.194329" lon="-84.863658"><ele>240.2</ele><time>2026-07-23T19:49:44Z</time></trkpt>
<trkpt lat="35.194326" lon="-84.863612"><ele>239.9</ele><time>2026-07-23T19:49:47Z</time></trkpt>
<trkpt lat="35.194321" lon="-84.863565"><ele>240.8</ele><time>2026-07-23T19:49:50Z</time></trkpt>
<trkpt lat="35.194316" lon="-84.863532"><ele>240.5</ele><time>2026-07-23T19:49:52Z</time></trkpt>
<trkpt lat="35.194334" lon="-84.863506"><ele>241.4</ele><time>2026-07-23T19:49:54Z</time></trkpt>
<trkpt lat="35.194366" lon="-84.863499"><ele>241.1</ele><time>2026-07-23T19:49:56Z</time></trkpt>
<trkpt lat="35.194398" lon="-84.863499"><ele>241.4</ele><time>2026-07-23T19:49:58Z</time></trkpt>
<trkpt lat="35.194438" lon="-84.863497"><ele>241.7</ele><time>2026-07-23T19:50:01Z</time></trkpt>
<trkpt lat="35.194477" lon="-84.863487"><ele>240.2</ele><time>2026-07-23T19:50:04Z</time></trkpt>
<trkpt lat="35.194512" lon="-84.86347"><ele>240.8</ele><time>2026-07-23T19:50:07Z</time></trkpt>
<trkpt lat="35.194547" lon="-84.863459"><ele>240.8</ele><time>2026-07-23T19:50:10Z</time></trkpt>
<trkpt lat="35.194583" lon="-84.863459"><ele>242.0</ele><time>2026-07-23T19:50:13Z</time></trkpt>
<trkpt lat="35.194623" lon="-84.863455"><ele>242.3</ele><time>2026-07-23T19:50:16Z</time></trkpt>
<trkpt lat="35.19466" lon="-84.86345"><ele>241.7</ele><time>2026-07-23T19:50:19Z</time></trkpt>
<trkpt lat="35.194701" lon="-84.863452"><ele>241.7</ele><time>2026-07-23T19:50:22Z</time></trkpt>
<trkpt lat="35.19474" lon="-84.863447"><ele>240.8</ele><time>2026-07-23T19:50:25Z</time></trkpt>
<trkpt lat="35.19478" lon="-84.863447"><ele>240.2</ele><time>2026-07-23T19:50:28Z</time></trkpt>
<trkpt lat="35.194818" lon="-84.863445"><ele>239.6</ele><time>2026-07-23T19:50:31Z</time></trkpt>
<trkpt lat="35.194851" lon="-84.863429"><ele>239.6</ele><time>2026-07-23T19:50:34Z</time></trkpt>
<trkpt lat="35.194885" lon="-84.863401"><ele>241.1</ele><time>2026-07-23T19:50:37Z</time></trkpt>
<trkpt lat="35.194912" lon="-84.863381"><ele>242.3</ele><time>2026-07-23T19:50:39Z</time></trkpt>
<trkpt lat="35.194948" lon="-84.863368"><ele>241.7</ele><time>2026-07-23T19:50:42Z</time></trkpt>
<trkpt lat="35.194976" lon="-84.863339"><ele>241.4</ele><time>2026-07-23T19:50:45Z</time></trkpt>
<trkpt lat="35.195001" lon="-84.863307"><ele>241.4</ele><time>2026-07-23T19:50:48Z</time></trkpt>
<trkpt lat="35.195022" lon="-84.863273"><ele>241.1</ele><time>2026-07-23T19:50:51Z</time></trkpt>
<trkpt lat="35.195045" lon="-84.863236"><ele>240.8</ele><time>2026-07-23T19:50:54Z</time></trkpt>
<trkpt lat="35.195065" lon="-84.863197"><ele>241.4</ele><time>2026-07-23T19:50:57Z</time></trkpt>
<trkpt lat="35.195089" lon="-84.863157"><ele>242.0</ele><time>2026-07-23T19:51:00Z</time></trkpt>
<trkpt lat="35.195103" lon="-84.863128"><ele>242.3</ele><time>2026-07-23T19:51:02Z</time></trkpt>
<trkpt lat="35.19512" lon="-84.863096"><ele>242.9</ele><time>2026-07-23T19:51:04Z</time></trkpt>
<trkpt lat="35.19513" lon="-84.863063"><ele>242.9</ele><time>2026-07-23T19:51:06Z</time></trkpt>
<trkpt lat="35.195142" lon="-84.863016"><ele>243.2</ele><time>2026-07-23T19:51:09Z</time></trkpt>
<trkpt lat="35.195156" lon="-84.862975"><ele>243.2</ele><time>2026-07-23T19:51:12Z</time></trkpt>
<trkpt lat="35.195164" lon="-84.862933"><ele>244.1</ele><time>2026-07-23T19:51:15Z</time></trkpt>
<trkpt lat="35.195173" lon="-84.86289"><ele>244.4</ele><time>2026-07-23T19:51:18Z</time></trkpt>
<trkpt lat="35.195172" lon="-84.862842"><ele>244.8</ele><time>2026-07-23T19:51:21Z</time></trkpt>
<trkpt lat="35.195178" lon="-84.862801"><ele>245.4</ele><time>2026-07-23T19:51:24Z</time></trkpt>
<trkpt lat="35.195177" lon="-84.862753"><ele>245.1</ele><time>2026-07-23T19:51:27Z</time></trkpt>
<trkpt lat="35.195183" lon="-84.862719"><ele>246.6</ele><time>2026-07-23T19:51:29Z</time></trkpt>
<trkpt lat="35.195192" lon="-84.862671"><ele>246.3</ele><time>2026-07-23T19:51:32Z</time></trkpt>
<trkpt lat="35.19521" lon="-84.862632"><ele>245.7</ele><time>2026-07-23T19:51:35Z</time></trkpt>
<trkpt lat="35.19524" lon="-84.862606"><ele>245.1</ele><time>2026-07-23T19:51:38Z</time></trkpt>
<trkpt lat="35.195268" lon="-84.862587"><ele>244.8</ele><time>2026-07-23T19:51:41Z</time></trkpt>
<trkpt lat="35.195293" lon="-84.862616"><ele>244.8</ele><time>2026-07-23T19:51:43Z</time></trkpt>
<trkpt lat="35.195324" lon="-84.862589"><ele>244.1</ele><time>2026-07-23T19:51:46Z</time></trkpt>
<trkpt lat="35.195358" lon="-84.862578"><ele>245.1</ele><time>2026-07-23T19:51:49Z</time></trkpt>
<trkpt lat="35.195389" lon="-84.86257"><ele>245.4</ele><time>2026-07-23T19:51:52Z</time></trkpt>
<trkpt lat="35.195422" lon="-84.862561"><ele>245.7</ele><time>2026-07-23T19:51:55Z</time></trkpt>
<trkpt lat="35.195446" lon="-84.86253"><ele>242.9</ele><time>2026-07-23T19:51:58Z</time></trkpt>
<trkpt lat="35.195476" lon="-84.862511"><ele>242.6</ele><time>2026-07-23T19:52:01Z</time></trkpt>
<trkpt lat="35.195504" lon="-84.862484"><ele>243.2</ele><time>2026-07-23T19:52:04Z</time></trkpt>
<trkpt lat="35.195539" lon="-84.862457"><ele>242.0</ele><time>2026-07-23T19:52:07Z</time></trkpt>
<trkpt lat="35.195571" lon="-84.862435"><ele>241.4</ele><time>2026-07-23T19:52:10Z</time></trkpt>
<trkpt lat="35.195603" lon="-84.86241"><ele>243.2</ele><time>2026-07-23T19:52:13Z</time></trkpt>
<trkpt lat="35.195628" lon="-84.862396"><ele>243.8</ele><time>2026-07-23T19:52:15Z</time></trkpt>
<trkpt lat="35.195661" lon="-84.862378"><ele>243.5</ele><time>2026-07-23T19:52:18Z</time></trkpt>
<trkpt lat="35.195691" lon="-84.862361"><ele>245.4</ele><time>2026-07-23T19:52:21Z</time></trkpt>
<trkpt lat="35.19572" lon="-84.862336"><ele>246.0</ele><time>2026-07-23T19:52:24Z</time></trkpt>
<trkpt lat="35.195755" lon="-84.86232"><ele>249.6</ele><time>2026-07-23T19:52:27Z</time></trkpt>
<trkpt lat="35.195784" lon="-84.862298"><ele>250.9</ele><time>2026-07-23T19:52:30Z</time></trkpt>
<trkpt lat="35.195823" lon="-84.862288"><ele>251.5</ele><time>2026-07-23T19:52:33Z</time></trkpt>
<trkpt lat="35.195853" lon="-84.862269"><ele>253.0</ele><time>2026-07-23T19:52:36Z</time></trkpt>
<trkpt lat="35.195883" lon="-84.862248"><ele>255.1</ele><time>2026-07-23T19:52:39Z</time></trkpt>
<trkpt lat="35.195915" lon="-84.862231"><ele>257.9</ele><time>2026-07-23T19:52:42Z</time></trkpt>
<trkpt lat="35.195945" lon="-84.86221"><ele>259.4</ele><time>2026-07-23T19:52:45Z</time></trkpt>
<trkpt lat="35.195975" lon="-84.86219"><ele>258.2</ele><time>2026-07-23T19:52:48Z</time></trkpt>
<trkpt lat="35.196009" lon="-84.862172"><ele>257.6</ele><time>2026-07-23T19:52:51Z</time></trkpt>
<trkpt lat="35.19604" lon="-84.862154"><ele>258.8</ele><time>2026-07-23T19:52:54Z</time></trkpt>
<trkpt lat="35.196075" lon="-84.862132"><ele>258.5</ele><time>2026-07-23T19:52:57Z</time></trkpt>
<trkpt lat="35.19611" lon="-84.862107"><ele>257.6</ele><time>2026-07-23T19:53:00Z</time></trkpt>
<trkpt lat="35.19614" lon="-84.862077"><ele>255.4</ele><time>2026-07-23T19:53:03Z</time></trkpt>
<trkpt lat="35.19617" lon="-84.862051"><ele>252.1</ele><time>2026-07-23T19:53:06Z</time></trkpt>
<trkpt lat="35.196203" lon="-84.862023"><ele>253.0</ele><time>2026-07-23T19:53:09Z</time></trkpt>
<trkpt lat="35.196217" lon="-84.861993"><ele>251.5</ele><time>2026-07-23T19:53:11Z</time></trkpt>
<trkpt lat="35.196233" lon="-84.861965"><ele>250.9</ele><time>2026-07-23T19:53:13Z</time></trkpt>
<trkpt lat="35.196259" lon="-84.861935"><ele>250.5</ele><time>2026-07-23T19:53:16Z</time></trkpt>
<trkpt lat="35.196286" lon="-84.86191"><ele>252.4</ele><time>2026-07-23T19:53:19Z</time></trkpt>
<trkpt lat="35.196314" lon="-84.861884"><ele>252.7</ele><time>2026-07-23T19:53:22Z</time></trkpt>
<trkpt lat="35.196349" lon="-84.861866"><ele>253.6</ele><time>2026-07-23T19:53:25Z</time></trkpt>
<trkpt lat="35.196379" lon="-84.86184"><ele>251.5</ele><time>2026-07-23T19:53:28Z</time></trkpt>
<trkpt lat="35.196407" lon="-84.861822"><ele>252.4</ele><time>2026-07-23T19:53:31Z</time></trkpt>
<trkpt lat="35.196432" lon="-84.8618"><ele>255.1</ele><time>2026-07-23T19:53:34Z</time></trkpt>
<trkpt lat="35.19646" lon="-84.861774"><ele>254.5</ele><time>2026-07-23T19:53:37Z</time></trkpt>
<trkpt lat="35.196491" lon="-84.861756"><ele>254.5</ele><time>2026-07-23T19:53:40Z</time></trkpt>
<trkpt lat="35.196518" lon="-84.861735"><ele>255.7</ele><time>2026-07-23T19:53:43Z</time></trkpt>
<trkpt lat="35.196552" lon="-84.861732"><ele>257.9</ele><time>2026-07-23T19:53:46Z</time></trkpt>
<trkpt lat="35.196568" lon="-84.861762"><ele>251.8</ele><time>2026-07-23T19:53:49Z</time></trkpt>
<trkpt lat="35.196583" lon="-84.861805"><ele>250.2</ele><time>2026-07-23T19:53:52Z</time></trkpt>
<trkpt lat="35.196603" lon="-84.861838"><ele>250.9</ele><time>2026-07-23T19:53:55Z</time></trkpt>
<trkpt lat="35.196595" lon="-84.861865"><ele>250.5</ele><time>2026-07-23T19:53:56Z</time></trkpt>
<trkpt lat="35.196587" lon="-84.86187"><ele>249.9</ele><time>2026-07-23T19:53:57Z</time></trkpt>
<trkpt lat="35.196583" lon="-84.861871"><ele>249.9</ele><time>2026-07-23T19:54:02Z</time></trkpt>
<trkpt lat="35.196583" lon="-84.86186"><ele>249.0</ele><time>2026-07-23T19:54:03Z</time></trkpt>
<trkpt lat="35.196583" lon="-84.861821"><ele>247.2</ele><time>2026-07-23T19:54:05Z</time></trkpt>
<trkpt lat="35.196579" lon="-84.86178"><ele>246.3</ele><time>2026-07-23T19:54:07Z</time></trkpt>
<trkpt lat="35.19658" lon="-84.861738"><ele>245.7</ele><time>2026-07-23T19:54:09Z</time></trkpt>
<trkpt lat="35.196599" lon="-84.861709"><ele>246.6</ele><time>2026-07-23T19:54:11Z</time></trkpt>
<trkpt lat="35.196628" lon="-84.861695"><ele>247.5</ele><time>2026-07-23T19:54:13Z</time></trkpt>
<trkpt lat="35.196665" lon="-84.861681"><ele>247.2</ele><time>2026-07-23T19:54:16Z</time></trkpt>
<trkpt lat="35.196697" lon="-84.861666"><ele>246.3</ele><time>2026-07-23T19:54:19Z</time></trkpt>
<trkpt lat="35.196729" lon="-84.861641"><ele>248.1</ele><time>2026-07-23T19:54:22Z</time></trkpt>
<trkpt lat="35.196761" lon="-84.861624"><ele>246.9</ele><time>2026-07-23T19:54:25Z</time></trkpt>
<trkpt lat="35.196795" lon="-84.861605"><ele>247.2</ele><time>2026-07-23T19:54:28Z</time></trkpt>
<trkpt lat="35.196823" lon="-84.861578"><ele>247.8</ele><time>2026-07-23T19:54:31Z</time></trkpt>
<trkpt lat="35.196852" lon="-84.861554"><ele>248.7</ele><time>2026-07-23T19:54:34Z</time></trkpt>
<trkpt lat="35.196875" lon="-84.86153"><ele>247.8</ele><time>2026-07-23T19:54:37Z</time></trkpt>
<trkpt lat="35.196895" lon="-84.861495"><ele>247.2</ele><time>2026-07-23T19:54:40Z</time></trkpt>
<trkpt lat="35.196919" lon="-84.861465"><ele>247.8</ele><time>2026-07-23T19:54:43Z</time></trkpt>
<trkpt lat="35.196942" lon="-84.861431"><ele>248.4</ele><time>2026-07-23T19:54:46Z</time></trkpt>
<trkpt lat="35.196976" lon="-84.861416"><ele>249.6</ele><time>2026-07-23T19:54:49Z</time></trkpt>
<trkpt lat="35.19699" lon="-84.861376"><ele>247.8</ele><time>2026-07-23T19:54:52Z</time></trkpt>
<trkpt lat="35.197018" lon="-84.861356"><ele>248.7</ele><time>2026-07-23T19:54:55Z</time></trkpt>
<trkpt lat="35.197047" lon="-84.861335"><ele>247.2</ele><time>2026-07-23T19:54:58Z</time></trkpt>
<trkpt lat="35.197072" lon="-84.861309"><ele>248.1</ele><time>2026-07-23T19:55:01Z</time></trkpt>
<trkpt lat="35.197097" lon="-84.861285"><ele>247.2</ele><time>2026-07-23T19:55:04Z</time></trkpt>
<trkpt lat="35.197121" lon="-84.861255"><ele>247.5</ele><time>2026-07-23T19:55:07Z</time></trkpt>
<trkpt lat="35.197147" lon="-84.86123"><ele>246.0</ele><time>2026-07-23T19:55:10Z</time></trkpt>
<trkpt lat="35.197181" lon="-84.861217"><ele>247.2</ele><time>2026-07-23T19:55:13Z</time></trkpt>
<trkpt lat="35.197211" lon="-84.8612"><ele>249.3</ele><time>2026-07-23T19:55:16Z</time></trkpt>
<trkpt lat="35.197238" lon="-84.861174"><ele>249.3</ele><time>2026-07-23T19:55:19Z</time></trkpt>
<trkpt lat="35.197265" lon="-84.861148"><ele>248.7</ele><time>2026-07-23T19:55:22Z</time></trkpt>
<trkpt lat="35.197294" lon="-84.86112"><ele>247.2</ele><time>2026-07-23T19:55:25Z</time></trkpt>
<trkpt lat="35.197314" lon="-84.86109"><ele>247.8</ele><time>2026-07-23T19:55:28Z</time></trkpt>
<trkpt lat="35.197342" lon="-84.861065"><ele>246.3</ele><time>2026-07-23T19:55:31Z</time></trkpt>
<trkpt lat="35.197371" lon="-84.861036"><ele>245.4</ele><time>2026-07-23T19:55:34Z</time></trkpt>
<trkpt lat="35.197403" lon="-84.861016"><ele>246.6</ele><time>2026-07-23T19:55:37Z</time></trkpt>
<trkpt lat="35.197432" lon="-84.860992"><ele>246.3</ele><time>2026-07-23T19:55:40Z</time></trkpt>
<trkpt lat="35.197458" lon="-84.860967"><ele>246.0</ele><time>2026-07-23T19:55:43Z</time></trkpt>
<trkpt lat="35.197484" lon="-84.860938"><ele>244.4</ele><time>2026-07-23T19:55:46Z</time></trkpt>
<trkpt lat="35.197511" lon="-84.860921"><ele>244.1</ele><time>2026-07-23T19:55:49Z</time></trkpt>
<trkpt lat="35.197541" lon="-84.860903"><ele>244.4</ele><time>2026-07-23T19:55:52Z</time></trkpt>
<trkpt lat="35.197571" lon="-84.860887"><ele>244.8</ele><time>2026-07-23T19:55:55Z</time></trkpt>
<trkpt lat="35.197601" lon="-84.86087"><ele>244.8</ele><time>2026-07-23T19:55:58Z</time></trkpt>
<trkpt lat="35.197633" lon="-84.860854"><ele>245.1</ele><time>2026-07-23T19:56:01Z</time></trkpt>
<trkpt lat="35.197659" lon="-84.860832"><ele>244.8</ele><time>2026-07-23T19:56:04Z</time></trkpt>
<trkpt lat="35.197691" lon="-84.860816"><ele>244.1</ele><time>2026-07-23T19:56:07Z</time></trkpt>
<trkpt lat="35.197721" lon="-84.860793"><ele>244.8</ele><time>2026-07-23T19:56:10Z</time></trkpt>
<trkpt lat="35.197749" lon="-84.860773"><ele>246.6</ele><time>2026-07-23T19:56:13Z</time></trkpt>
<trkpt lat="35.19778" lon="-84.860754"><ele>246.9</ele><time>2026-07-23T19:56:16Z</time></trkpt>
<trkpt lat="35.197811" lon="-84.860735"><ele>249.3</ele><time>2026-07-23T19:56:19Z</time></trkpt>
<trkpt lat="35.197841" lon="-84.860711"><ele>248.7</ele><time>2026-07-23T19:56:22Z</time></trkpt>
<trkpt lat="35.19787" lon="-84.860693"><ele>248.1</ele><time>2026-07-23T19:56:25Z</time></trkpt>
<trkpt lat="35.197904" lon="-84.860674"><ele>246.9</ele><time>2026-07-23T19:56:28Z</time></trkpt>
<trkpt lat="35.197933" lon="-84.860653"><ele>246.9</ele><time>2026-07-23T19:56:31Z</time></trkpt>
<trkpt lat="35.197958" lon="-84.860629"><ele>247.5</ele><time>2026-07-23T19:56:34Z</time></trkpt>
<trkpt lat="35.197985" lon="-84.860604"><ele>246.6</ele><time>2026-07-23T19:56:37Z</time></trkpt>
<trkpt lat="35.198015" lon="-84.860585"><ele>247.2</ele><time>2026-07-23T19:56:40Z</time></trkpt>
<trkpt lat="35.198045" lon="-84.860568"><ele>248.4</ele><time>2026-07-23T19:56:43Z</time></trkpt>
<trkpt lat="35.198076" lon="-84.860542"><ele>248.1</ele><time>2026-07-23T19:56:46Z</time></trkpt>
<trkpt lat="35.198105" lon="-84.860516"><ele>247.5</ele><time>2026-07-23T19:56:49Z</time></trkpt>
<trkpt lat="35.198136" lon="-84.860514"><ele>246.0</ele><time>2026-07-23T19:56:51Z</time></trkpt>
<trkpt lat="35.198175" lon="-84.860501"><ele>247.5</ele><time>2026-07-23T19:56:54Z</time></trkpt>
<trkpt lat="35.198211" lon="-84.860492"><ele>246.9</ele><time>2026-07-23T19:56:57Z</time></trkpt>
<trkpt lat="35.198235" lon="-84.860464"><ele>249.0</ele><time>2026-07-23T19:57:00Z</time></trkpt>
<trkpt lat="35.198267" lon="-84.860444"><ele>247.2</ele><time>2026-07-23T19:57:03Z</time></trkpt>
<trkpt lat="35.198298" lon="-84.860422"><ele>248.1</ele><time>2026-07-23T19:57:06Z</time></trkpt>
<trkpt lat="35.198333" lon="-84.860407"><ele>248.1</ele><time>2026-07-23T19:57:09Z</time></trkpt>
<trkpt lat="35.198371" lon="-84.8604"><ele>248.7</ele><time>2026-07-23T19:57:12Z</time></trkpt>
<trkpt lat="35.198408" lon="-84.86039"><ele>250.2</ele><time>2026-07-23T19:57:15Z</time></trkpt>
<trkpt lat="35.198446" lon="-84.860379"><ele>251.2</ele><time>2026-07-23T19:57:18Z</time></trkpt>
<trkpt lat="35.198481" lon="-84.860368"><ele>250.5</ele><time>2026-07-23T19:57:21Z</time></trkpt>
<trkpt lat="35.198519" lon="-84.860358"><ele>251.2</ele><time>2026-07-23T19:57:24Z</time></trkpt>
<trkpt lat="35.198558" lon="-84.860344"><ele>252.1</ele><time>2026-07-23T19:57:27Z</time></trkpt>
<trkpt lat="35.198593" lon="-84.860331"><ele>251.5</ele><time>2026-07-23T19:57:30Z</time></trkpt>
<trkpt lat="35.198627" lon="-84.860305"><ele>250.5</ele><time>2026-07-23T19:57:33Z</time></trkpt>
<trkpt lat="35.198658" lon="-84.860281"><ele>249.3</ele><time>2026-07-23T19:57:36Z</time></trkpt>
<trkpt lat="35.198692" lon="-84.860257"><ele>249.0</ele><time>2026-07-23T19:57:39Z</time></trkpt>
<trkpt lat="35.198713" lon="-84.860236"><ele>249.3</ele><time>2026-07-23T19:57:41Z</time></trkpt>
<trkpt lat="35.198747" lon="-84.860217"><ele>248.7</ele><time>2026-07-23T19:57:44Z</time></trkpt>
<trkpt lat="35.198782" lon="-84.860197"><ele>247.2</ele><time>2026-07-23T19:57:47Z</time></trkpt>
<trkpt lat="35.198812" lon="-84.860173"><ele>246.9</ele><time>2026-07-23T19:57:50Z</time></trkpt>
<trkpt lat="35.198841" lon="-84.860148"><ele>244.1</ele><time>2026-07-23T19:57:53Z</time></trkpt>
<trkpt lat="35.198873" lon="-84.860131"><ele>243.2</ele><time>2026-07-23T19:57:56Z</time></trkpt>
<trkpt lat="35.198905" lon="-84.860114"><ele>245.1</ele><time>2026-07-23T19:57:59Z</time></trkpt>
<trkpt lat="35.198935" lon="-84.860089"><ele>245.4</ele><time>2026-07-23T19:58:02Z</time></trkpt>
<trkpt lat="35.198963" lon="-84.860064"><ele>244.8</ele><time>2026-07-23T19:58:05Z</time></trkpt>
<trkpt lat="35.198995" lon="-84.860038"><ele>243.8</ele><time>2026-07-23T19:58:08Z</time></trkpt>
<trkpt lat="35.199027" lon="-84.86001"><ele>242.9</ele><time>2026-07-23T19:58:11Z</time></trkpt>
<trkpt lat="35.199054" lon="-84.859978"><ele>240.8</ele><time>2026-07-23T19:58:14Z</time></trkpt>
<trkpt lat="35.199087" lon="-84.859953"><ele>242.3</ele><time>2026-07-23T19:58:17Z</time></trkpt>
<trkpt lat="35.199121" lon="-84.859932"><ele>241.4</ele><time>2026-07-23T19:58:20Z</time></trkpt>
<trkpt lat="35.199156" lon="-84.859917"><ele>241.7</ele><time>2026-07-23T19:58:23Z</time></trkpt>
<trkpt lat="35.199181" lon="-84.859901"><ele>240.8</ele><time>2026-07-23T19:58:25Z</time></trkpt>
<trkpt lat="35.199215" lon="-84.859881"><ele>242.3</ele><time>2026-07-23T19:58:28Z</time></trkpt>
<trkpt lat="35.199252" lon="-84.859864"><ele>242.6</ele><time>2026-07-23T19:58:31Z</time></trkpt>
<trkpt lat="35.199284" lon="-84.85984"><ele>240.5</ele><time>2026-07-23T19:58:34Z</time></trkpt>
<trkpt lat="35.199317" lon="-84.859816"><ele>240.5</ele><time>2026-07-23T19:58:37Z</time></trkpt>
<trkpt lat="35.199358" lon="-84.859796"><ele>243.5</ele><time>2026-07-23T19:58:40Z</time></trkpt>
<trkpt lat="35.199396" lon="-84.859784"><ele>244.1</ele><time>2026-07-23T19:58:43Z</time></trkpt>
<trkpt lat="35.19943" lon="-84.859768"><ele>243.2</ele><time>2026-07-23T19:58:45Z</time></trkpt>
<trkpt lat="35.199458" lon="-84.859745"><ele>243.8</ele><time>2026-07-23T19:58:48Z</time></trkpt>
<trkpt lat="35.199486" lon="-84.859734"><ele>244.4</ele><time>2026-07-23T19:58:51Z</time></trkpt>
<trkpt lat="35.199519" lon="-84.859714"><ele>246.3</ele><time>2026-07-23T19:58:54Z</time></trkpt>
<trkpt lat="35.199547" lon="-84.859699"><ele>245.4</ele><time>2026-07-23T19:58:57Z</time></trkpt>
<trkpt lat="35.199582" lon="-84.85968"><ele>245.1</ele><time>2026-07-23T19:59:00Z</time></trkpt>
<trkpt lat="35.199604" lon="-84.859646"><ele>243.5</ele><time>2026-07-23T19:59:03Z</time></trkpt>
<trkpt lat="35.19963" lon="-84.859613"><ele>242.3</ele><time>2026-07-23T19:59:06Z</time></trkpt>
<trkpt lat="35.199652" lon="-84.859585"><ele>241.7</ele><time>2026-07-23T19:59:09Z</time></trkpt>
<trkpt lat="35.199675" lon="-84.859556"><ele>241.4</ele><time>2026-07-23T19:59:12Z</time></trkpt>
<trkpt lat="35.199702" lon="-84.859525"><ele>241.4</ele><time>2026-07-23T19:59:15Z</time></trkpt>
<trkpt lat="35.19973" lon="-84.859498"><ele>242.3</ele><time>2026-07-23T19:59:18Z</time></trkpt>
<trkpt lat="35.199761" lon="-84.859477"><ele>242.3</ele><time>2026-07-23T19:59:21Z</time></trkpt>
<trkpt lat="35.199787" lon="-84.859447"><ele>241.4</ele><time>2026-07-23T19:59:24Z</time></trkpt>
<trkpt lat="35.199811" lon="-84.859415"><ele>240.8</ele><time>2026-07-23T19:59:27Z</time></trkpt>
<trkpt lat="35.199833" lon="-84.859377"><ele>241.7</ele><time>2026-07-23T19:59:30Z</time></trkpt>
<trkpt lat="35.199853" lon="-84.85934"><ele>241.7</ele><time>2026-07-23T19:59:33Z</time></trkpt>
<trkpt lat="35.199878" lon="-84.859313"><ele>241.1</ele><time>2026-07-23T19:59:36Z</time></trkpt>
<trkpt lat="35.199896" lon="-84.859277"><ele>240.5</ele><time>2026-07-23T19:59:39Z</time></trkpt>
<trkpt lat="35.199922" lon="-84.859249"><ele>241.1</ele><time>2026-07-23T19:59:42Z</time></trkpt>
<trkpt lat="35.199953" lon="-84.859219"><ele>242.9</ele><time>2026-07-23T19:59:45Z</time></trkpt>
<trkpt lat="35.199975" lon="-84.859183"><ele>243.8</ele><time>2026-07-23T19:59:48Z</time></trkpt>
<trkpt lat="35.199995" lon="-84.859156"><ele>242.6</ele><time>2026-07-23T19:59:51Z</time></trkpt>
<trkpt lat="35.200024" lon="-84.859131"><ele>242.0</ele><time>2026-07-23T19:59:54Z</time></trkpt>
<trkpt lat="35.200048" lon="-84.859101"><ele>242.6</ele><time>2026-07-23T19:59:57Z</time></trkpt>
<trkpt lat="35.200069" lon="-84.859071"><ele>241.1</ele><time>2026-07-23T20:00:00Z</time></trkpt>
<trkpt lat="35.200083" lon="-84.859033"><ele>241.4</ele><time>2026-07-23T20:00:03Z</time></trkpt>
<trkpt lat="35.2001" lon="-84.858997"><ele>241.4</ele><time>2026-07-23T20:00:06Z</time></trkpt>
<trkpt lat="35.200129" lon="-84.858969"><ele>242.3</ele><time>2026-07-23T20:00:09Z</time></trkpt>
<trkpt lat="35.200154" lon="-84.85894"><ele>243.2</ele><time>2026-07-23T20:00:12Z</time></trkpt>
<trkpt lat="35.200185" lon="-84.858914"><ele>244.1</ele><time>2026-07-23T20:00:15Z</time></trkpt>
<trkpt lat="35.200211" lon="-84.858885"><ele>244.4</ele><time>2026-07-23T20:00:18Z</time></trkpt>
<trkpt lat="35.200234" lon="-84.858855"><ele>244.1</ele><time>2026-07-23T20:00:21Z</time></trkpt>
<trkpt lat="35.200257" lon="-84.858824"><ele>244.1</ele><time>2026-07-23T20:00:24Z</time></trkpt>
<trkpt lat="35.200286" lon="-84.858791"><ele>245.1</ele><time>2026-07-23T20:00:27Z</time></trkpt>
<trkpt lat="35.200314" lon="-84.85876"><ele>245.7</ele><time>2026-07-23T20:00:30Z</time></trkpt>
<trkpt lat="35.20034" lon="-84.858733"><ele>246.9</ele><time>2026-07-23T20:00:33Z</time></trkpt>
<trkpt lat="35.200368" lon="-84.858707"><ele>247.8</ele><time>2026-07-23T20:00:36Z</time></trkpt>
<trkpt lat="35.200394" lon="-84.858679"><ele>247.5</ele><time>2026-07-23T20:00:39Z</time></trkpt>
<trkpt lat="35.200422" lon="-84.858652"><ele>247.5</ele><time>2026-07-23T20:00:42Z</time></trkpt>
<trkpt lat="35.200445" lon="-84.858625"><ele>248.4</ele><time>2026-07-23T20:00:45Z</time></trkpt>
<trkpt lat="35.20047" lon="-84.858597"><ele>246.0</ele><time>2026-07-23T20:00:48Z</time></trkpt>
<trkpt lat="35.20049" lon="-84.85856"><ele>246.3</ele><time>2026-07-23T20:00:51Z</time></trkpt>
<trkpt lat="35.200515" lon="-84.858524"><ele>245.4</ele><time>2026-07-23T20:00:54Z</time></trkpt>
<trkpt lat="35.200538" lon="-84.858491"><ele>246.6</ele><time>2026-07-23T20:00:57Z</time></trkpt>
<trkpt lat="35.200569" lon="-84.858467"><ele>245.7</ele><time>2026-07-23T20:01:00Z</time></trkpt>
<trkpt lat="35.200596" lon="-84.858432"><ele>244.1</ele><time>2026-07-23T20:01:03Z</time></trkpt>
<trkpt lat="35.200619" lon="-84.858394"><ele>243.8</ele><time>2026-07-23T20:01:06Z</time></trkpt>
<trkpt lat="35.200644" lon="-84.858354"><ele>242.9</ele><time>2026-07-23T20:01:09Z</time></trkpt>
<trkpt lat="35.200672" lon="-84.858326"><ele>244.4</ele><time>2026-07-23T20:01:12Z</time></trkpt>
<trkpt lat="35.200696" lon="-84.858293"><ele>243.8</ele><time>2026-07-23T20:01:15Z</time></trkpt>
<trkpt lat="35.200724" lon="-84.858261"><ele>244.8</ele><time>2026-07-23T20:01:18Z</time></trkpt>
<trkpt lat="35.200756" lon="-84.858233"><ele>245.7</ele><time>2026-07-23T20:01:21Z</time></trkpt>
<trkpt lat="35.200783" lon="-84.858203"><ele>245.7</ele><time>2026-07-23T20:01:24Z</time></trkpt>
<trkpt lat="35.200805" lon="-84.858163"><ele>246.9</ele><time>2026-07-23T20:01:27Z</time></trkpt>
<trkpt lat="35.200819" lon="-84.858134"><ele>246.6</ele><time>2026-07-23T20:01:29Z</time></trkpt>
<trkpt lat="35.20084" lon="-84.858095"><ele>247.5</ele><time>2026-07-23T20:01:32Z</time></trkpt>
<trkpt lat="35.200865" lon="-84.858064"><ele>247.8</ele><time>2026-07-23T20:01:35Z</time></trkpt>
<trkpt lat="35.200891" lon="-84.85803"><ele>247.5</ele><time>2026-07-23T20:01:38Z</time></trkpt>
<trkpt lat="35.200914" lon="-84.85799"><ele>248.1</ele><time>2026-07-23T20:01:41Z</time></trkpt>
<trkpt lat="35.200944" lon="-84.85796"><ele>249.3</ele><time>2026-07-23T20:01:44Z</time></trkpt>
<trkpt lat="35.200978" lon="-84.857942"><ele>248.7</ele><time>2026-07-23T20:01:47Z</time></trkpt>
<trkpt lat="35.201017" lon="-84.857936"><ele>248.7</ele><time>2026-07-23T20:01:50Z</time></trkpt>
<trkpt lat="35.201054" lon="-84.857939"><ele>246.0</ele><time>2026-07-23T20:01:53Z</time></trkpt>
<trkpt lat="35.201091" lon="-84.857938"><ele>244.4</ele><time>2026-07-23T20:01:56Z</time></trkpt>
<trkpt lat="35.201129" lon="-84.857939"><ele>243.5</ele><time>2026-07-23T20:01:59Z</time></trkpt>
<trkpt lat="35.201167" lon="-84.857936"><ele>241.7</ele><time>2026-07-23T20:02:02Z</time></trkpt>
<trkpt lat="35.201195" lon="-84.857928"><ele>240.5</ele><time>2026-07-23T20:02:04Z</time></trkpt>
<trkpt lat="35.201234" lon="-84.857919"><ele>243.8</ele><time>2026-07-23T20:02:07Z</time></trkpt>
<trkpt lat="35.201266" lon="-84.857924"><ele>242.3</ele><time>2026-07-23T20:02:10Z</time></trkpt>
<trkpt lat="35.201305" lon="-84.857933"><ele>243.5</ele><time>2026-07-23T20:02:13Z</time></trkpt>
<trkpt lat="35.201345" lon="-84.857937"><ele>243.8</ele><time>2026-07-23T20:02:16Z</time></trkpt>
<trkpt lat="35.201372" lon="-84.857938"><ele>243.2</ele><time>2026-07-23T20:02:18Z</time></trkpt>
<trkpt lat="35.201409" lon="-84.857933"><ele>242.0</ele><time>2026-07-23T20:02:21Z</time></trkpt>
<trkpt lat="35.201444" lon="-84.857928"><ele>243.2</ele><time>2026-07-23T20:02:24Z</time></trkpt>
<trkpt lat="35.201472" lon="-84.857924"><ele>244.8</ele><time>2026-07-23T20:02:26Z</time></trkpt>
<trkpt lat="35.201502" lon="-84.857903"><ele>244.4</ele><time>2026-07-23T20:02:29Z</time></trkpt>
<trkpt lat="35.201533" lon="-84.857876"><ele>243.5</ele><time>2026-07-23T20:02:32Z</time></trkpt>
<trkpt lat="35.201558" lon="-84.857855"><ele>242.9</ele><time>2026-07-23T20:02:34Z</time></trkpt>
<trkpt lat="35.201583" lon="-84.857838"><ele>243.5</ele><time>2026-07-23T20:02:36Z</time></trkpt>
<trkpt lat="35.201606" lon="-84.85782"><ele>242.3</ele><time>2026-07-23T20:02:38Z</time></trkpt>
<trkpt lat="35.20163" lon="-84.857798"><ele>242.0</ele><time>2026-07-23T20:02:40Z</time></trkpt>
<trkpt lat="35.201659" lon="-84.857765"><ele>242.3</ele><time>2026-07-23T20:02:43Z</time></trkpt>
<trkpt lat="35.201691" lon="-84.857737"><ele>242.3</ele><time>2026-07-23T20:02:46Z</time></trkpt>
<trkpt lat="35.201721" lon="-84.857707"><ele>242.6</ele><time>2026-07-23T20:02:49Z</time></trkpt>
<trkpt lat="35.201742" lon="-84.857669"><ele>242.9</ele><time>2026-07-23T20:02:52Z</time></trkpt>
<trkpt lat="35.201761" lon="-84.85763"><ele>241.1</ele><time>2026-07-23T20:02:55Z</time></trkpt>
<trkpt lat="35.201764" lon="-84.857583"><ele>239.3</ele><time>2026-07-23T20:02:58Z</time></trkpt>
<trkpt lat="35.20176" lon="-84.857547"><ele>239.0</ele><time>2026-07-23T20:03:00Z</time></trkpt>
<trkpt lat="35.201755" lon="-84.857513"><ele>239.3</ele><time>2026-07-23T20:03:02Z</time></trkpt>
<trkpt lat="35.201757" lon="-84.857479"><ele>239.0</ele><time>2026-07-23T20:03:04Z</time></trkpt>
<trkpt lat="35.201747" lon="-84.857433"><ele>240.2</ele><time>2026-07-23T20:03:07Z</time></trkpt>
<trkpt lat="35.201739" lon="-84.857388"><ele>239.6</ele><time>2026-07-23T20:03:10Z</time></trkpt>
<trkpt lat="35.201734" lon="-84.857343"><ele>239.3</ele><time>2026-07-23T20:03:13Z</time></trkpt>
<trkpt lat="35.201723" lon="-84.857296"><ele>239.9</ele><time>2026-07-23T20:03:16Z</time></trkpt>
<trkpt lat="35.201715" lon="-84.857251"><ele>239.0</ele><time>2026-07-23T20:03:19Z</time></trkpt>
<trkpt lat="35.201712" lon="-84.857205"><ele>239.6</ele><time>2026-07-23T20:03:22Z</time></trkpt>
<trkpt lat="35.201708" lon="-84.857171"><ele>239.9</ele><time>2026-07-23T20:03:24Z</time></trkpt>
<trkpt lat="35.2017" lon="-84.857124"><ele>239.9</ele><time>2026-07-23T20:03:27Z</time></trkpt>
<trkpt lat="35.201689" lon="-84.857082"><ele>240.5</ele><time>2026-07-23T20:03:30Z</time></trkpt>
<trkpt lat="35.20168" lon="-84.857041"><ele>240.5</ele><time>2026-07-23T20:03:33Z</time></trkpt>
<trkpt lat="35.201666" lon="-84.856997"><ele>240.5</ele><time>2026-07-23T20:03:36Z</time></trkpt>
<trkpt lat="35.201656" lon="-84.856952"><ele>241.1</ele><time>2026-07-23T20:03:39Z</time></trkpt>
<trkpt lat="35.201646" lon="-84.856906"><ele>241.4</ele><time>2026-07-23T20:03:42Z</time></trkpt>
<trkpt lat="35.201641" lon="-84.856859"><ele>240.8</ele><time>2026-07-23T20:03:45Z</time></trkpt>
<trkpt lat="35.201631" lon="-84.856815"><ele>240.2</ele><time>2026-07-23T20:03:48Z</time></trkpt>
<trkpt lat="35.201616" lon="-84.856772"><ele>240.2</ele><time>2026-07-23T20:03:51Z</time></trkpt>
<trkpt lat="35.201603" lon="-84.856725"><ele>240.2</ele><time>2026-07-23T20:03:54Z</time></trkpt>
<trkpt lat="35.201593" lon="-84.85668"><ele>240.2</ele><time>2026-07-23T20:03:57Z</time></trkpt>
<trkpt lat="35.201573" lon="-84.856634"><ele>240.8</ele><time>2026-07-23T20:04:00Z</time></trkpt>
<trkpt lat="35.201563" lon="-84.856599"><ele>239.3</ele><time>2026-07-23T20:04:03Z</time></trkpt>
<trkpt lat="35.201547" lon="-84.856558"><ele>240.2</ele><time>2026-07-23T20:04:06Z</time></trkpt>
<trkpt lat="35.201537" lon="-84.856509"><ele>240.8</ele><time>2026-07-23T20:04:09Z</time></trkpt>
<trkpt lat="35.201526" lon="-84.856465"><ele>240.2</ele><time>2026-07-23T20:04:12Z</time></trkpt>
<trkpt lat="35.201515" lon="-84.856431"><ele>240.5</ele><time>2026-07-23T20:04:14Z</time></trkpt>
<trkpt lat="35.201505" lon="-84.856388"><ele>240.2</ele><time>2026-07-23T20:04:17Z</time></trkpt>
<trkpt lat="35.201494" lon="-84.856343"><ele>240.5</ele><time>2026-07-23T20:04:20Z</time></trkpt>
<trkpt lat="35.201475" lon="-84.856299"><ele>240.8</ele><time>2026-07-23T20:04:23Z</time></trkpt>
<trkpt lat="35.20146" lon="-84.85626"><ele>240.5</ele><time>2026-07-23T20:04:26Z</time></trkpt>
<trkpt lat="35.201449" lon="-84.856216"><ele>240.5</ele><time>2026-07-23T20:04:29Z</time></trkpt>
<trkpt lat="35.201433" lon="-84.856171"><ele>240.8</ele><time>2026-07-23T20:04:32Z</time></trkpt>
<trkpt lat="35.201416" lon="-84.856131"><ele>241.1</ele><time>2026-07-23T20:04:35Z</time></trkpt>
<trkpt lat="35.201402" lon="-84.856101"><ele>241.4</ele><time>2026-07-23T20:04:37Z</time></trkpt>
<trkpt lat="35.201388" lon="-84.856055"><ele>241.4</ele><time>2026-07-23T20:04:40Z</time></trkpt>
<trkpt lat="35.201372" lon="-84.856011"><ele>242.0</ele><time>2026-07-23T20:04:43Z</time></trkpt>
<trkpt lat="35.201356" lon="-84.85597"><ele>241.1</ele><time>2026-07-23T20:04:46Z</time></trkpt>
<trkpt lat="35.201339" lon="-84.855931"><ele>241.1</ele><time>2026-07-23T20:04:49Z</time></trkpt>
<trkpt lat="35.201316" lon="-84.855889"><ele>241.7</ele><time>2026-07-23T20:04:52Z</time></trkpt>
<trkpt lat="35.2013" lon="-84.855848"><ele>241.4</ele><time>2026-07-23T20:04:55Z</time></trkpt>
<trkpt lat="35.201281" lon="-84.855809"><ele>241.1</ele><time>2026-07-23T20:04:58Z</time></trkpt>
<trkpt lat="35.201261" lon="-84.855768"><ele>240.8</ele><time>2026-07-23T20:05:01Z</time></trkpt>
<trkpt lat="35.201242" lon="-84.855725"><ele>241.1</ele><time>2026-07-23T20:05:04Z</time></trkpt>
<trkpt lat="35.201231" lon="-84.855694"><ele>241.4</ele><time>2026-07-23T20:05:06Z</time></trkpt>
<trkpt lat="35.201214" lon="-84.855651"><ele>242.0</ele><time>2026-07-23T20:05:09Z</time></trkpt>
<trkpt lat="35.201196" lon="-84.855612"><ele>242.0</ele><time>2026-07-23T20:05:12Z</time></trkpt>
<trkpt lat="35.201181" lon="-84.855568"><ele>242.3</ele><time>2026-07-23T20:05:15Z</time></trkpt>
<trkpt lat="35.201171" lon="-84.855537"><ele>242.3</ele><time>2026-07-23T20:05:17Z</time></trkpt>
<trkpt lat="35.201158" lon="-84.855505"><ele>242.3</ele><time>2026-07-23T20:05:19Z</time></trkpt>
<trkpt lat="35.201145" lon="-84.855473"><ele>242.3</ele><time>2026-07-23T20:05:21Z</time></trkpt>
<trkpt lat="35.201128" lon="-84.855446"><ele>242.3</ele><time>2026-07-23T20:05:23Z</time></trkpt>
<trkpt lat="35.201108" lon="-84.855404"><ele>242.0</ele><time>2026-07-23T20:05:26Z</time></trkpt>
<trkpt lat="35.201086" lon="-84.855363"><ele>242.0</ele><time>2026-07-23T20:05:29Z</time></trkpt>
<trkpt lat="35.201077" lon="-84.855318"><ele>242.0</ele><time>2026-07-23T20:05:32Z</time></trkpt>
<trkpt lat="35.201067" lon="-84.855284"><ele>242.0</ele><time>2026-07-23T20:05:34Z</time></trkpt>
<trkpt lat="35.201039" lon="-84.855252"><ele>241.4</ele><time>2026-07-23T20:05:37Z</time></trkpt>
<trkpt lat="35.201017" lon="-84.85523"><ele>241.7</ele><time>2026-07-23T20:05:39Z</time></trkpt>
<trkpt lat="35.200993" lon="-84.855211"><ele>242.0</ele><time>2026-07-23T20:05:41Z</time></trkpt>
<trkpt lat="35.200966" lon="-84.855175"><ele>242.0</ele><time>2026-07-23T20:05:44Z</time></trkpt>
<trkpt lat="35.200943" lon="-84.855138"><ele>242.6</ele><time>2026-07-23T20:05:47Z</time></trkpt>
<trkpt lat="35.200926" lon="-84.855096"><ele>242.6</ele><time>2026-07-23T20:05:50Z</time></trkpt>
<trkpt lat="35.200902" lon="-84.855059"><ele>242.6</ele><time>2026-07-23T20:05:53Z</time></trkpt>
<trkpt lat="35.200886" lon="-84.855017"><ele>243.2</ele><time>2026-07-23T20:05:56Z</time></trkpt>
<trkpt lat="35.200876" lon="-84.85497"><ele>243.2</ele><time>2026-07-23T20:05:59Z</time></trkpt>
<trkpt lat="35.200867" lon="-84.854925"><ele>243.5</ele><time>2026-07-23T20:06:02Z</time></trkpt>
<trkpt lat="35.200863" lon="-84.854891"><ele>243.5</ele><time>2026-07-23T20:06:04Z</time></trkpt>
<trkpt lat="35.200854" lon="-84.854845"><ele>243.5</ele><time>2026-07-23T20:06:07Z</time></trkpt>
<trkpt lat="35.200842" lon="-84.854803"><ele>243.2</ele><time>2026-07-23T20:06:10Z</time></trkpt>
<trkpt lat="35.200825" lon="-84.854759"><ele>243.2</ele><time>2026-07-23T20:06:13Z</time></trkpt>
<trkpt lat="35.200802" lon="-84.854721"><ele>243.5</ele><time>2026-07-23T20:06:16Z</time></trkpt>
<trkpt lat="35.20078" lon="-84.854682"><ele>242.9</ele><time>2026-07-23T20:06:19Z</time></trkpt>
<trkpt lat="35.200754" lon="-84.854643"><ele>243.2</ele><time>2026-07-23T20:06:22Z</time></trkpt>
<trkpt lat="35.200739" lon="-84.854597"><ele>243.5</ele><time>2026-07-23T20:06:25Z</time></trkpt>
<trkpt lat="35.200725" lon="-84.854566"><ele>243.8</ele><time>2026-07-23T20:06:27Z</time></trkpt>
<trkpt lat="35.200711" lon="-84.854534"><ele>244.4</ele><time>2026-07-23T20:06:29Z</time></trkpt>
<trkpt lat="35.200696" lon="-84.854506"><ele>244.8</ele><time>2026-07-23T20:06:31Z</time></trkpt>
<trkpt lat="35.200676" lon="-84.854466"><ele>244.4</ele><time>2026-07-23T20:06:34Z</time></trkpt>
<trkpt lat="35.200656" lon="-84.854426"><ele>244.1</ele><time>2026-07-23T20:06:37Z</time></trkpt>
<trkpt lat="35.200642" lon="-84.854396"><ele>244.1</ele><time>2026-07-23T20:06:39Z</time></trkpt>
<trkpt lat="35.200618" lon="-84.854358"><ele>244.1</ele><time>2026-07-23T20:06:42Z</time></trkpt>
<trkpt lat="35.200593" lon="-84.85432"><ele>244.8</ele><time>2026-07-23T20:06:45Z</time></trkpt>
<trkpt lat="35.200571" lon="-84.854299"><ele>244.8</ele><time>2026-07-23T20:06:47Z</time></trkpt>
<trkpt lat="35.200549" lon="-84.854264"><ele>244.4</ele><time>2026-07-23T20:06:50Z</time></trkpt>
<trkpt lat="35.200525" lon="-84.85423"><ele>244.4</ele><time>2026-07-23T20:06:53Z</time></trkpt>
<trkpt lat="35.200503" lon="-84.854191"><ele>244.4</ele><time>2026-07-23T20:06:56Z</time></trkpt>
<trkpt lat="35.20048" lon="-84.854155"><ele>244.8</ele><time>2026-07-23T20:06:59Z</time></trkpt>
<trkpt lat="35.20046" lon="-84.85413"><ele>245.1</ele><time>2026-07-23T20:07:01Z</time></trkpt>
<trkpt lat="35.200442" lon="-84.85409"><ele>245.7</ele><time>2026-07-23T20:07:04Z</time></trkpt>
<trkpt lat="35.200416" lon="-84.854056"><ele>245.4</ele><time>2026-07-23T20:07:07Z</time></trkpt>
<trkpt lat="35.200386" lon="-84.854026"><ele>245.7</ele><time>2026-07-23T20:07:10Z</time></trkpt>
<trkpt lat="35.200351" lon="-84.854004"><ele>246.6</ele><time>2026-07-23T20:07:13Z</time></trkpt>
<trkpt lat="35.200319" lon="-84.853982"><ele>246.6</ele><time>2026-07-23T20:07:16Z</time></trkpt>
<trkpt lat="35.200288" lon="-84.853957"><ele>246.3</ele><time>2026-07-23T20:07:19Z</time></trkpt>
<trkpt lat="35.200257" lon="-84.853935"><ele>246.3</ele><time>2026-07-23T20:07:22Z</time></trkpt>
<trkpt lat="35.200237" lon="-84.85391"><ele>245.7</ele><time>2026-07-23T20:07:25Z</time></trkpt>
<trkpt lat="35.200241" lon="-84.853872"><ele>244.8</ele><time>2026-07-23T20:07:28Z</time></trkpt>
<trkpt lat="35.200254" lon="-84.853836"><ele>244.1</ele><time>2026-07-23T20:07:31Z</time></trkpt>
<trkpt lat="35.200276" lon="-84.853804"><ele>243.8</ele><time>2026-07-23T20:07:34Z</time></trkpt>
<trkpt lat="35.200309" lon="-84.853788"><ele>244.4</ele><time>2026-07-23T20:07:37Z</time></trkpt>
<trkpt lat="35.200348" lon="-84.853783"><ele>245.1</ele><time>2026-07-23T20:07:40Z</time></trkpt>
<trkpt lat="35.200386" lon="-84.853766"><ele>244.1</ele><time>2026-07-23T20:07:43Z</time></trkpt>
<trkpt lat="35.200414" lon="-84.853763"><ele>243.8</ele><time>2026-07-23T20:07:45Z</time></trkpt>
<trkpt lat="35.200451" lon="-84.853751"><ele>244.1</ele><time>2026-07-23T20:07:48Z</time></trkpt>
<trkpt lat="35.200489" lon="-84.853737"><ele>243.8</ele><time>2026-07-23T20:07:51Z</time></trkpt>
<trkpt lat="35.200524" lon="-84.853724"><ele>242.9</ele><time>2026-07-23T20:07:54Z</time></trkpt>
<trkpt lat="35.20056" lon="-84.8537"><ele>242.3</ele><time>2026-07-23T20:07:57Z</time></trkpt>
<trkpt lat="35.200572" lon="-84.85367"><ele>242.3</ele><time>2026-07-23T20:07:59Z</time></trkpt>
<trkpt lat="35.200583" lon="-84.853638"><ele>242.3</ele><time>2026-07-23T20:08:01Z</time></trkpt>
<trkpt lat="35.200594" lon="-84.853593"><ele>241.4</ele><time>2026-07-23T20:08:04Z</time></trkpt>
<trkpt lat="35.200609" lon="-84.853547"><ele>241.4</ele><time>2026-07-23T20:08:07Z</time></trkpt>
<trkpt lat="35.200624" lon="-84.853505"><ele>241.4</ele><time>2026-07-23T20:08:10Z</time></trkpt>
<trkpt lat="35.200648" lon="-84.853466"><ele>241.1</ele><time>2026-07-23T20:08:13Z</time></trkpt>
<trkpt lat="35.20067" lon="-84.853427"><ele>241.1</ele><time>2026-07-23T20:08:16Z</time></trkpt>
<trkpt lat="35.200694" lon="-84.853387"><ele>241.4</ele><time>2026-07-23T20:08:19Z</time></trkpt>
<trkpt lat="35.20071" lon="-84.853358"><ele>242.0</ele><time>2026-07-23T20:08:21Z</time></trkpt>
<trkpt lat="35.200732" lon="-84.853319"><ele>242.3</ele><time>2026-07-23T20:08:24Z</time></trkpt>
<trkpt lat="35.200747" lon="-84.853275"><ele>242.3</ele><time>2026-07-23T20:08:27Z</time></trkpt>
<trkpt lat="35.200765" lon="-84.853231"><ele>242.0</ele><time>2026-07-23T20:08:30Z</time></trkpt>
<trkpt lat="35.200786" lon="-84.853191"><ele>242.6</ele><time>2026-07-23T20:08:33Z</time></trkpt>
<trkpt lat="35.200803" lon="-84.853158"><ele>243.5</ele><time>2026-07-23T20:08:35Z</time></trkpt>
<trkpt lat="35.200826" lon="-84.853116"><ele>243.8</ele><time>2026-07-23T20:08:38Z</time></trkpt>
<trkpt lat="35.200844" lon="-84.853077"><ele>243.5</ele><time>2026-07-23T20:08:41Z</time></trkpt>
<trkpt lat="35.200857" lon="-84.853034"><ele>243.2</ele><time>2026-07-23T20:08:44Z</time></trkpt>
<trkpt lat="35.200875" lon="-84.852993"><ele>242.9</ele><time>2026-07-23T20:08:47Z</time></trkpt>
<trkpt lat="35.200895" lon="-84.852952"><ele>242.9</ele><time>2026-07-23T20:08:50Z</time></trkpt>
<trkpt lat="35.200905" lon="-84.85292"><ele>242.6</ele><time>2026-07-23T20:08:52Z</time></trkpt>
<trkpt lat="35.200917" lon="-84.852888"><ele>242.0</ele><time>2026-07-23T20:08:54Z</time></trkpt>
<trkpt lat="35.20093" lon="-84.852858"><ele>241.7</ele><time>2026-07-23T20:08:56Z</time></trkpt>
<trkpt lat="35.200942" lon="-84.852814"><ele>241.7</ele><time>2026-07-23T20:08:59Z</time></trkpt>
<trkpt lat="35.20095" lon="-84.852781"><ele>242.0</ele><time>2026-07-23T20:09:01Z</time></trkpt>
<trkpt lat="35.200951" lon="-84.852746"><ele>242.3</ele><time>2026-07-23T20:09:03Z</time></trkpt>
<trkpt lat="35.200954" lon="-84.852697"><ele>240.5</ele><time>2026-07-23T20:09:06Z</time></trkpt>
<trkpt lat="35.200973" lon="-84.852658"><ele>239.6</ele><time>2026-07-23T20:09:09Z</time></trkpt>
<trkpt lat="35.201007" lon="-84.852632"><ele>239.6</ele><time>2026-07-23T20:09:12Z</time></trkpt>
<trkpt lat="35.201046" lon="-84.852615"><ele>239.6</ele><time>2026-07-23T20:09:15Z</time></trkpt>
<trkpt lat="35.201072" lon="-84.8526"><ele>239.0</ele><time>2026-07-23T20:09:17Z</time></trkpt>
<trkpt lat="35.201097" lon="-84.852584"><ele>238.4</ele><time>2026-07-23T20:09:19Z</time></trkpt>
<trkpt lat="35.20112" lon="-84.852563"><ele>237.7</ele><time>2026-07-23T20:09:21Z</time></trkpt>
<trkpt lat="35.201157" lon="-84.852551"><ele>238.4</ele><time>2026-07-23T20:09:24Z</time></trkpt>
<trkpt lat="35.201183" lon="-84.852562"><ele>238.0</ele><time>2026-07-23T20:09:26Z</time></trkpt>
<trkpt lat="35.20121" lon="-84.852578"><ele>237.1</ele><time>2026-07-23T20:09:28Z</time></trkpt>
<trkpt lat="35.201247" lon="-84.852593"><ele>237.1</ele><time>2026-07-23T20:09:31Z</time></trkpt>
<trkpt lat="35.201281" lon="-84.852606"><ele>237.4</ele><time>2026-07-23T20:09:34Z</time></trkpt>
<trkpt lat="35.201317" lon="-84.852629"><ele>237.7</ele><time>2026-07-23T20:09:37Z</time></trkpt>
<trkpt lat="35.201353" lon="-84.852649"><ele>238.0</ele><time>2026-07-23T20:09:40Z</time></trkpt>
<trkpt lat="35.201388" lon="-84.852667"><ele>238.7</ele><time>2026-07-23T20:09:43Z</time></trkpt>
<trkpt lat="35.201424" lon="-84.852679"><ele>239.3</ele><time>2026-07-23T20:09:46Z</time></trkpt>
<trkpt lat="35.201463" lon="-84.85268"><ele>239.6</ele><time>2026-07-23T20:09:49Z</time></trkpt>
<trkpt lat="35.201502" lon="-84.852667"><ele>239.0</ele><time>2026-07-23T20:09:52Z</time></trkpt>
<trkpt lat="35.201543" lon="-84.852661"><ele>240.2</ele><time>2026-07-23T20:09:55Z</time></trkpt>
<trkpt lat="35.201571" lon="-84.852651"><ele>239.9</ele><time>2026-07-23T20:09:57Z</time></trkpt>
<trkpt lat="35.201609" lon="-84.852637"><ele>240.2</ele><time>2026-07-23T20:10:00Z</time></trkpt>
<trkpt lat="35.201638" lon="-84.852627"><ele>239.9</ele><time>2026-07-23T20:10:02Z</time></trkpt>
<trkpt lat="35.201665" lon="-84.852612"><ele>239.9</ele><time>2026-07-23T20:10:04Z</time></trkpt>
<trkpt lat="35.201691" lon="-84.852599"><ele>240.2</ele><time>2026-07-23T20:10:06Z</time></trkpt>
<trkpt lat="35.20173" lon="-84.852591"><ele>239.6</ele><time>2026-07-23T20:10:09Z</time></trkpt>
<trkpt lat="35.201768" lon="-84.852594"><ele>239.9</ele><time>2026-07-23T20:10:12Z</time></trkpt>
<trkpt lat="35.201808" lon="-84.852599"><ele>240.2</ele><time>2026-07-23T20:10:15Z</time></trkpt>
<trkpt lat="35.201848" lon="-84.852602"><ele>240.2</ele><time>2026-07-23T20:10:18Z</time></trkpt>
<trkpt lat="35.201887" lon="-84.852602"><ele>240.5</ele><time>2026-07-23T20:10:21Z</time></trkpt>
<trkpt lat="35.201923" lon="-84.852607"><ele>240.5</ele><time>2026-07-23T20:10:24Z</time></trkpt>
<trkpt lat="35.20196" lon="-84.852608"><ele>240.2</ele><time>2026-07-23T20:10:27Z</time></trkpt>
<trkpt lat="35.201998" lon="-84.852602"><ele>239.3</ele><time>2026-07-23T20:10:30Z</time></trkpt>
<trkpt lat="35.202036" lon="-84.852606"><ele>239.0</ele><time>2026-07-23T20:10:33Z</time></trkpt>
<trkpt lat="35.202077" lon="-84.852605"><ele>238.4</ele><time>2026-07-23T20:10:36Z</time></trkpt>
<trkpt lat="35.202105" lon="-84.852608"><ele>238.0</ele><time>2026-07-23T20:10:38Z</time></trkpt>
<trkpt lat="35.202144" lon="-84.852617"><ele>237.7</ele><time>2026-07-23T20:10:41Z</time></trkpt>
<trkpt lat="35.202183" lon="-84.852624"><ele>237.4</ele><time>2026-07-23T20:10:44Z</time></trkpt>
<trkpt lat="35.202219" lon="-84.852634"><ele>236.5</ele><time>2026-07-23T20:10:47Z</time></trkpt>
<trkpt lat="35.202255" lon="-84.852645"><ele>236.8</ele><time>2026-07-23T20:10:50Z</time></trkpt>
<trkpt lat="35.202292" lon="-84.852653"><ele>236.5</ele><time>2026-07-23T20:10:53Z</time></trkpt>
<trkpt lat="35.202331" lon="-84.852664"><ele>235.6</ele><time>2026-07-23T20:10:56Z</time></trkpt>
<trkpt lat="35.202367" lon="-84.85268"><ele>235.6</ele><time>2026-07-23T20:10:59Z</time></trkpt>
<trkpt lat="35.202403" lon="-84.8527"><ele>236.2</ele><time>2026-07-23T20:11:02Z</time></trkpt>
<trkpt lat="35.202438" lon="-84.85272"><ele>235.9</ele><time>2026-07-23T20:11:05Z</time></trkpt>
<trkpt lat="35.202474" lon="-84.852744"><ele>236.2</ele><time>2026-07-23T20:11:08Z</time></trkpt>
<trkpt lat="35.2025" lon="-84.852758"><ele>236.5</ele><time>2026-07-23T20:11:10Z</time></trkpt>
<trkpt lat="35.202533" lon="-84.852784"><ele>236.5</ele><time>2026-07-23T20:11:13Z</time></trkpt>
<trkpt lat="35.202569" lon="-84.852805"><ele>236.2</ele><time>2026-07-23T20:11:16Z</time></trkpt>
<trkpt lat="35.202601" lon="-84.852831"><ele>236.2</ele><time>2026-07-23T20:11:19Z</time></trkpt>
<trkpt lat="35.202634" lon="-84.85286"><ele>236.5</ele><time>2026-07-23T20:11:22Z</time></trkpt>
<trkpt lat="35.202656" lon="-84.852881"><ele>237.1</ele><time>2026-07-23T20:11:24Z</time></trkpt>
<trkpt lat="35.202677" lon="-84.852905"><ele>237.7</ele><time>2026-07-23T20:11:26Z</time></trkpt>
<trkpt lat="35.2027" lon="-84.852924"><ele>238.4</ele><time>2026-07-23T20:11:28Z</time></trkpt>
<trkpt lat="35.202732" lon="-84.852953"><ele>238.7</ele><time>2026-07-23T20:11:31Z</time></trkpt>
<trkpt lat="35.202763" lon="-84.852983"><ele>239.3</ele><time>2026-07-23T20:11:34Z</time></trkpt>
<trkpt lat="35.202793" lon="-84.853013"><ele>239.6</ele><time>2026-07-23T20:11:37Z</time></trkpt>
<trkpt lat="35.202824" lon="-84.853043"><ele>239.3</ele><time>2026-07-23T20:11:40Z</time></trkpt>
<trkpt lat="35.202855" lon="-84.853072"><ele>239.3</ele><time>2026-07-23T20:11:43Z</time></trkpt>
<trkpt lat="35.202885" lon="-84.853101"><ele>238.7</ele><time>2026-07-23T20:11:46Z</time></trkpt>
<trkpt lat="35.202915" lon="-84.853131"><ele>238.4</ele><time>2026-07-23T20:11:49Z</time></trkpt>
<trkpt lat="35.202947" lon="-84.85316"><ele>237.7</ele><time>2026-07-23T20:11:52Z</time></trkpt>
<trkpt lat="35.202977" lon="-84.85319"><ele>237.4</ele><time>2026-07-23T20:11:55Z</time></trkpt>
<trkpt lat="35.20301" lon="-84.853217"><ele>237.4</ele><time>2026-07-23T20:11:58Z</time></trkpt>
<trkpt lat="35.203042" lon="-84.853241"><ele>236.8</ele><time>2026-07-23T20:12:01Z</time></trkpt>
<trkpt lat="35.203073" lon="-84.853264"><ele>235.6</ele><time>2026-07-23T20:12:04Z</time></trkpt>
<trkpt lat="35.203092" lon="-84.853288"><ele>236.2</ele><time>2026-07-23T20:12:06Z</time></trkpt>
<trkpt lat="35.203126" lon="-84.853316"><ele>236.8</ele><time>2026-07-23T20:12:09Z</time></trkpt>
<trkpt lat="35.203158" lon="-84.853344"><ele>236.2</ele><time>2026-07-23T20:12:12Z</time></trkpt>
<trkpt lat="35.203188" lon="-84.853375"><ele>235.6</ele><time>2026-07-23T20:12:15Z</time></trkpt>
<trkpt lat="35.203219" lon="-84.853404"><ele>235.6</ele><time>2026-07-23T20:12:18Z</time></trkpt>
<trkpt lat="35.203242" lon="-84.853423"><ele>236.5</ele><time>2026-07-23T20:12:20Z</time></trkpt>
<trkpt lat="35.203273" lon="-84.853448"><ele>236.5</ele><time>2026-07-23T20:12:23Z</time></trkpt>
<trkpt lat="35.203306" lon="-84.853474"><ele>236.8</ele><time>2026-07-23T20:12:26Z</time></trkpt>
<trkpt lat="35.20334" lon="-84.853499"><ele>236.8</ele><time>2026-07-23T20:12:29Z</time></trkpt>
<trkpt lat="35.203377" lon="-84.853523"><ele>236.8</ele><time>2026-07-23T20:12:32Z</time></trkpt>
<trkpt lat="35.2034" lon="-84.853543"><ele>237.4</ele><time>2026-07-23T20:12:34Z</time></trkpt>
<trkpt lat="35.203421" lon="-84.853564"><ele>238.4</ele><time>2026-07-23T20:12:36Z</time></trkpt>
<trkpt lat="35.203441" lon="-84.853588"><ele>239.3</ele><time>2026-07-23T20:12:38Z</time></trkpt>
<trkpt lat="35.203466" lon="-84.853614"><ele>237.7</ele><time>2026-07-23T20:12:41Z</time></trkpt>
<trkpt lat="35.203497" lon="-84.853639"><ele>238.0</ele><time>2026-07-23T20:12:44Z</time></trkpt>
<trkpt lat="35.20352" lon="-84.853661"><ele>237.4</ele><time>2026-07-23T20:12:46Z</time></trkpt>
<trkpt lat="35.203541" lon="-84.853683"><ele>237.1</ele><time>2026-07-23T20:12:48Z</time></trkpt>
<trkpt lat="35.203573" lon="-84.853714"><ele>236.8</ele><time>2026-07-23T20:12:51Z</time></trkpt>
<trkpt lat="35.203597" lon="-84.853733"><ele>236.2</ele><time>2026-07-23T20:12:53Z</time></trkpt>
<trkpt lat="35.203618" lon="-84.853758"><ele>236.5</ele><time>2026-07-23T20:12:55Z</time></trkpt>
<trkpt lat="35.20364" lon="-84.85378"><ele>236.5</ele><time>2026-07-23T20:12:57Z</time></trkpt>
<trkpt lat="35.203663" lon="-84.853801"><ele>236.8</ele><time>2026-07-23T20:12:59Z</time></trkpt>
<trkpt lat="35.203696" lon="-84.853828"><ele>237.4</ele><time>2026-07-23T20:13:02Z</time></trkpt>
<trkpt lat="35.203729" lon="-84.853857"><ele>236.8</ele><time>2026-07-23T20:13:05Z</time></trkpt>
<trkpt lat="35.203762" lon="-84.853885"><ele>236.8</ele><time>2026-07-23T20:13:08Z</time></trkpt>
<trkpt lat="35.203784" lon="-84.853907"><ele>237.4</ele><time>2026-07-23T20:13:10Z</time></trkpt>
<trkpt lat="35.203806" lon="-84.853928"><ele>237.7</ele><time>2026-07-23T20:13:12Z</time></trkpt>
<trkpt lat="35.203842" lon="-84.853951"><ele>237.7</ele><time>2026-07-23T20:13:15Z</time></trkpt>
<trkpt lat="35.203861" lon="-84.853976"><ele>239.0</ele><time>2026-07-23T20:13:17Z</time></trkpt>
<trkpt lat="35.203892" lon="-84.854003"><ele>239.3</ele><time>2026-07-23T20:13:20Z</time></trkpt>
<trkpt lat="35.203917" lon="-84.85402"><ele>242.3</ele><time>2026-07-23T20:13:22Z</time></trkpt>
<trkpt lat="35.20394" lon="-84.85404"><ele>244.4</ele><time>2026-07-23T20:13:24Z</time></trkpt>
<trkpt lat="35.203974" lon="-84.85406"><ele>243.5</ele><time>2026-07-23T20:13:27Z</time></trkpt>
<trkpt lat="35.204007" lon="-84.854069"><ele>244.1</ele><time>2026-07-23T20:13:30Z</time></trkpt>
<trkpt lat="35.204049" lon="-84.854061"><ele>242.6</ele><time>2026-07-23T20:13:33Z</time></trkpt>
<trkpt lat="35.204085" lon="-84.854063"><ele>244.1</ele><time>2026-07-23T20:13:36Z</time></trkpt>
<trkpt lat="35.204112" lon="-84.85407"><ele>243.8</ele><time>2026-07-23T20:13:38Z</time></trkpt>
<trkpt lat="35.20415" lon="-84.854068"><ele>244.1</ele><time>2026-07-23T20:13:41Z</time></trkpt>
<trkpt lat="35.204189" lon="-84.854065"><ele>243.8</ele><time>2026-07-23T20:13:44Z</time></trkpt>
<trkpt lat="35.204217" lon="-84.85407"><ele>242.6</ele><time>2026-07-23T20:13:46Z</time></trkpt>
<trkpt lat="35.204255" lon="-84.854076"><ele>240.8</ele><time>2026-07-23T20:13:49Z</time></trkpt>
<trkpt lat="35.204295" lon="-84.854082"><ele>239.0</ele><time>2026-07-23T20:13:52Z</time></trkpt>
<trkpt lat="35.204333" lon="-84.854096"><ele>238.0</ele><time>2026-07-23T20:13:55Z</time></trkpt>
<trkpt lat="35.204372" lon="-84.854109"><ele>239.3</ele><time>2026-07-23T20:13:58Z</time></trkpt>
<trkpt lat="35.204398" lon="-84.854123"><ele>239.6</ele><time>2026-07-23T20:14:00Z</time></trkpt>
<trkpt lat="35.204436" lon="-84.854138"><ele>239.0</ele><time>2026-07-23T20:14:03Z</time></trkpt>
<trkpt lat="35.204471" lon="-84.854156"><ele>238.7</ele><time>2026-07-23T20:14:06Z</time></trkpt>
<trkpt lat="35.204505" lon="-84.854177"><ele>239.0</ele><time>2026-07-23T20:14:09Z</time></trkpt>
<trkpt lat="35.204538" lon="-84.854189"><ele>238.0</ele><time>2026-07-23T20:14:12Z</time></trkpt>
<trkpt lat="35.204575" lon="-84.854204"><ele>238.4</ele><time>2026-07-23T20:14:15Z</time></trkpt>
<trkpt lat="35.204614" lon="-84.854215"><ele>238.0</ele><time>2026-07-23T20:14:18Z</time></trkpt>
<trkpt lat="35.20465" lon="-84.854226"><ele>237.1</ele><time>2026-07-23T20:14:21Z</time></trkpt>
<trkpt lat="35.204688" lon="-84.85423"><ele>237.1</ele><time>2026-07-23T20:14:24Z</time></trkpt>
<trkpt lat="35.204724" lon="-84.854231"><ele>235.9</ele><time>2026-07-23T20:14:27Z</time></trkpt>
<trkpt lat="35.204761" lon="-84.854234"><ele>235.9</ele><time>2026-07-23T20:14:30Z</time></trkpt>
<trkpt lat="35.204799" lon="-84.854234"><ele>236.2</ele><time>2026-07-23T20:14:33Z</time></trkpt>
<trkpt lat="35.204827" lon="-84.854241"><ele>235.9</ele><time>2026-07-23T20:14:35Z</time></trkpt>
<trkpt lat="35.204865" lon="-84.854242"><ele>233.8</ele><time>2026-07-23T20:14:38Z</time></trkpt>
<trkpt lat="35.204903" lon="-84.854248"><ele>233.8</ele><time>2026-07-23T20:14:41Z</time></trkpt>
<trkpt lat="35.204943" lon="-84.854247"><ele>234.4</ele><time>2026-07-23T20:14:44Z</time></trkpt>
<trkpt lat="35.204971" lon="-84.854248"><ele>235.0</ele><time>2026-07-23T20:14:46Z</time></trkpt>
<trkpt lat="35.205009" lon="-84.85426"><ele>234.1</ele><time>2026-07-23T20:14:49Z</time></trkpt>
<trkpt lat="35.205044" lon="-84.854277"><ele>234.1</ele><time>2026-07-23T20:14:52Z</time></trkpt>
<trkpt lat="35.205082" lon="-84.854283"><ele>236.8</ele><time>2026-07-23T20:14:55Z</time></trkpt>
<trkpt lat="35.20511" lon="-84.854283"><ele>237.1</ele><time>2026-07-23T20:14:57Z</time></trkpt>
<trkpt lat="35.205138" lon="-84.854281"><ele>235.6</ele><time>2026-07-23T20:14:59Z</time></trkpt>
<trkpt lat="35.205167" lon="-84.854282"><ele>235.3</ele><time>2026-07-23T20:15:01Z</time></trkpt>
<trkpt lat="35.205208" lon="-84.854282"><ele>234.4</ele><time>2026-07-23T20:15:04Z</time></trkpt>
<trkpt lat="35.205246" lon="-84.854281"><ele>234.4</ele><time>2026-07-23T20:15:07Z</time></trkpt>
<trkpt lat="35.205274" lon="-84.854282"><ele>234.1</ele><time>2026-07-23T20:15:09Z</time></trkpt>
<trkpt lat="35.205313" lon="-84.854279"><ele>234.1</ele><time>2026-07-23T20:15:12Z</time></trkpt>
<trkpt lat="35.205341" lon="-84.854276"><ele>234.4</ele><time>2026-07-23T20:15:14Z</time></trkpt>
<trkpt lat="35.20538" lon="-84.854273"><ele>234.4</ele><time>2026-07-23T20:15:17Z</time></trkpt>
<trkpt lat="35.205407" lon="-84.854276"><ele>234.1</ele><time>2026-07-23T20:15:19Z</time></trkpt>
<trkpt lat="35.205438" lon="-84.854276"><ele>235.3</ele><time>2026-07-23T20:15:22Z</time></trkpt>
<trkpt lat="35.205477" lon="-84.854268"><ele>234.7</ele><time>2026-07-23T20:15:25Z</time></trkpt>
<trkpt lat="35.205514" lon="-84.854261"><ele>234.4</ele><time>2026-07-23T20:15:28Z</time></trkpt>
<trkpt lat="35.205554" lon="-84.854245"><ele>232.9</ele><time>2026-07-23T20:15:31Z</time></trkpt>
<trkpt lat="35.205582" lon="-84.854234"><ele>233.2</ele><time>2026-07-23T20:15:33Z</time></trkpt>
<trkpt lat="35.205619" lon="-84.854213"><ele>233.5</ele><time>2026-07-23T20:15:36Z</time></trkpt>
<trkpt lat="35.205646" lon="-84.854204"><ele>234.1</ele><time>2026-07-23T20:15:38Z</time></trkpt>
<trkpt lat="35.205682" lon="-84.854194"><ele>234.7</ele><time>2026-07-23T20:15:41Z</time></trkpt>
<trkpt lat="35.205709" lon="-84.854186"><ele>235.0</ele><time>2026-07-23T20:15:43Z</time></trkpt>
<trkpt lat="35.205749" lon="-84.854188"><ele>237.1</ele><time>2026-07-23T20:15:46Z</time></trkpt>
<trkpt lat="35.205786" lon="-84.85419"><ele>237.4</ele><time>2026-07-23T20:15:49Z</time></trkpt>
<trkpt lat="35.205824" lon="-84.854191"><ele>236.5</ele><time>2026-07-23T20:15:52Z</time></trkpt>
<trkpt lat="35.205864" lon="-84.854197"><ele>235.3</ele><time>2026-07-23T20:15:55Z</time></trkpt>
<trkpt lat="35.205892" lon="-84.854195"><ele>235.0</ele><time>2026-07-23T20:15:57Z</time></trkpt>
<trkpt lat="35.205921" lon="-84.854195"><ele>234.4</ele><time>2026-07-23T20:15:59Z</time></trkpt>
<trkpt lat="35.205948" lon="-84.854195"><ele>235.0</ele><time>2026-07-23T20:16:01Z</time></trkpt>
<trkpt lat="35.205975" lon="-84.85421"><ele>235.0</ele><time>2026-07-23T20:16:03Z</time></trkpt>
<trkpt lat="35.206002" lon="-84.854218"><ele>235.6</ele><time>2026-07-23T20:16:05Z</time></trkpt>
<trkpt lat="35.206031" lon="-84.85422"><ele>235.3</ele><time>2026-07-23T20:16:07Z</time></trkpt>
<trkpt lat="35.206061" lon="-84.854224"><ele>236.5</ele><time>2026-07-23T20:16:09Z</time></trkpt>
<trkpt lat="35.206102" lon="-84.854227"><ele>236.8</ele><time>2026-07-23T20:16:12Z</time></trkpt>
<trkpt lat="35.206138" lon="-84.85423"><ele>236.8</ele><time>2026-07-23T20:16:15Z</time></trkpt>
<trkpt lat="35.206172" lon="-84.85425"><ele>236.8</ele><time>2026-07-23T20:16:18Z</time></trkpt>
<trkpt lat="35.206209" lon="-84.854265"><ele>237.4</ele><time>2026-07-23T20:16:21Z</time></trkpt>
<trkpt lat="35.206247" lon="-84.854281"><ele>238.4</ele><time>2026-07-23T20:16:24Z</time></trkpt>
<trkpt lat="35.206283" lon="-84.85429"><ele>238.0</ele><time>2026-07-23T20:16:27Z</time></trkpt>
<trkpt lat="35.206322" lon="-84.854296"><ele>237.4</ele><time>2026-07-23T20:16:30Z</time></trkpt>
<trkpt lat="35.206362" lon="-84.854298"><ele>235.6</ele><time>2026-07-23T20:16:33Z</time></trkpt>
<trkpt lat="35.2064" lon="-84.854293"><ele>233.8</ele><time>2026-07-23T20:16:36Z</time></trkpt>
<trkpt lat="35.206438" lon="-84.854295"><ele>234.4</ele><time>2026-07-23T20:16:39Z</time></trkpt>
<trkpt lat="35.206478" lon="-84.854296"><ele>234.1</ele><time>2026-07-23T20:16:42Z</time></trkpt>
<trkpt lat="35.206517" lon="-84.854301"><ele>235.6</ele><time>2026-07-23T20:16:45Z</time></trkpt>
<trkpt lat="35.206552" lon="-84.854297"><ele>237.1</ele><time>2026-07-23T20:16:48Z</time></trkpt>
<trkpt lat="35.206592" lon="-84.8543"><ele>237.7</ele><time>2026-07-23T20:16:51Z</time></trkpt>
<trkpt lat="35.206635" lon="-84.854295"><ele>237.4</ele><time>2026-07-23T20:16:54Z</time></trkpt>
<trkpt lat="35.206666" lon="-84.854291"><ele>237.4</ele><time>2026-07-23T20:16:56Z</time></trkpt>
<trkpt lat="35.206694" lon="-84.854288"><ele>237.4</ele><time>2026-07-23T20:16:58Z</time></trkpt>
<trkpt lat="35.206723" lon="-84.854273"><ele>236.8</ele><time>2026-07-23T20:17:00Z</time></trkpt>
<trkpt lat="35.20675" lon="-84.854254"><ele>235.9</ele><time>2026-07-23T20:17:02Z</time></trkpt>
<trkpt lat="35.206774" lon="-84.854232"><ele>236.5</ele><time>2026-07-23T20:17:04Z</time></trkpt>
<trkpt lat="35.206797" lon="-84.854211"><ele>237.1</ele><time>2026-07-23T20:17:06Z</time></trkpt>
<trkpt lat="35.206821" lon="-84.854194"><ele>239.0</ele><time>2026-07-23T20:17:08Z</time></trkpt>
<trkpt lat="35.206844" lon="-84.854176"><ele>240.2</ele><time>2026-07-23T20:17:10Z</time></trkpt>
<trkpt lat="35.206868" lon="-84.854156"><ele>239.6</ele><time>2026-07-23T20:17:12Z</time></trkpt>
<trkpt lat="35.206895" lon="-84.854147"><ele>241.7</ele><time>2026-07-23T20:17:14Z</time></trkpt>
<trkpt lat="35.206919" lon="-84.854127"><ele>241.1</ele><time>2026-07-23T20:17:16Z</time></trkpt>
<trkpt lat="35.206954" lon="-84.854107"><ele>242.0</ele><time>2026-07-23T20:17:19Z</time></trkpt>
<trkpt lat="35.206983" lon="-84.85408"><ele>241.1</ele><time>2026-07-23T20:17:22Z</time></trkpt>
<trkpt lat="35.206996" lon="-84.854049"><ele>238.4</ele><time>2026-07-23T20:17:26Z</time></trkpt>
<trkpt lat="35.206981" lon="-84.854004"><ele>236.8</ele><time>2026-07-23T20:17:29Z</time></trkpt>
<trkpt lat="35.206965" lon="-84.85397"><ele>236.8</ele><time>2026-07-23T20:17:32Z</time></trkpt>
<trkpt lat="35.206955" lon="-84.853966"><ele>235.9</ele><time>2026-07-23T20:17:33Z</time></trkpt>
<trkpt lat="35.206954" lon="-84.85399"><ele>233.2</ele><time>2026-07-23T20:17:34Z</time></trkpt>
<trkpt lat="35.20695" lon="-84.853982"><ele>234.4</ele><time>2026-07-23T20:18:25Z</time></trkpt>
<trkpt lat="35.206949" lon="-84.853978"><ele>234.7</ele><time>2026-07-23T20:18:26Z</time></trkpt>
<trkpt lat="35.206948" lon="-84.853976"><ele>234.7</ele><time>2026-07-23T20:18:27Z</time></trkpt>
<trkpt lat="35.206947" lon="-84.853977"><ele>235.0</ele><time>2026-07-23T20:18:28Z</time></trkpt>
<trkpt lat="35.206947" lon="-84.853977"><ele>235.0</ele><time>2026-07-23T20:18:29Z</time></trkpt>
<trkpt lat="35.206946" lon="-84.853979"><ele>235.3</ele><time>2026-07-23T20:18:31Z</time></trkpt>
<trkpt lat="35.206943" lon="-84.853987"><ele>235.6</ele><time>2026-07-23T20:18:32Z</time></trkpt>
<trkpt lat="35.206961" lon="-84.85402"><ele>236.8</ele><time>2026-07-23T20:18:38Z</time></trkpt>
<trkpt lat="35.206995" lon="-84.854032"><ele>235.3</ele><time>2026-07-23T20:18:40Z</time></trkpt>
<trkpt lat="35.207028" lon="-84.854034"><ele>235.0</ele><time>2026-07-23T20:18:42Z</time></trkpt>
<trkpt lat="35.207066" lon="-84.854036"><ele>235.9</ele><time>2026-07-23T20:18:44Z</time></trkpt>
<trkpt lat="35.207097" lon="-84.854018"><ele>235.3</ele><time>2026-07-23T20:18:46Z</time></trkpt>
<trkpt lat="35.207124" lon="-84.853995"><ele>237.7</ele><time>2026-07-23T20:18:48Z</time></trkpt>
<trkpt lat="35.207153" lon="-84.853981"><ele>238.7</ele><time>2026-07-23T20:18:50Z</time></trkpt>
<trkpt lat="35.207193" lon="-84.853969"><ele>239.9</ele><time>2026-07-23T20:18:53Z</time></trkpt>
<trkpt lat="35.207219" lon="-84.853948"><ele>239.3</ele><time>2026-07-23T20:18:55Z</time></trkpt>
<trkpt lat="35.207243" lon="-84.85393"><ele>238.7</ele><time>2026-07-23T20:18:57Z</time></trkpt>
<trkpt lat="35.207266" lon="-84.853909"><ele>239.3</ele><time>2026-07-23T20:18:59Z</time></trkpt>
<trkpt lat="35.207293" lon="-84.853885"><ele>237.7</ele><time>2026-07-23T20:19:02Z</time></trkpt>
<trkpt lat="35.207327" lon="-84.853876"><ele>237.4</ele><time>2026-07-23T20:19:05Z</time></trkpt>
<trkpt lat="35.207363" lon="-84.853867"><ele>237.4</ele><time>2026-07-23T20:19:08Z</time></trkpt>
<trkpt lat="35.207398" lon="-84.853846"><ele>239.6</ele><time>2026-07-23T20:19:11Z</time></trkpt>
<trkpt lat="35.207433" lon="-84.853817"><ele>238.4</ele><time>2026-07-23T20:19:14Z</time></trkpt>
<trkpt lat="35.20746" lon="-84.8538"><ele>237.7</ele><time>2026-07-23T20:19:16Z</time></trkpt>
<trkpt lat="35.20749" lon="-84.85379"><ele>236.5</ele><time>2026-07-23T20:19:18Z</time></trkpt>
<trkpt lat="35.207517" lon="-84.853771"><ele>236.5</ele><time>2026-07-23T20:19:20Z</time></trkpt>
<trkpt lat="35.207542" lon="-84.853756"><ele>235.9</ele><time>2026-07-23T20:19:22Z</time></trkpt>
<trkpt lat="35.207568" lon="-84.853741"><ele>235.0</ele><time>2026-07-23T20:19:24Z</time></trkpt>
<trkpt lat="35.207597" lon="-84.853728"><ele>235.3</ele><time>2026-07-23T20:19:26Z</time></trkpt>
<trkpt lat="35.207628" lon="-84.853711"><ele>235.0</ele><time>2026-07-23T20:19:28Z</time></trkpt>
<trkpt lat="35.207657" lon="-84.853699"><ele>235.0</ele><time>2026-07-23T20:19:30Z</time></trkpt>
<trkpt lat="35.207683" lon="-84.853686"><ele>235.3</ele><time>2026-07-23T20:19:32Z</time></trkpt>
<trkpt lat="35.20771" lon="-84.853674"><ele>234.1</ele><time>2026-07-23T20:19:34Z</time></trkpt>
<trkpt lat="35.207739" lon="-84.85367"><ele>233.8</ele><time>2026-07-23T20:19:36Z</time></trkpt>
<trkpt lat="35.207766" lon="-84.853665"><ele>233.5</ele><time>2026-07-23T20:19:38Z</time></trkpt>
<trkpt lat="35.207807" lon="-84.85366"><ele>232.9</ele><time>2026-07-23T20:19:41Z</time></trkpt>
<trkpt lat="35.207835" lon="-84.853664"><ele>235.0</ele><time>2026-07-23T20:19:43Z</time></trkpt>
<trkpt lat="35.207865" lon="-84.853662"><ele>235.0</ele><time>2026-07-23T20:19:45Z</time></trkpt>
<trkpt lat="35.207894" lon="-84.853658"><ele>235.6</ele><time>2026-07-23T20:19:47Z</time></trkpt>
<trkpt lat="35.207922" lon="-84.853657"><ele>234.4</ele><time>2026-07-23T20:19:49Z</time></trkpt>
<trkpt lat="35.207952" lon="-84.853663"><ele>234.7</ele><time>2026-07-23T20:19:51Z</time></trkpt>
<trkpt lat="35.20798" lon="-84.853668"><ele>234.4</ele><time>2026-07-23T20:19:53Z</time></trkpt>
<trkpt lat="35.208019" lon="-84.853679"><ele>234.4</ele><time>2026-07-23T20:19:56Z</time></trkpt>
<trkpt lat="35.208058" lon="-84.853672"><ele>234.4</ele><time>2026-07-23T20:19:59Z</time></trkpt>
<trkpt lat="35.208097" lon="-84.853689"><ele>234.7</ele><time>2026-07-23T20:20:02Z</time></trkpt>
<trkpt lat="35.208124" lon="-84.8537"><ele>235.6</ele><time>2026-07-23T20:20:04Z</time></trkpt>
<trkpt lat="35.208162" lon="-84.853703"><ele>236.5</ele><time>2026-07-23T20:20:07Z</time></trkpt>
<trkpt lat="35.208201" lon="-84.853707"><ele>238.0</ele><time>2026-07-23T20:20:10Z</time></trkpt>
<trkpt lat="35.208239" lon="-84.853705"><ele>237.4</ele><time>2026-07-23T20:20:13Z</time></trkpt>
<trkpt lat="35.208278" lon="-84.853701"><ele>236.2</ele><time>2026-07-23T20:20:16Z</time></trkpt>
<trkpt lat="35.208314" lon="-84.853693"><ele>237.4</ele><time>2026-07-23T20:20:19Z</time></trkpt>
<trkpt lat="35.208352" lon="-84.853681"><ele>238.4</ele><time>2026-07-23T20:20:22Z</time></trkpt>
<trkpt lat="35.20839" lon="-84.853671"><ele>238.4</ele><time>2026-07-23T20:20:25Z</time></trkpt>
<trkpt lat="35.208429" lon="-84.853666"><ele>238.7</ele><time>2026-07-23T20:20:28Z</time></trkpt>
<trkpt lat="35.208465" lon="-84.853652"><ele>238.4</ele><time>2026-07-23T20:20:31Z</time></trkpt>
<trkpt lat="35.208501" lon="-84.85363"><ele>238.7</ele><time>2026-07-23T20:20:34Z</time></trkpt>
<trkpt lat="35.208536" lon="-84.85361"><ele>238.7</ele><time>2026-07-23T20:20:37Z</time></trkpt>
<trkpt lat="35.208563" lon="-84.853601"><ele>237.1</ele><time>2026-07-23T20:20:39Z</time></trkpt>
<trkpt lat="35.208596" lon="-84.853585"><ele>238.7</ele><time>2026-07-23T20:20:42Z</time></trkpt>
<trkpt lat="35.208633" lon="-84.853582"><ele>237.7</ele><time>2026-07-23T20:20:45Z</time></trkpt>
<trkpt lat="35.20867" lon="-84.853566"><ele>236.8</ele><time>2026-07-23T20:20:48Z</time></trkpt>
<trkpt lat="35.208707" lon="-84.853562"><ele>236.5</ele><time>2026-07-23T20:20:51Z</time></trkpt>
<trkpt lat="35.208735" lon="-84.853553"><ele>235.6</ele><time>2026-07-23T20:20:53Z</time></trkpt>
<trkpt lat="35.208763" lon="-84.853539"><ele>235.0</ele><time>2026-07-23T20:20:55Z</time></trkpt>
<trkpt lat="35.208803" lon="-84.853531"><ele>234.7</ele><time>2026-07-23T20:20:58Z</time></trkpt>
<trkpt lat="35.20884" lon="-84.853526"><ele>236.2</ele><time>2026-07-23T20:21:01Z</time></trkpt>
<trkpt lat="35.208874" lon="-84.853522"><ele>236.8</ele><time>2026-07-23T20:21:04Z</time></trkpt>
<trkpt lat="35.208912" lon="-84.853515"><ele>236.2</ele><time>2026-07-23T20:21:07Z</time></trkpt>
<trkpt lat="35.208948" lon="-84.8535"><ele>237.7</ele><time>2026-07-23T20:21:10Z</time></trkpt>
<trkpt lat="35.208984" lon="-84.853482"><ele>236.8</ele><time>2026-07-23T20:21:13Z</time></trkpt>
<trkpt lat="35.209019" lon="-84.853465"><ele>238.7</ele><time>2026-07-23T20:21:16Z</time></trkpt>
<trkpt lat="35.209057" lon="-84.853445"><ele>239.3</ele><time>2026-07-23T20:21:19Z</time></trkpt>
<trkpt lat="35.209085" lon="-84.85343"><ele>239.6</ele><time>2026-07-23T20:21:21Z</time></trkpt>
<trkpt lat="35.209118" lon="-84.853407"><ele>239.3</ele><time>2026-07-23T20:21:24Z</time></trkpt>
<trkpt lat="35.209148" lon="-84.853378"><ele>239.0</ele><time>2026-07-23T20:21:27Z</time></trkpt>
<trkpt lat="35.209172" lon="-84.85336"><ele>239.0</ele><time>2026-07-23T20:21:29Z</time></trkpt>
<trkpt lat="35.209189" lon="-84.853332"><ele>238.7</ele><time>2026-07-23T20:21:31Z</time></trkpt>
<trkpt lat="35.209211" lon="-84.85331"><ele>239.0</ele><time>2026-07-23T20:21:33Z</time></trkpt>
<trkpt lat="35.209235" lon="-84.853274"><ele>239.6</ele><time>2026-07-23T20:21:36Z</time></trkpt>
<trkpt lat="35.209266" lon="-84.853238"><ele>239.9</ele><time>2026-07-23T20:21:39Z</time></trkpt>
<trkpt lat="35.209287" lon="-84.853216"><ele>240.5</ele><time>2026-07-23T20:21:41Z</time></trkpt>
<trkpt lat="35.209306" lon="-84.85319"><ele>240.5</ele><time>2026-07-23T20:21:43Z</time></trkpt>
<trkpt lat="35.209322" lon="-84.853163"><ele>240.2</ele><time>2026-07-23T20:21:45Z</time></trkpt>
<trkpt lat="35.209348" lon="-84.85313"><ele>239.6</ele><time>2026-07-23T20:21:48Z</time></trkpt>
<trkpt lat="35.209377" lon="-84.853102"><ele>238.4</ele><time>2026-07-23T20:21:51Z</time></trkpt>
<trkpt lat="35.2094" lon="-84.853081"><ele>237.4</ele><time>2026-07-23T20:21:53Z</time></trkpt>
<trkpt lat="35.209432" lon="-84.85305"><ele>237.1</ele><time>2026-07-23T20:21:56Z</time></trkpt>
<trkpt lat="35.209464" lon="-84.853021"><ele>237.1</ele><time>2026-07-23T20:21:59Z</time></trkpt>
<trkpt lat="35.209498" lon="-84.852997"><ele>236.8</ele><time>2026-07-23T20:22:02Z</time></trkpt>
<trkpt lat="35.209531" lon="-84.852973"><ele>237.4</ele><time>2026-07-23T20:22:05Z</time></trkpt>
<trkpt lat="35.209563" lon="-84.852948"><ele>238.0</ele><time>2026-07-23T20:22:08Z</time></trkpt>
<trkpt lat="35.209598" lon="-84.852924"><ele>238.7</ele><time>2026-07-23T20:22:11Z</time></trkpt>
<trkpt lat="35.20962" lon="-84.852901"><ele>236.8</ele><time>2026-07-23T20:22:13Z</time></trkpt>
<trkpt lat="35.209647" lon="-84.852887"><ele>236.8</ele><time>2026-07-23T20:22:15Z</time></trkpt>
<trkpt lat="35.209683" lon="-84.852867"><ele>237.7</ele><time>2026-07-23T20:22:18Z</time></trkpt>
<trkpt lat="35.209714" lon="-84.852838"><ele>238.4</ele><time>2026-07-23T20:22:21Z</time></trkpt>
<trkpt lat="35.209748" lon="-84.852809"><ele>237.7</ele><time>2026-07-23T20:22:24Z</time></trkpt>
<trkpt lat="35.20978" lon="-84.852785"><ele>237.7</ele><time>2026-07-23T20:22:27Z</time></trkpt>
<trkpt lat="35.20981" lon="-84.852753"><ele>237.4</ele><time>2026-07-23T20:22:30Z</time></trkpt>
<trkpt lat="35.209847" lon="-84.852729"><ele>237.1</ele><time>2026-07-23T20:22:33Z</time></trkpt>
<trkpt lat="35.209879" lon="-84.852705"><ele>237.1</ele><time>2026-07-23T20:22:36Z</time></trkpt>
<trkpt lat="35.209915" lon="-84.852679"><ele>238.0</ele><time>2026-07-23T20:22:39Z</time></trkpt>
<trkpt lat="35.209948" lon="-84.852652"><ele>239.3</ele><time>2026-07-23T20:22:42Z</time></trkpt>
<trkpt lat="35.209977" lon="-84.85262"><ele>239.6</ele><time>2026-07-23T20:22:45Z</time></trkpt>
<trkpt lat="35.21001" lon="-84.852593"><ele>241.1</ele><time>2026-07-23T20:22:48Z</time></trkpt>
<trkpt lat="35.210032" lon="-84.852571"><ele>239.6</ele><time>2026-07-23T20:22:50Z</time></trkpt>
<trkpt lat="35.210054" lon="-84.852546"><ele>238.0</ele><time>2026-07-23T20:22:52Z</time></trkpt>
<trkpt lat="35.210086" lon="-84.852517"><ele>237.1</ele><time>2026-07-23T20:22:55Z</time></trkpt>
<trkpt lat="35.210116" lon="-84.852486"><ele>237.4</ele><time>2026-07-23T20:22:58Z</time></trkpt>
<trkpt lat="35.210147" lon="-84.852458"><ele>237.4</ele><time>2026-07-23T20:23:01Z</time></trkpt>
<trkpt lat="35.210183" lon="-84.852435"><ele>237.4</ele><time>2026-07-23T20:23:04Z</time></trkpt>
<trkpt lat="35.210213" lon="-84.852409"><ele>238.7</ele><time>2026-07-23T20:23:07Z</time></trkpt>
<trkpt lat="35.210239" lon="-84.852378"><ele>239.0</ele><time>2026-07-23T20:23:10Z</time></trkpt>
<trkpt lat="35.210269" lon="-84.852356"><ele>239.3</ele><time>2026-07-23T20:23:13Z</time></trkpt>
<trkpt lat="35.210302" lon="-84.852328"><ele>240.2</ele><time>2026-07-23T20:23:16Z</time></trkpt>
<trkpt lat="35.210322" lon="-84.852303"><ele>239.0</ele><time>2026-07-23T20:23:18Z</time></trkpt>
<trkpt lat="35.210355" lon="-84.852281"><ele>239.3</ele><time>2026-07-23T20:23:21Z</time></trkpt>
<trkpt lat="35.210388" lon="-84.852256"><ele>239.3</ele><time>2026-07-23T20:23:24Z</time></trkpt>
<trkpt lat="35.210413" lon="-84.852239"><ele>238.7</ele><time>2026-07-23T20:23:26Z</time></trkpt>
<trkpt lat="35.210441" lon="-84.852209"><ele>239.3</ele><time>2026-07-23T20:23:29Z</time></trkpt>
<trkpt lat="35.210471" lon="-84.852186"><ele>239.3</ele><time>2026-07-23T20:23:32Z</time></trkpt>
<trkpt lat="35.210504" lon="-84.85217"><ele>239.3</ele><time>2026-07-23T20:23:35Z</time></trkpt>
<trkpt lat="35.210539" lon="-84.852153"><ele>240.2</ele><time>2026-07-23T20:23:38Z</time></trkpt>
<trkpt lat="35.210576" lon="-84.852139"><ele>239.3</ele><time>2026-07-23T20:23:41Z</time></trkpt>
<trkpt lat="35.210612" lon="-84.852121"><ele>239.3</ele><time>2026-07-23T20:23:44Z</time></trkpt>
<trkpt lat="35.21064" lon="-84.852117"><ele>239.3</ele><time>2026-07-23T20:23:46Z</time></trkpt>
<trkpt lat="35.210676" lon="-84.852095"><ele>238.4</ele><time>2026-07-23T20:23:49Z</time></trkpt>
<trkpt lat="35.210711" lon="-84.852081"><ele>238.7</ele><time>2026-07-23T20:23:52Z</time></trkpt>
<trkpt lat="35.210743" lon="-84.852055"><ele>237.7</ele><time>2026-07-23T20:23:55Z</time></trkpt>
<trkpt lat="35.210777" lon="-84.852035"><ele>236.5</ele><time>2026-07-23T20:23:58Z</time></trkpt>
<trkpt lat="35.210814" lon="-84.852023"><ele>237.4</ele><time>2026-07-23T20:24:01Z</time></trkpt>
<trkpt lat="35.210852" lon="-84.852004"><ele>236.5</ele><time>2026-07-23T20:24:04Z</time></trkpt>
<trkpt lat="35.210892" lon="-84.851991"><ele>234.7</ele><time>2026-07-23T20:24:07Z</time></trkpt>
<trkpt lat="35.210918" lon="-84.851974"><ele>235.6</ele><time>2026-07-23T20:24:09Z</time></trkpt>
<trkpt lat="35.210945" lon="-84.851955"><ele>235.6</ele><time>2026-07-23T20:24:11Z</time></trkpt>
<trkpt lat="35.210983" lon="-84.851941"><ele>236.2</ele><time>2026-07-23T20:24:14Z</time></trkpt>
<trkpt lat="35.211018" lon="-84.851921"><ele>235.6</ele><time>2026-07-23T20:24:17Z</time></trkpt>
<trkpt lat="35.211044" lon="-84.851909"><ele>236.2</ele><time>2026-07-23T20:24:19Z</time></trkpt>
<trkpt lat="35.211072" lon="-84.851896"><ele>235.3</ele><time>2026-07-23T20:24:21Z</time></trkpt>
<trkpt lat="35.21111" lon="-84.851882"><ele>235.3</ele><time>2026-07-23T20:24:24Z</time></trkpt>
<trkpt lat="35.211148" lon="-84.851872"><ele>235.3</ele><time>2026-07-23T20:24:27Z</time></trkpt>
<trkpt lat="35.211185" lon="-84.851863"><ele>237.7</ele><time>2026-07-23T20:24:30Z</time></trkpt>
<trkpt lat="35.211212" lon="-84.851854"><ele>238.0</ele><time>2026-07-23T20:24:32Z</time></trkpt>
<trkpt lat="35.211241" lon="-84.851849"><ele>237.7</ele><time>2026-07-23T20:24:34Z</time></trkpt>
<trkpt lat="35.211279" lon="-84.851847"><ele>236.8</ele><time>2026-07-23T20:24:37Z</time></trkpt>
<trkpt lat="35.211318" lon="-84.851843"><ele>238.0</ele><time>2026-07-23T20:24:40Z</time></trkpt>
<trkpt lat="35.211345" lon="-84.851839"><ele>238.0</ele><time>2026-07-23T20:24:42Z</time></trkpt>
<trkpt lat="35.211386" lon="-84.851835"><ele>237.7</ele><time>2026-07-23T20:24:45Z</time></trkpt>
<trkpt lat="35.211425" lon="-84.85183"><ele>238.0</ele><time>2026-07-23T20:24:48Z</time></trkpt>
<trkpt lat="35.211465" lon="-84.851827"><ele>239.6</ele><time>2026-07-23T20:24:51Z</time></trkpt>
<trkpt lat="35.211504" lon="-84.851835"><ele>239.9</ele><time>2026-07-23T20:24:54Z</time></trkpt>
<trkpt lat="35.211532" lon="-84.851831"><ele>239.3</ele><time>2026-07-23T20:24:56Z</time></trkpt>
<trkpt lat="35.21156" lon="-84.851817"><ele>238.4</ele><time>2026-07-23T20:24:58Z</time></trkpt>
<trkpt lat="35.211599" lon="-84.851811"><ele>238.4</ele><time>2026-07-23T20:25:01Z</time></trkpt>
<trkpt lat="35.211634" lon="-84.851808"><ele>237.7</ele><time>2026-07-23T20:25:04Z</time></trkpt>
<trkpt lat="35.211662" lon="-84.851803"><ele>238.0</ele><time>2026-07-23T20:25:06Z</time></trkpt>
<trkpt lat="35.211698" lon="-84.85179"><ele>238.7</ele><time>2026-07-23T20:25:09Z</time></trkpt>
<trkpt lat="35.211731" lon="-84.851783"><ele>238.0</ele><time>2026-07-23T20:25:12Z</time></trkpt>
<trkpt lat="35.211709" lon="-84.851814"><ele>236.8</ele><time>2026-07-23T20:25:16Z</time></trkpt>
<trkpt lat="35.211682" lon="-84.85182"><ele>236.8</ele><time>2026-07-23T20:25:18Z</time></trkpt>
<trkpt lat="35.211676" lon="-84.851856"><ele>236.8</ele><time>2026-07-23T20:25:20Z</time></trkpt>
<trkpt lat="35.211706" lon="-84.85187"><ele>237.7</ele><time>2026-07-23T20:25:22Z</time></trkpt>
<trkpt lat="35.211742" lon="-84.851876"><ele>237.4</ele><time>2026-07-23T20:25:25Z</time></trkpt>
<trkpt lat="35.211777" lon="-84.851875"><ele>237.4</ele><time>2026-07-23T20:25:28Z</time></trkpt>
<trkpt lat="35.211802" lon="-84.851906"><ele>237.4</ele><time>2026-07-23T20:25:31Z</time></trkpt>
<trkpt lat="35.211825" lon="-84.851936"><ele>237.4</ele><time>2026-07-23T20:25:34Z</time></trkpt>
<trkpt lat="35.211847" lon="-84.851972"><ele>237.7</ele><time>2026-07-23T20:25:37Z</time></trkpt>
<trkpt lat="35.21187" lon="-84.852007"><ele>237.4</ele><time>2026-07-23T20:25:40Z</time></trkpt>
<trkpt lat="35.21188" lon="-84.852048"><ele>237.4</ele><time>2026-07-23T20:25:43Z</time></trkpt>
<trkpt lat="35.211881" lon="-84.85209"><ele>237.7</ele><time>2026-07-23T20:25:46Z</time></trkpt>
<trkpt lat="35.21187" lon="-84.852135"><ele>237.7</ele><time>2026-07-23T20:25:49Z</time></trkpt>
<trkpt lat="35.211846" lon="-84.852169"><ele>237.7</ele><time>2026-07-23T20:25:52Z</time></trkpt>
<trkpt lat="35.211851" lon="-84.852213"><ele>239.3</ele><time>2026-07-23T20:25:55Z</time></trkpt>
<trkpt lat="35.211881" lon="-84.852188"><ele>239.3</ele><time>2026-07-23T20:25:57Z</time></trkpt>
<trkpt lat="35.211884" lon="-84.852149"><ele>238.4</ele><time>2026-07-23T20:25:59Z</time></trkpt>
<trkpt lat="35.211887" lon="-84.852115"><ele>236.8</ele><time>2026-07-23T20:26:01Z</time></trkpt>
<trkpt lat="35.211857" lon="-84.852092"><ele>239.3</ele><time>2026-07-23T20:26:03Z</time></trkpt>
<trkpt lat="35.211854" lon="-84.85209"><ele>239.0</ele><time>2026-07-23T20:26:04Z</time></trkpt>
<trkpt lat="35.211855" lon="-84.852078"><ele>240.2</ele><time>2026-07-23T20:26:06Z</time></trkpt>
<trkpt lat="35.211861" lon="-84.852068"><ele>239.3</ele><time>2026-07-23T20:26:07Z</time></trkpt>
<trkpt lat="35.211864" lon="-84.852035"><ele>239.0</ele><time>2026-07-23T20:26:09Z</time></trkpt>
<trkpt lat="35.211857" lon="-84.851994"><ele>236.2</ele><time>2026-07-23T20:26:12Z</time></trkpt>
<trkpt lat="35.211841" lon="-84.851959"><ele>235.6</ele><time>2026-07-23T20:26:15Z</time></trkpt>
<trkpt lat="35.211817" lon="-84.851924"><ele>235.6</ele><time>2026-07-23T20:26:18Z</time></trkpt>
<trkpt lat="35.211795" lon="-84.851892"><ele>235.6</ele><time>2026-07-23T20:26:21Z</time></trkpt>
<trkpt lat="35.211771" lon="-84.85186"><ele>235.3</ele><time>2026-07-23T20:26:24Z</time></trkpt>
<trkpt lat="35.211736" lon="-84.851848"><ele>235.9</ele><time>2026-07-23T20:26:27Z</time></trkpt>
<trkpt lat="35.211705" lon="-84.851842"><ele>236.2</ele><time>2026-07-23T20:26:30Z</time></trkpt>
<trkpt lat="35.211687" lon="-84.851828"><ele>235.6</ele><time>2026-07-23T20:26:32Z</time></trkpt>
<trkpt lat="35.211685" lon="-84.851826"><ele>235.3</ele><time>2026-07-23T20:26:33Z</time></trkpt>
<trkpt lat="35.211687" lon="-84.851821"><ele>235.3</ele><time>2026-07-23T20:26:37Z</time></trkpt>
<trkpt lat="35.211683" lon="-84.851822"><ele>234.7</ele><time>2026-07-23T20:26:38Z</time></trkpt>
<trkpt lat="35.211654" lon="-84.851813"><ele>234.1</ele><time>2026-07-23T20:26:43Z</time></trkpt>
<trkpt lat="35.211635" lon="-84.851787"><ele>235.6</ele><time>2026-07-23T20:26:45Z</time></trkpt>
<trkpt lat="35.211595" lon="-84.85179"><ele>236.2</ele><time>2026-07-23T20:26:48Z</time></trkpt>
<trkpt lat="35.21156" lon="-84.851788"><ele>236.8</ele><time>2026-07-23T20:26:51Z</time></trkpt>
<trkpt lat="35.211533" lon="-84.851796"><ele>237.4</ele><time>2026-07-23T20:26:54Z</time></trkpt>
<trkpt lat="35.211503" lon="-84.851803"><ele>235.9</ele><time>2026-07-23T20:26:57Z</time></trkpt>
<trkpt lat="35.211473" lon="-84.851775"><ele>236.8</ele><time>2026-07-23T20:26:59Z</time></trkpt>
<trkpt lat="35.211432" lon="-84.851784"><ele>237.4</ele><time>2026-07-23T20:27:02Z</time></trkpt>
<trkpt lat="35.211405" lon="-84.851799"><ele>236.5</ele><time>2026-07-23T20:27:04Z</time></trkpt>
<trkpt lat="35.21137" lon="-84.851816"><ele>238.0</ele><time>2026-07-23T20:27:07Z</time></trkpt>
<trkpt lat="35.211331" lon="-84.851829"><ele>239.0</ele><time>2026-07-23T20:27:10Z</time></trkpt>
<trkpt lat="35.211291" lon="-84.851837"><ele>238.7</ele><time>2026-07-23T20:27:13Z</time></trkpt>
<trkpt lat="35.211261" lon="-84.851844"><ele>239.6</ele><time>2026-07-23T20:27:15Z</time></trkpt>
<trkpt lat="35.211222" lon="-84.851855"><ele>240.2</ele><time>2026-07-23T20:27:18Z</time></trkpt>
<trkpt lat="35.211192" lon="-84.851861"><ele>240.8</ele><time>2026-07-23T20:27:20Z</time></trkpt>
<trkpt lat="35.211163" lon="-84.851862"><ele>239.3</ele><time>2026-07-23T20:27:22Z</time></trkpt>
<trkpt lat="35.211135" lon="-84.85187"><ele>239.0</ele><time>2026-07-23T20:27:24Z</time></trkpt>
<trkpt lat="35.211107" lon="-84.851875"><ele>238.7</ele><time>2026-07-23T20:27:26Z</time></trkpt>
<trkpt lat="35.211079" lon="-84.85188"><ele>240.2</ele><time>2026-07-23T20:27:28Z</time></trkpt>
<trkpt lat="35.211049" lon="-84.85188"><ele>240.2</ele><time>2026-07-23T20:27:30Z</time></trkpt>
<trkpt lat="35.211013" lon="-84.851903"><ele>240.2</ele><time>2026-07-23T20:27:33Z</time></trkpt>
<trkpt lat="35.210976" lon="-84.851921"><ele>239.6</ele><time>2026-07-23T20:27:36Z</time></trkpt>
<trkpt lat="35.21094" lon="-84.851945"><ele>240.2</ele><time>2026-07-23T20:27:39Z</time></trkpt>
<trkpt lat="35.210913" lon="-84.85196"><ele>241.1</ele><time>2026-07-23T20:27:41Z</time></trkpt>
<trkpt lat="35.210887" lon="-84.851973"><ele>241.1</ele><time>2026-07-23T20:27:43Z</time></trkpt>
<trkpt lat="35.210854" lon="-84.851998"><ele>240.5</ele><time>2026-07-23T20:27:46Z</time></trkpt>
<trkpt lat="35.210817" lon="-84.852015"><ele>241.7</ele><time>2026-07-23T20:27:49Z</time></trkpt>
<trkpt lat="35.210782" lon="-84.85203"><ele>241.4</ele><time>2026-07-23T20:27:52Z</time></trkpt>
<trkpt lat="35.210749" lon="-84.852053"><ele>241.1</ele><time>2026-07-23T20:27:55Z</time></trkpt>
<trkpt lat="35.210712" lon="-84.852068"><ele>242.0</ele><time>2026-07-23T20:27:58Z</time></trkpt>
<trkpt lat="35.210676" lon="-84.85208"><ele>241.1</ele><time>2026-07-23T20:28:01Z</time></trkpt>
<trkpt lat="35.210649" lon="-84.852091"><ele>240.8</ele><time>2026-07-23T20:28:03Z</time></trkpt>
<trkpt lat="35.210614" lon="-84.852106"><ele>239.0</ele><time>2026-07-23T20:28:06Z</time></trkpt>
<trkpt lat="35.210579" lon="-84.852125"><ele>239.3</ele><time>2026-07-23T20:28:09Z</time></trkpt>
<trkpt lat="35.210542" lon="-84.852145"><ele>240.5</ele><time>2026-07-23T20:28:12Z</time></trkpt>
<trkpt lat="35.210506" lon="-84.852165"><ele>238.7</ele><time>2026-07-23T20:28:15Z</time></trkpt>
<trkpt lat="35.210479" lon="-84.852181"><ele>238.7</ele><time>2026-07-23T20:28:17Z</time></trkpt>
<trkpt lat="35.210442" lon="-84.852201"><ele>238.7</ele><time>2026-07-23T20:28:20Z</time></trkpt>
<trkpt lat="35.210419" lon="-84.852222"><ele>238.4</ele><time>2026-07-23T20:28:22Z</time></trkpt>
<trkpt lat="35.210384" lon="-84.852239"><ele>237.1</ele><time>2026-07-23T20:28:25Z</time></trkpt>
<trkpt lat="35.210348" lon="-84.852259"><ele>236.8</ele><time>2026-07-23T20:28:28Z</time></trkpt>
<trkpt lat="35.210312" lon="-84.852279"><ele>235.3</ele><time>2026-07-23T20:28:31Z</time></trkpt>
<trkpt lat="35.210277" lon="-84.852295"><ele>235.0</ele><time>2026-07-23T20:28:34Z</time></trkpt>
<trkpt lat="35.210244" lon="-84.852319"><ele>235.0</ele><time>2026-07-23T20:28:37Z</time></trkpt>
<trkpt lat="35.210214" lon="-84.852346"><ele>235.6</ele><time>2026-07-23T20:28:40Z</time></trkpt>
<trkpt lat="35.210182" lon="-84.85237"><ele>236.8</ele><time>2026-07-23T20:28:43Z</time></trkpt>
<trkpt lat="35.21015" lon="-84.852391"><ele>237.4</ele><time>2026-07-23T20:28:46Z</time></trkpt>
<trkpt lat="35.210118" lon="-84.852417"><ele>237.7</ele><time>2026-07-23T20:28:49Z</time></trkpt>
<trkpt lat="35.210086" lon="-84.852446"><ele>237.7</ele><time>2026-07-23T20:28:52Z</time></trkpt>
<trkpt lat="35.210056" lon="-84.852472"><ele>236.8</ele><time>2026-07-23T20:28:55Z</time></trkpt>
<trkpt lat="35.210023" lon="-84.852492"><ele>237.1</ele><time>2026-07-23T20:28:58Z</time></trkpt>
<trkpt lat="35.209988" lon="-84.852515"><ele>236.2</ele><time>2026-07-23T20:29:01Z</time></trkpt>
<trkpt lat="35.209964" lon="-84.852533"><ele>236.2</ele><time>2026-07-23T20:29:03Z</time></trkpt>
<trkpt lat="35.209934" lon="-84.852562"><ele>237.4</ele><time>2026-07-23T20:29:06Z</time></trkpt>
<trkpt lat="35.209899" lon="-84.852583"><ele>237.4</ele><time>2026-07-23T20:29:09Z</time></trkpt>
<trkpt lat="35.209874" lon="-84.852618"><ele>237.4</ele><time>2026-07-23T20:29:12Z</time></trkpt>
<trkpt lat="35.209843" lon="-84.852647"><ele>237.7</ele><time>2026-07-23T20:29:15Z</time></trkpt>
<trkpt lat="35.209816" lon="-84.852682"><ele>237.1</ele><time>2026-07-23T20:29:18Z</time></trkpt>
<trkpt lat="35.209784" lon="-84.85271"><ele>238.4</ele><time>2026-07-23T20:29:21Z</time></trkpt>
<trkpt lat="35.209761" lon="-84.852729"><ele>238.4</ele><time>2026-07-23T20:29:23Z</time></trkpt>
<trkpt lat="35.209739" lon="-84.85275"><ele>239.0</ele><time>2026-07-23T20:29:25Z</time></trkpt>
<trkpt lat="35.209718" lon="-84.852777"><ele>239.3</ele><time>2026-07-23T20:29:27Z</time></trkpt>
<trkpt lat="35.209697" lon="-84.852799"><ele>239.3</ele><time>2026-07-23T20:29:29Z</time></trkpt>
<trkpt lat="35.209667" lon="-84.852826"><ele>240.5</ele><time>2026-07-23T20:29:32Z</time></trkpt>
<trkpt lat="35.209633" lon="-84.852852"><ele>241.1</ele><time>2026-07-23T20:29:35Z</time></trkpt>
<trkpt lat="35.209598" lon="-84.852875"><ele>240.8</ele><time>2026-07-23T20:29:38Z</time></trkpt>
<trkpt lat="35.209572" lon="-84.852905"><ele>238.0</ele><time>2026-07-23T20:29:41Z</time></trkpt>
<trkpt lat="35.209543" lon="-84.852935"><ele>235.9</ele><time>2026-07-23T20:29:44Z</time></trkpt>
<trkpt lat="35.209515" lon="-84.852965"><ele>236.5</ele><time>2026-07-23T20:29:47Z</time></trkpt>
<trkpt lat="35.209489" lon="-84.852993"><ele>236.2</ele><time>2026-07-23T20:29:50Z</time></trkpt>
<trkpt lat="35.209459" lon="-84.853015"><ele>236.8</ele><time>2026-07-23T20:29:53Z</time></trkpt>
<trkpt lat="35.209429" lon="-84.85304"><ele>237.7</ele><time>2026-07-23T20:29:56Z</time></trkpt>
<trkpt lat="35.2094" lon="-84.853074"><ele>239.3</ele><time>2026-07-23T20:29:59Z</time></trkpt>
<trkpt lat="35.209368" lon="-84.853105"><ele>240.5</ele><time>2026-07-23T20:30:02Z</time></trkpt>
<trkpt lat="35.209341" lon="-84.853135"><ele>241.1</ele><time>2026-07-23T20:30:05Z</time></trkpt>
<trkpt lat="35.209314" lon="-84.853168"><ele>241.4</ele><time>2026-07-23T20:30:08Z</time></trkpt>
<trkpt lat="35.209283" lon="-84.853201"><ele>241.1</ele><time>2026-07-23T20:30:11Z</time></trkpt>
<trkpt lat="35.209257" lon="-84.853238"><ele>240.2</ele><time>2026-07-23T20:30:14Z</time></trkpt>
<trkpt lat="35.209232" lon="-84.853278"><ele>239.3</ele><time>2026-07-23T20:30:17Z</time></trkpt>
<trkpt lat="35.20921" lon="-84.8533"><ele>238.7</ele><time>2026-07-23T20:30:19Z</time></trkpt>
<trkpt lat="35.209188" lon="-84.853322"><ele>238.4</ele><time>2026-07-23T20:30:21Z</time></trkpt>
<trkpt lat="35.209159" lon="-84.853354"><ele>238.0</ele><time>2026-07-23T20:30:24Z</time></trkpt>
<trkpt lat="35.209133" lon="-84.853371"><ele>238.4</ele><time>2026-07-23T20:30:26Z</time></trkpt>
<trkpt lat="35.209107" lon="-84.853389"><ele>236.2</ele><time>2026-07-23T20:30:28Z</time></trkpt>
<trkpt lat="35.209082" lon="-84.853407"><ele>235.6</ele><time>2026-07-23T20:30:30Z</time></trkpt>
<trkpt lat="35.209052" lon="-84.853437"><ele>237.4</ele><time>2026-07-23T20:30:33Z</time></trkpt>
<trkpt lat="35.209014" lon="-84.853456"><ele>238.4</ele><time>2026-07-23T20:30:36Z</time></trkpt>
<trkpt lat="35.208978" lon="-84.853479"><ele>238.0</ele><time>2026-07-23T20:30:39Z</time></trkpt>
<trkpt lat="35.208952" lon="-84.85349"><ele>238.7</ele><time>2026-07-23T20:30:41Z</time></trkpt>
<trkpt lat="35.208924" lon="-84.853496"><ele>239.0</ele><time>2026-07-23T20:30:43Z</time></trkpt>
<trkpt lat="35.208896" lon="-84.853499"><ele>239.3</ele><time>2026-07-23T20:30:45Z</time></trkpt>
<trkpt lat="35.208858" lon="-84.853502"><ele>239.3</ele><time>2026-07-23T20:30:48Z</time></trkpt>
<trkpt lat="35.208826" lon="-84.85351"><ele>240.5</ele><time>2026-07-23T20:30:51Z</time></trkpt>
<trkpt lat="35.208794" lon="-84.853522"><ele>240.2</ele><time>2026-07-23T20:30:54Z</time></trkpt>
<trkpt lat="35.208766" lon="-84.85353"><ele>240.2</ele><time>2026-07-23T20:30:56Z</time></trkpt>
<trkpt lat="35.20873" lon="-84.853543"><ele>239.3</ele><time>2026-07-23T20:30:59Z</time></trkpt>
<trkpt lat="35.208695" lon="-84.853551"><ele>238.4</ele><time>2026-07-23T20:31:02Z</time></trkpt>
<trkpt lat="35.208665" lon="-84.85355"><ele>238.0</ele><time>2026-07-23T20:31:04Z</time></trkpt>
<trkpt lat="35.208628" lon="-84.85356"><ele>238.0</ele><time>2026-07-23T20:31:07Z</time></trkpt>
<trkpt lat="35.20859" lon="-84.853568"><ele>239.6</ele><time>2026-07-23T20:31:10Z</time></trkpt>
<trkpt lat="35.208561" lon="-84.853575"><ele>239.6</ele><time>2026-07-23T20:31:12Z</time></trkpt>
<trkpt lat="35.20853" lon="-84.853565"><ele>241.1</ele><time>2026-07-23T20:31:14Z</time></trkpt>
<trkpt lat="35.208494" lon="-84.853581"><ele>239.0</ele><time>2026-07-23T20:31:17Z</time></trkpt>
<trkpt lat="35.20846" lon="-84.853597"><ele>238.0</ele><time>2026-07-23T20:31:20Z</time></trkpt>
<trkpt lat="35.208424" lon="-84.853617"><ele>237.7</ele><time>2026-07-23T20:31:23Z</time></trkpt>
<trkpt lat="35.208384" lon="-84.853633"><ele>238.7</ele><time>2026-07-23T20:31:26Z</time></trkpt>
<trkpt lat="35.208355" lon="-84.853646"><ele>237.7</ele><time>2026-07-23T20:31:28Z</time></trkpt>
<trkpt lat="35.208325" lon="-84.853643"><ele>239.0</ele><time>2026-07-23T20:31:30Z</time></trkpt>
<trkpt lat="35.208288" lon="-84.853648"><ele>239.3</ele><time>2026-07-23T20:31:33Z</time></trkpt>
<trkpt lat="35.20825" lon="-84.853651"><ele>239.0</ele><time>2026-07-23T20:31:36Z</time></trkpt>
<trkpt lat="35.208212" lon="-84.853659"><ele>239.0</ele><time>2026-07-23T20:31:39Z</time></trkpt>
<trkpt lat="35.208171" lon="-84.853652"><ele>239.6</ele><time>2026-07-23T20:31:42Z</time></trkpt>
<trkpt lat="35.208133" lon="-84.853655"><ele>240.8</ele><time>2026-07-23T20:31:45Z</time></trkpt>
<trkpt lat="35.208094" lon="-84.853646"><ele>242.0</ele><time>2026-07-23T20:31:48Z</time></trkpt>
<trkpt lat="35.208053" lon="-84.85364"><ele>242.0</ele><time>2026-07-23T20:31:51Z</time></trkpt>
<trkpt lat="35.208015" lon="-84.853644"><ele>240.5</ele><time>2026-07-23T20:31:54Z</time></trkpt>
<trkpt lat="35.207988" lon="-84.853633"><ele>241.4</ele><time>2026-07-23T20:31:56Z</time></trkpt>
<trkpt lat="35.20795" lon="-84.85362"><ele>242.0</ele><time>2026-07-23T20:31:59Z</time></trkpt>
<trkpt lat="35.207913" lon="-84.853609"><ele>242.6</ele><time>2026-07-23T20:32:02Z</time></trkpt>
<trkpt lat="35.207877" lon="-84.8536"><ele>242.0</ele><time>2026-07-23T20:32:05Z</time></trkpt>
<trkpt lat="35.20784" lon="-84.853586"><ele>242.0</ele><time>2026-07-23T20:32:08Z</time></trkpt>
<trkpt lat="35.207806" lon="-84.853585"><ele>242.0</ele><time>2026-07-23T20:32:11Z</time></trkpt>
<trkpt lat="35.207769" lon="-84.853597"><ele>241.7</ele><time>2026-07-23T20:32:14Z</time></trkpt>
<trkpt lat="35.207741" lon="-84.85361"><ele>242.9</ele><time>2026-07-23T20:32:16Z</time></trkpt>
<trkpt lat="35.207716" lon="-84.85363"><ele>242.9</ele><time>2026-07-23T20:32:18Z</time></trkpt>
<trkpt lat="35.207689" lon="-84.853642"><ele>240.8</ele><time>2026-07-23T20:32:20Z</time></trkpt>
<trkpt lat="35.207662" lon="-84.853653"><ele>240.8</ele><time>2026-07-23T20:32:22Z</time></trkpt>
<trkpt lat="35.207636" lon="-84.853663"><ele>240.8</ele><time>2026-07-23T20:32:24Z</time></trkpt>
<trkpt lat="35.207599" lon="-84.853674"><ele>240.5</ele><time>2026-07-23T20:32:27Z</time></trkpt>
<trkpt lat="35.207563" lon="-84.853681"><ele>239.0</ele><time>2026-07-23T20:32:30Z</time></trkpt>
<trkpt lat="35.207525" lon="-84.8537"><ele>239.6</ele><time>2026-07-23T20:32:33Z</time></trkpt>
<trkpt lat="35.207486" lon="-84.853719"><ele>241.7</ele><time>2026-07-23T20:32:36Z</time></trkpt>
<trkpt lat="35.207463" lon="-84.85374"><ele>241.1</ele><time>2026-07-23T20:32:38Z</time></trkpt>
<trkpt lat="35.207439" lon="-84.853759"><ele>239.9</ele><time>2026-07-23T20:32:40Z</time></trkpt>
<trkpt lat="35.207417" lon="-84.85378"><ele>241.1</ele><time>2026-07-23T20:32:42Z</time></trkpt>
<trkpt lat="35.207394" lon="-84.853803"><ele>239.6</ele><time>2026-07-23T20:32:44Z</time></trkpt>
<trkpt lat="35.207361" lon="-84.853828"><ele>239.0</ele><time>2026-07-23T20:32:47Z</time></trkpt>
<trkpt lat="35.207338" lon="-84.853847"><ele>238.4</ele><time>2026-07-23T20:32:49Z</time></trkpt>
<trkpt lat="35.207312" lon="-84.853864"><ele>238.0</ele><time>2026-07-23T20:32:51Z</time></trkpt>
<trkpt lat="35.207285" lon="-84.853876"><ele>237.7</ele><time>2026-07-23T20:32:53Z</time></trkpt>
<trkpt lat="35.207251" lon="-84.853901"><ele>237.4</ele><time>2026-07-23T20:32:56Z</time></trkpt>
<trkpt lat="35.207226" lon="-84.853914"><ele>238.4</ele><time>2026-07-23T20:32:58Z</time></trkpt>
<trkpt lat="35.207188" lon="-84.853932"><ele>238.4</ele><time>2026-07-23T20:33:01Z</time></trkpt>
<trkpt lat="35.207162" lon="-84.853948"><ele>238.7</ele><time>2026-07-23T20:33:03Z</time></trkpt>
<trkpt lat="35.207139" lon="-84.853965"><ele>239.0</ele><time>2026-07-23T20:33:05Z</time></trkpt>
<trkpt lat="35.207113" lon="-84.853979"><ele>239.0</ele><time>2026-07-23T20:33:07Z</time></trkpt>
<trkpt lat="35.207086" lon="-84.853993"><ele>239.6</ele><time>2026-07-23T20:33:09Z</time></trkpt>
<trkpt lat="35.207049" lon="-84.854011"><ele>239.6</ele><time>2026-07-23T20:33:12Z</time></trkpt>
<trkpt lat="35.207011" lon="-84.854029"><ele>239.9</ele><time>2026-07-23T20:33:15Z</time></trkpt>
<trkpt lat="35.206986" lon="-84.854045"><ele>240.5</ele><time>2026-07-23T20:33:17Z</time></trkpt>
<trkpt lat="35.206951" lon="-84.854067"><ele>240.2</ele><time>2026-07-23T20:33:20Z</time></trkpt>
<trkpt lat="35.206915" lon="-84.854085"><ele>239.3</ele><time>2026-07-23T20:33:23Z</time></trkpt>
<trkpt lat="35.206877" lon="-84.854105"><ele>237.4</ele><time>2026-07-23T20:33:26Z</time></trkpt>
<trkpt lat="35.206854" lon="-84.854124"><ele>237.1</ele><time>2026-07-23T20:33:28Z</time></trkpt>
<trkpt lat="35.206821" lon="-84.854153"><ele>237.4</ele><time>2026-07-23T20:33:31Z</time></trkpt>
<trkpt lat="35.20679" lon="-84.854177"><ele>237.7</ele><time>2026-07-23T20:33:34Z</time></trkpt>
<trkpt lat="35.206757" lon="-84.854196"><ele>238.7</ele><time>2026-07-23T20:33:37Z</time></trkpt>
<trkpt lat="35.206722" lon="-84.854219"><ele>238.7</ele><time>2026-07-23T20:33:40Z</time></trkpt>
<trkpt lat="35.206685" lon="-84.854232"><ele>238.7</ele><time>2026-07-23T20:33:43Z</time></trkpt>
<trkpt lat="35.206649" lon="-84.854247"><ele>236.8</ele><time>2026-07-23T20:33:46Z</time></trkpt>
<trkpt lat="35.206612" lon="-84.854258"><ele>235.9</ele><time>2026-07-23T20:33:49Z</time></trkpt>
<trkpt lat="35.20657" lon="-84.85426"><ele>235.6</ele><time>2026-07-23T20:33:52Z</time></trkpt>
<trkpt lat="35.206542" lon="-84.854263"><ele>236.5</ele><time>2026-07-23T20:33:54Z</time></trkpt>
<trkpt lat="35.206514" lon="-84.854261"><ele>236.5</ele><time>2026-07-23T20:33:56Z</time></trkpt>
<trkpt lat="35.206486" lon="-84.85426"><ele>238.0</ele><time>2026-07-23T20:33:58Z</time></trkpt>
<trkpt lat="35.206458" lon="-84.854265"><ele>237.7</ele><time>2026-07-23T20:34:00Z</time></trkpt>
<trkpt lat="35.20643" lon="-84.854263"><ele>238.0</ele><time>2026-07-23T20:34:02Z</time></trkpt>
<trkpt lat="35.206401" lon="-84.854255"><ele>239.6</ele><time>2026-07-23T20:34:04Z</time></trkpt>
<trkpt lat="35.206363" lon="-84.854249"><ele>239.9</ele><time>2026-07-23T20:34:07Z</time></trkpt>
<trkpt lat="35.206327" lon="-84.854236"><ele>240.5</ele><time>2026-07-23T20:34:10Z</time></trkpt>
<trkpt lat="35.206286" lon="-84.854238"><ele>239.3</ele><time>2026-07-23T20:34:13Z</time></trkpt>
<trkpt lat="35.206258" lon="-84.854232"><ele>239.6</ele><time>2026-07-23T20:34:15Z</time></trkpt>
<trkpt lat="35.206218" lon="-84.854222"><ele>239.0</ele><time>2026-07-23T20:34:18Z</time></trkpt>
<trkpt lat="35.206183" lon="-84.854208"><ele>238.0</ele><time>2026-07-23T20:34:21Z</time></trkpt>
<trkpt lat="35.206156" lon="-84.854208"><ele>238.4</ele><time>2026-07-23T20:34:23Z</time></trkpt>
<trkpt lat="35.206127" lon="-84.854201"><ele>238.7</ele><time>2026-07-23T20:34:25Z</time></trkpt>
<trkpt lat="35.206099" lon="-84.854191"><ele>238.0</ele><time>2026-07-23T20:34:27Z</time></trkpt>
<trkpt lat="35.20607" lon="-84.854186"><ele>236.8</ele><time>2026-07-23T20:34:29Z</time></trkpt>
<trkpt lat="35.206029" lon="-84.854178"><ele>236.8</ele><time>2026-07-23T20:34:32Z</time></trkpt>
<trkpt lat="35.206002" lon="-84.854174"><ele>239.3</ele><time>2026-07-23T20:34:34Z</time></trkpt>
<trkpt lat="35.205975" lon="-84.85417"><ele>238.4</ele><time>2026-07-23T20:34:36Z</time></trkpt>
<trkpt lat="35.205947" lon="-84.854166"><ele>238.0</ele><time>2026-07-23T20:34:38Z</time></trkpt>
<trkpt lat="35.205919" lon="-84.854161"><ele>239.3</ele><time>2026-07-23T20:34:40Z</time></trkpt>
<trkpt lat="35.205891" lon="-84.85416"><ele>240.8</ele><time>2026-07-23T20:34:42Z</time></trkpt>
<trkpt lat="35.205864" lon="-84.854152"><ele>240.8</ele><time>2026-07-23T20:34:44Z</time></trkpt>
<trkpt lat="35.205825" lon="-84.85415"><ele>239.0</ele><time>2026-07-23T20:34:47Z</time></trkpt>
<trkpt lat="35.205797" lon="-84.854141"><ele>238.7</ele><time>2026-07-23T20:34:49Z</time></trkpt>
<trkpt lat="35.205768" lon="-84.854144"><ele>238.4</ele><time>2026-07-23T20:34:51Z</time></trkpt>
<trkpt lat="35.205739" lon="-84.854142"><ele>239.0</ele><time>2026-07-23T20:34:53Z</time></trkpt>
<trkpt lat="35.205708" lon="-84.854146"><ele>240.5</ele><time>2026-07-23T20:34:55Z</time></trkpt>
<trkpt lat="35.205678" lon="-84.854153"><ele>240.5</ele><time>2026-07-23T20:34:57Z</time></trkpt>
<trkpt lat="35.20565" lon="-84.85416"><ele>240.8</ele><time>2026-07-23T20:34:59Z</time></trkpt>
<trkpt lat="35.20561" lon="-84.854171"><ele>239.0</ele><time>2026-07-23T20:35:02Z</time></trkpt>
<trkpt lat="35.205582" lon="-84.854183"><ele>238.7</ele><time>2026-07-23T20:35:04Z</time></trkpt>
<trkpt lat="35.205544" lon="-84.854192"><ele>237.4</ele><time>2026-07-23T20:35:07Z</time></trkpt>
<trkpt lat="35.205516" lon="-84.854203"><ele>237.1</ele><time>2026-07-23T20:35:09Z</time></trkpt>
<trkpt lat="35.205481" lon="-84.854223"><ele>239.3</ele><time>2026-07-23T20:35:12Z</time></trkpt>
<trkpt lat="35.205443" lon="-84.854235"><ele>239.3</ele><time>2026-07-23T20:35:15Z</time></trkpt>
<trkpt lat="35.205402" lon="-84.854242"><ele>239.0</ele><time>2026-07-23T20:35:18Z</time></trkpt>
<trkpt lat="35.205374" lon="-84.854246"><ele>239.3</ele><time>2026-07-23T20:35:20Z</time></trkpt>
<trkpt lat="35.205347" lon="-84.854252"><ele>238.4</ele><time>2026-07-23T20:35:22Z</time></trkpt>
<trkpt lat="35.205309" lon="-84.854258"><ele>236.5</ele><time>2026-07-23T20:35:25Z</time></trkpt>
<trkpt lat="35.205268" lon="-84.854259"><ele>235.9</ele><time>2026-07-23T20:35:28Z</time></trkpt>
<trkpt lat="35.205228" lon="-84.854263"><ele>236.8</ele><time>2026-07-23T20:35:31Z</time></trkpt>
<trkpt lat="35.205188" lon="-84.854264"><ele>235.0</ele><time>2026-07-23T20:35:34Z</time></trkpt>
<trkpt lat="35.205151" lon="-84.85426"><ele>235.3</ele><time>2026-07-23T20:35:37Z</time></trkpt>
<trkpt lat="35.205123" lon="-84.854264"><ele>234.1</ele><time>2026-07-23T20:35:39Z</time></trkpt>
<trkpt lat="35.205081" lon="-84.854259"><ele>235.3</ele><time>2026-07-23T20:35:42Z</time></trkpt>
<trkpt lat="35.205041" lon="-84.854252"><ele>234.7</ele><time>2026-07-23T20:35:45Z</time></trkpt>
<trkpt lat="35.205012" lon="-84.854247"><ele>235.0</ele><time>2026-07-23T20:35:47Z</time></trkpt>
<trkpt lat="35.204984" lon="-84.854238"><ele>235.0</ele><time>2026-07-23T20:35:49Z</time></trkpt>
<trkpt lat="35.204958" lon="-84.854227"><ele>235.6</ele><time>2026-07-23T20:35:51Z</time></trkpt>
<trkpt lat="35.204921" lon="-84.854213"><ele>236.5</ele><time>2026-07-23T20:35:54Z</time></trkpt>
<trkpt lat="35.204884" lon="-84.854206"><ele>236.5</ele><time>2026-07-23T20:35:57Z</time></trkpt>
<trkpt lat="35.204857" lon="-84.854202"><ele>238.0</ele><time>2026-07-23T20:35:59Z</time></trkpt>
<trkpt lat="35.204817" lon="-84.854203"><ele>237.4</ele><time>2026-07-23T20:36:02Z</time></trkpt>
<trkpt lat="35.20478" lon="-84.854203"><ele>238.0</ele><time>2026-07-23T20:36:05Z</time></trkpt>
<trkpt lat="35.204744" lon="-84.854212"><ele>238.0</ele><time>2026-07-23T20:36:08Z</time></trkpt>
<trkpt lat="35.204709" lon="-84.854209"><ele>239.3</ele><time>2026-07-23T20:36:11Z</time></trkpt>
<trkpt lat="35.204672" lon="-84.8542"><ele>239.9</ele><time>2026-07-23T20:36:14Z</time></trkpt>
<trkpt lat="35.204634" lon="-84.854196"><ele>239.6</ele><time>2026-07-23T20:36:17Z</time></trkpt>
<trkpt lat="35.204594" lon="-84.854191"><ele>240.5</ele><time>2026-07-23T20:36:20Z</time></trkpt>
<trkpt lat="35.204555" lon="-84.854185"><ele>240.5</ele><time>2026-07-23T20:36:23Z</time></trkpt>
<trkpt lat="35.20452" lon="-84.854171"><ele>240.5</ele><time>2026-07-23T20:36:26Z</time></trkpt>
<trkpt lat="35.204482" lon="-84.854161"><ele>239.9</ele><time>2026-07-23T20:36:29Z</time></trkpt>
<trkpt lat="35.204453" lon="-84.854153"><ele>239.6</ele><time>2026-07-23T20:36:31Z</time></trkpt>
<trkpt lat="35.204426" lon="-84.854145"><ele>239.9</ele><time>2026-07-23T20:36:33Z</time></trkpt>
<trkpt lat="35.20439" lon="-84.854129"><ele>239.3</ele><time>2026-07-23T20:36:36Z</time></trkpt>
<trkpt lat="35.204353" lon="-84.854111"><ele>239.6</ele><time>2026-07-23T20:36:39Z</time></trkpt>
<trkpt lat="35.204319" lon="-84.854098"><ele>238.4</ele><time>2026-07-23T20:36:42Z</time></trkpt>
<trkpt lat="35.20428" lon="-84.854084"><ele>238.7</ele><time>2026-07-23T20:36:45Z</time></trkpt>
<trkpt lat="35.204253" lon="-84.854078"><ele>239.3</ele><time>2026-07-23T20:36:47Z</time></trkpt>
<trkpt lat="35.204215" lon="-84.854071"><ele>238.4</ele><time>2026-07-23T20:36:50Z</time></trkpt>
<trkpt lat="35.204176" lon="-84.854065"><ele>238.4</ele><time>2026-07-23T20:36:53Z</time></trkpt>
<trkpt lat="35.204135" lon="-84.854068"><ele>239.0</ele><time>2026-07-23T20:36:56Z</time></trkpt>
<trkpt lat="35.2041" lon="-84.854067"><ele>239.0</ele><time>2026-07-23T20:36:59Z</time></trkpt>
<trkpt lat="35.204062" lon="-84.854062"><ele>238.7</ele><time>2026-07-23T20:37:02Z</time></trkpt>
<trkpt lat="35.204024" lon="-84.85406"><ele>239.0</ele><time>2026-07-23T20:37:05Z</time></trkpt>
<trkpt lat="35.203987" lon="-84.854051"><ele>238.7</ele><time>2026-07-23T20:37:08Z</time></trkpt>
<trkpt lat="35.203965" lon="-84.854031"><ele>238.0</ele><time>2026-07-23T20:37:10Z</time></trkpt>
<trkpt lat="35.203941" lon="-84.854011"><ele>239.6</ele><time>2026-07-23T20:37:12Z</time></trkpt>
<trkpt lat="35.203906" lon="-84.853983"><ele>240.5</ele><time>2026-07-23T20:37:15Z</time></trkpt>
<trkpt lat="35.203882" lon="-84.853966"><ele>241.1</ele><time>2026-07-23T20:37:17Z</time></trkpt>
<trkpt lat="35.203847" lon="-84.853942"><ele>242.0</ele><time>2026-07-23T20:37:20Z</time></trkpt>
<trkpt lat="35.203813" lon="-84.853916"><ele>242.9</ele><time>2026-07-23T20:37:23Z</time></trkpt>
<trkpt lat="35.203779" lon="-84.853894"><ele>244.4</ele><time>2026-07-23T20:37:26Z</time></trkpt>
<trkpt lat="35.203747" lon="-84.853869"><ele>246.3</ele><time>2026-07-23T20:37:29Z</time></trkpt>
<trkpt lat="35.20372" lon="-84.853838"><ele>246.0</ele><time>2026-07-23T20:37:32Z</time></trkpt>
<trkpt lat="35.203694" lon="-84.85381"><ele>245.7</ele><time>2026-07-23T20:37:35Z</time></trkpt>
<trkpt lat="35.203665" lon="-84.853782"><ele>244.8</ele><time>2026-07-23T20:37:38Z</time></trkpt>
<trkpt lat="35.20363" lon="-84.853755"><ele>244.4</ele><time>2026-07-23T20:37:41Z</time></trkpt>
<trkpt lat="35.203602" lon="-84.853726"><ele>244.1</ele><time>2026-07-23T20:37:44Z</time></trkpt>
<trkpt lat="35.203574" lon="-84.853693"><ele>244.1</ele><time>2026-07-23T20:37:47Z</time></trkpt>
<trkpt lat="35.203544" lon="-84.853665"><ele>242.9</ele><time>2026-07-23T20:37:50Z</time></trkpt>
<trkpt lat="35.203515" lon="-84.853636"><ele>242.3</ele><time>2026-07-23T20:37:53Z</time></trkpt>
<trkpt lat="35.203484" lon="-84.853605"><ele>242.3</ele><time>2026-07-23T20:37:56Z</time></trkpt>
<trkpt lat="35.203453" lon="-84.853579"><ele>241.4</ele><time>2026-07-23T20:37:59Z</time></trkpt>
<trkpt lat="35.203424" lon="-84.853552"><ele>241.1</ele><time>2026-07-23T20:38:02Z</time></trkpt>
<trkpt lat="35.203391" lon="-84.853524"><ele>240.5</ele><time>2026-07-23T20:38:05Z</time></trkpt>
<trkpt lat="35.203365" lon="-84.853508"><ele>240.2</ele><time>2026-07-23T20:38:07Z</time></trkpt>
<trkpt lat="35.203342" lon="-84.853487"><ele>239.6</ele><time>2026-07-23T20:38:09Z</time></trkpt>
<trkpt lat="35.203308" lon="-84.853457"><ele>239.3</ele><time>2026-07-23T20:38:12Z</time></trkpt>
<trkpt lat="35.203283" lon="-84.853437"><ele>239.9</ele><time>2026-07-23T20:38:14Z</time></trkpt>
<trkpt lat="35.203262" lon="-84.853411"><ele>240.5</ele><time>2026-07-23T20:38:16Z</time></trkpt>
<trkpt lat="35.203237" lon="-84.853393"><ele>241.1</ele><time>2026-07-23T20:38:18Z</time></trkpt>
<trkpt lat="35.203199" lon="-84.853374"><ele>240.5</ele><time>2026-07-23T20:38:21Z</time></trkpt>
<trkpt lat="35.203175" lon="-84.853357"><ele>239.6</ele><time>2026-07-23T20:38:23Z</time></trkpt>
<trkpt lat="35.203151" lon="-84.853339"><ele>239.9</ele><time>2026-07-23T20:38:25Z</time></trkpt>
<trkpt lat="35.203119" lon="-84.853313"><ele>239.9</ele><time>2026-07-23T20:38:28Z</time></trkpt>
<trkpt lat="35.203088" lon="-84.853282"><ele>240.5</ele><time>2026-07-23T20:38:31Z</time></trkpt>
<trkpt lat="35.203067" lon="-84.853258"><ele>241.1</ele><time>2026-07-23T20:38:33Z</time></trkpt>
<trkpt lat="35.203041" lon="-84.853222"><ele>240.8</ele><time>2026-07-23T20:38:36Z</time></trkpt>
<trkpt lat="35.203011" lon="-84.85319"><ele>241.4</ele><time>2026-07-23T20:38:39Z</time></trkpt>
<trkpt lat="35.202979" lon="-84.85316"><ele>241.4</ele><time>2026-07-23T20:38:42Z</time></trkpt>
<trkpt lat="35.202944" lon="-84.853133"><ele>241.7</ele><time>2026-07-23T20:38:45Z</time></trkpt>
<trkpt lat="35.202912" lon="-84.853103"><ele>241.1</ele><time>2026-07-23T20:38:48Z</time></trkpt>
<trkpt lat="35.202878" lon="-84.853079"><ele>239.6</ele><time>2026-07-23T20:38:51Z</time></trkpt>
<trkpt lat="35.20285" lon="-84.853059"><ele>238.4</ele><time>2026-07-23T20:38:54Z</time></trkpt>
<trkpt lat="35.202818" lon="-84.853041"><ele>237.4</ele><time>2026-07-23T20:38:57Z</time></trkpt>
<trkpt lat="35.202793" lon="-84.853024"><ele>237.1</ele><time>2026-07-23T20:38:59Z</time></trkpt>
<trkpt lat="35.202765" lon="-84.853006"><ele>237.4</ele><time>2026-07-23T20:39:01Z</time></trkpt>
<trkpt lat="35.202739" lon="-84.852987"><ele>237.7</ele><time>2026-07-23T20:39:03Z</time></trkpt>
<trkpt lat="35.202708" lon="-84.85296"><ele>236.2</ele><time>2026-07-23T20:39:06Z</time></trkpt>
<trkpt lat="35.20268" lon="-84.852936"><ele>237.7</ele><time>2026-07-23T20:39:09Z</time></trkpt>
<trkpt lat="35.202657" lon="-84.852903"><ele>238.4</ele><time>2026-07-23T20:39:12Z</time></trkpt>
<trkpt lat="35.202636" lon="-84.85288"><ele>239.0</ele><time>2026-07-23T20:39:14Z</time></trkpt>
<trkpt lat="35.202612" lon="-84.85286"><ele>238.7</ele><time>2026-07-23T20:39:16Z</time></trkpt>
<trkpt lat="35.20258" lon="-84.852833"><ele>239.0</ele><time>2026-07-23T20:39:19Z</time></trkpt>
<trkpt lat="35.202555" lon="-84.852817"><ele>239.3</ele><time>2026-07-23T20:39:21Z</time></trkpt>
<trkpt lat="35.202529" lon="-84.852805"><ele>239.0</ele><time>2026-07-23T20:39:23Z</time></trkpt>
<trkpt lat="35.202504" lon="-84.852788"><ele>238.7</ele><time>2026-07-23T20:39:25Z</time></trkpt>
<trkpt lat="35.202467" lon="-84.85277"><ele>238.4</ele><time>2026-07-23T20:39:28Z</time></trkpt>
<trkpt lat="35.202441" lon="-84.852754"><ele>238.7</ele><time>2026-07-23T20:39:30Z</time></trkpt>
<trkpt lat="35.202414" lon="-84.85274"><ele>238.7</ele><time>2026-07-23T20:39:32Z</time></trkpt>
<trkpt lat="35.202388" lon="-84.852725"><ele>238.7</ele><time>2026-07-23T20:39:34Z</time></trkpt>
<trkpt lat="35.20236" lon="-84.85271"><ele>238.4</ele><time>2026-07-23T20:39:36Z</time></trkpt>
<trkpt lat="35.202332" lon="-84.852695"><ele>238.7</ele><time>2026-07-23T20:39:38Z</time></trkpt>
<trkpt lat="35.202306" lon="-84.852682"><ele>238.7</ele><time>2026-07-23T20:39:40Z</time></trkpt>
<trkpt lat="35.202278" lon="-84.852672"><ele>238.7</ele><time>2026-07-23T20:39:42Z</time></trkpt>
<trkpt lat="35.20225" lon="-84.85267"><ele>238.4</ele><time>2026-07-23T20:39:44Z</time></trkpt>
<trkpt lat="35.20221" lon="-84.852661"><ele>238.4</ele><time>2026-07-23T20:39:47Z</time></trkpt>
<trkpt lat="35.202183" lon="-84.852655"><ele>238.4</ele><time>2026-07-23T20:39:49Z</time></trkpt>
<trkpt lat="35.202155" lon="-84.852653"><ele>238.4</ele><time>2026-07-23T20:39:51Z</time></trkpt>
<trkpt lat="35.202126" lon="-84.852648"><ele>238.0</ele><time>2026-07-23T20:39:53Z</time></trkpt>
<trkpt lat="35.202087" lon="-84.852635"><ele>236.8</ele><time>2026-07-23T20:39:56Z</time></trkpt>
<trkpt lat="35.202051" lon="-84.852622"><ele>236.5</ele><time>2026-07-23T20:39:59Z</time></trkpt>
<trkpt lat="35.202019" lon="-84.852619"><ele>236.5</ele><time>2026-07-23T20:40:02Z</time></trkpt>
<trkpt lat="35.201979" lon="-84.852616"><ele>236.2</ele><time>2026-07-23T20:40:05Z</time></trkpt>
<trkpt lat="35.201951" lon="-84.852618"><ele>236.2</ele><time>2026-07-23T20:40:07Z</time></trkpt>
<trkpt lat="35.201922" lon="-84.852619"><ele>236.8</ele><time>2026-07-23T20:40:09Z</time></trkpt>
<trkpt lat="35.201894" lon="-84.85262"><ele>236.5</ele><time>2026-07-23T20:40:11Z</time></trkpt>
<trkpt lat="35.201855" lon="-84.852628"><ele>236.8</ele><time>2026-07-23T20:40:14Z</time></trkpt>
<trkpt lat="35.201816" lon="-84.852635"><ele>236.8</ele><time>2026-07-23T20:40:17Z</time></trkpt>
<trkpt lat="35.201776" lon="-84.852626"><ele>236.8</ele><time>2026-07-23T20:40:20Z</time></trkpt>
<trkpt lat="35.201748" lon="-84.85263"><ele>237.1</ele><time>2026-07-23T20:40:22Z</time></trkpt>
<trkpt lat="35.20172" lon="-84.852633"><ele>237.1</ele><time>2026-07-23T20:40:24Z</time></trkpt>
<trkpt lat="35.20168" lon="-84.852631"><ele>237.4</ele><time>2026-07-23T20:40:27Z</time></trkpt>
<trkpt lat="35.201641" lon="-84.852641"><ele>237.1</ele><time>2026-07-23T20:40:30Z</time></trkpt>
<trkpt lat="35.201613" lon="-84.852649"><ele>237.1</ele><time>2026-07-23T20:40:32Z</time></trkpt>
<trkpt lat="35.201584" lon="-84.852654"><ele>236.8</ele><time>2026-07-23T20:40:34Z</time></trkpt>
<trkpt lat="35.201547" lon="-84.852673"><ele>237.1</ele><time>2026-07-23T20:40:37Z</time></trkpt>
<trkpt lat="35.201509" lon="-84.852688"><ele>237.1</ele><time>2026-07-23T20:40:40Z</time></trkpt>
<trkpt lat="35.201486" lon="-84.852645"><ele>237.4</ele><time>2026-07-23T20:40:42Z</time></trkpt>
<trkpt lat="35.201455" lon="-84.852674"><ele>236.5</ele><time>2026-07-23T20:40:44Z</time></trkpt>
<trkpt lat="35.201425" lon="-84.852673"><ele>236.8</ele><time>2026-07-23T20:40:46Z</time></trkpt>
<trkpt lat="35.201396" lon="-84.852668"><ele>235.9</ele><time>2026-07-23T20:40:48Z</time></trkpt>
<trkpt lat="35.201369" lon="-84.85266"><ele>236.5</ele><time>2026-07-23T20:40:50Z</time></trkpt>
<trkpt lat="35.20134" lon="-84.852652"><ele>236.8</ele><time>2026-07-23T20:40:52Z</time></trkpt>
<trkpt lat="35.201304" lon="-84.852638"><ele>236.8</ele><time>2026-07-23T20:40:55Z</time></trkpt>
<trkpt lat="35.20128" lon="-84.852621"><ele>236.2</ele><time>2026-07-23T20:40:57Z</time></trkpt>
<trkpt lat="35.201252" lon="-84.85261"><ele>236.2</ele><time>2026-07-23T20:40:59Z</time></trkpt>
<trkpt lat="35.201222" lon="-84.8526"><ele>236.8</ele><time>2026-07-23T20:41:01Z</time></trkpt>
<trkpt lat="35.201184" lon="-84.852589"><ele>237.1</ele><time>2026-07-23T20:41:04Z</time></trkpt>
<trkpt lat="35.201157" lon="-84.852579"><ele>236.8</ele><time>2026-07-23T20:41:06Z</time></trkpt>
<trkpt lat="35.201129" lon="-84.852574"><ele>237.1</ele><time>2026-07-23T20:41:08Z</time></trkpt>
<trkpt lat="35.20112" lon="-84.852626"><ele>237.7</ele><time>2026-07-23T20:41:10Z</time></trkpt>
<trkpt lat="35.201128" lon="-84.852631"><ele>236.8</ele><time>2026-07-23T20:41:11Z</time></trkpt>
<trkpt lat="35.201138" lon="-84.85264"><ele>236.8</ele><time>2026-07-23T20:41:12Z</time></trkpt>
<trkpt lat="35.20113" lon="-84.852602"><ele>235.9</ele><time>2026-07-23T20:41:15Z</time></trkpt>
<trkpt lat="35.201118" lon="-84.852568"><ele>236.2</ele><time>2026-07-23T20:41:17Z</time></trkpt>
<trkpt lat="35.201096" lon="-84.852544"><ele>236.8</ele><time>2026-07-23T20:41:19Z</time></trkpt>
<trkpt lat="35.201067" lon="-84.852539"><ele>236.2</ele><time>2026-07-23T20:41:22Z</time></trkpt>
<trkpt lat="35.20104" lon="-84.852525"><ele>236.8</ele><time>2026-07-23T20:41:25Z</time></trkpt>
<trkpt lat="35.201006" lon="-84.852532"><ele>236.8</ele><time>2026-07-23T20:41:28Z</time></trkpt>
<trkpt lat="35.200973" lon="-84.852539"><ele>236.8</ele><time>2026-07-23T20:41:31Z</time></trkpt>
<trkpt lat="35.200933" lon="-84.852555"><ele>235.3</ele><time>2026-07-23T20:41:34Z</time></trkpt>
<trkpt lat="35.200909" lon="-84.852577"><ele>232.9</ele><time>2026-07-23T20:41:36Z</time></trkpt>
<trkpt lat="35.2009" lon="-84.852597"><ele>232.9</ele><time>2026-07-23T20:41:37Z</time></trkpt>
<trkpt lat="35.200896" lon="-84.852617"><ele>232.3</ele><time>2026-07-23T20:41:38Z</time></trkpt>
<trkpt lat="35.200883" lon="-84.852628"><ele>232.3</ele><time>2026-07-23T20:41:39Z</time></trkpt>
<trkpt lat="35.200882" lon="-84.852632"><ele>232.3</ele><time>2026-07-23T20:41:40Z</time></trkpt>
<trkpt lat="35.200877" lon="-84.852638"><ele>232.9</ele><time>2026-07-23T20:41:41Z</time></trkpt>
<trkpt lat="35.200868" lon="-84.852651"><ele>233.5</ele><time>2026-07-23T20:41:42Z</time></trkpt>
<trkpt lat="35.200883" lon="-84.85268"><ele>233.5</ele><time>2026-07-23T20:41:44Z</time></trkpt>
<trkpt lat="35.200891" lon="-84.852714"><ele>235.6</ele><time>2026-07-23T20:41:46Z</time></trkpt>
<trkpt lat="35.200902" lon="-84.852752"><ele>235.3</ele><time>2026-07-23T20:41:49Z</time></trkpt>
<trkpt lat="35.200926" lon="-84.852778"><ele>235.6</ele><time>2026-07-23T20:41:51Z</time></trkpt>
<trkpt lat="35.200926" lon="-84.85282"><ele>237.7</ele><time>2026-07-23T20:41:55Z</time></trkpt>
<trkpt lat="35.200918" lon="-84.852863"><ele>237.7</ele><time>2026-07-23T20:41:59Z</time></trkpt>
<trkpt lat="35.200915" lon="-84.852901"><ele>238.7</ele><time>2026-07-23T20:42:02Z</time></trkpt>
<trkpt lat="35.200905" lon="-84.852934"><ele>239.0</ele><time>2026-07-23T20:42:05Z</time></trkpt>
<trkpt lat="35.200884" lon="-84.852966"><ele>238.7</ele><time>2026-07-23T20:42:08Z</time></trkpt>
<trkpt lat="35.200863" lon="-84.853002"><ele>239.0</ele><time>2026-07-23T20:42:11Z</time></trkpt>
<trkpt lat="35.200848" lon="-84.853042"><ele>240.5</ele><time>2026-07-23T20:42:14Z</time></trkpt>
<trkpt lat="35.20083" lon="-84.853074"><ele>240.8</ele><time>2026-07-23T20:42:16Z</time></trkpt>
<trkpt lat="35.200817" lon="-84.853107"><ele>241.1</ele><time>2026-07-23T20:42:18Z</time></trkpt>
<trkpt lat="35.200785" lon="-84.85312"><ele>241.4</ele><time>2026-07-23T20:42:20Z</time></trkpt>
<trkpt lat="35.200771" lon="-84.85308"><ele>240.2</ele><time>2026-07-23T20:42:22Z</time></trkpt>
<trkpt lat="35.20074" lon="-84.853102"><ele>239.6</ele><time>2026-07-23T20:42:24Z</time></trkpt>
<trkpt lat="35.200738" lon="-84.853139"><ele>240.2</ele><time>2026-07-23T20:42:26Z</time></trkpt>
<trkpt lat="35.200727" lon="-84.853184"><ele>240.2</ele><time>2026-07-23T20:42:29Z</time></trkpt>
<trkpt lat="35.200713" lon="-84.853224"><ele>239.6</ele><time>2026-07-23T20:42:32Z</time></trkpt>
<trkpt lat="35.200698" lon="-84.853267"><ele>238.7</ele><time>2026-07-23T20:42:35Z</time></trkpt>
<trkpt lat="35.20068" lon="-84.853309"><ele>238.7</ele><time>2026-07-23T20:42:38Z</time></trkpt>
<trkpt lat="35.200667" lon="-84.853339"><ele>239.3</ele><time>2026-07-23T20:42:40Z</time></trkpt>
<trkpt lat="35.200674" lon="-84.85338"><ele>241.1</ele><time>2026-07-23T20:42:43Z</time></trkpt>
<trkpt lat="35.200715" lon="-84.853371"><ele>239.9</ele><time>2026-07-23T20:42:45Z</time></trkpt>
<trkpt lat="35.200664" lon="-84.853402"><ele>238.7</ele><time>2026-07-23T20:42:46Z</time></trkpt>
<trkpt lat="35.200636" lon="-84.853426"><ele>238.0</ele><time>2026-07-23T20:42:49Z</time></trkpt>
<trkpt lat="35.200617" lon="-84.85347"><ele>238.4</ele><time>2026-07-23T20:42:52Z</time></trkpt>
<trkpt lat="35.200601" lon="-84.853516"><ele>238.0</ele><time>2026-07-23T20:42:55Z</time></trkpt>
<trkpt lat="35.200589" lon="-84.853547"><ele>237.4</ele><time>2026-07-23T20:42:57Z</time></trkpt>
<trkpt lat="35.200576" lon="-84.853596"><ele>237.7</ele><time>2026-07-23T20:43:00Z</time></trkpt>
<trkpt lat="35.200565" lon="-84.85363"><ele>238.0</ele><time>2026-07-23T20:43:02Z</time></trkpt>
<trkpt lat="35.200545" lon="-84.853673"><ele>239.0</ele><time>2026-07-23T20:43:04Z</time></trkpt>
<trkpt lat="35.200516" lon="-84.853703"><ele>239.6</ele><time>2026-07-23T20:43:06Z</time></trkpt>
<trkpt lat="35.200484" lon="-84.85372"><ele>241.1</ele><time>2026-07-23T20:43:08Z</time></trkpt>
<trkpt lat="35.200455" lon="-84.853733"><ele>241.7</ele><time>2026-07-23T20:43:10Z</time></trkpt>
<trkpt lat="35.200425" lon="-84.853743"><ele>241.7</ele><time>2026-07-23T20:43:12Z</time></trkpt>
<trkpt lat="35.200391" lon="-84.853755"><ele>242.6</ele><time>2026-07-23T20:43:14Z</time></trkpt>
<trkpt lat="35.200354" lon="-84.853763"><ele>241.4</ele><time>2026-07-23T20:43:17Z</time></trkpt>
<trkpt lat="35.200325" lon="-84.853778"><ele>240.2</ele><time>2026-07-23T20:43:20Z</time></trkpt>
<trkpt lat="35.200294" lon="-84.85378"><ele>239.9</ele><time>2026-07-23T20:43:23Z</time></trkpt>
<trkpt lat="35.200297" lon="-84.853739"><ele>238.4</ele><time>2026-07-23T20:43:35Z</time></trkpt>
<trkpt lat="35.200295" lon="-84.853703"><ele>239.0</ele><time>2026-07-23T20:43:37Z</time></trkpt>
<trkpt lat="35.20031" lon="-84.853672"><ele>239.0</ele><time>2026-07-23T20:43:39Z</time></trkpt>
<trkpt lat="35.200322" lon="-84.853635"><ele>239.3</ele><time>2026-07-23T20:43:41Z</time></trkpt>
<trkpt lat="35.200338" lon="-84.853591"><ele>239.3</ele><time>2026-07-23T20:43:44Z</time></trkpt>
<trkpt lat="35.200353" lon="-84.853546"><ele>239.6</ele><time>2026-07-23T20:43:47Z</time></trkpt>
<trkpt lat="35.200365" lon="-84.853499"><ele>239.9</ele><time>2026-07-23T20:43:50Z</time></trkpt>
<trkpt lat="35.200374" lon="-84.853467"><ele>239.9</ele><time>2026-07-23T20:43:52Z</time></trkpt>
<trkpt lat="35.200384" lon="-84.853432"><ele>240.2</ele><time>2026-07-23T20:43:54Z</time></trkpt>
<trkpt lat="35.200394" lon="-84.853399"><ele>240.2</ele><time>2026-07-23T20:43:56Z</time></trkpt>
<trkpt lat="35.200398" lon="-84.853366"><ele>239.9</ele><time>2026-07-23T20:43:58Z</time></trkpt>
<trkpt lat="35.200407" lon="-84.85332"><ele>239.6</ele><time>2026-07-23T20:44:01Z</time></trkpt>
<trkpt lat="35.200419" lon="-84.853274"><ele>239.6</ele><time>2026-07-23T20:44:04Z</time></trkpt>
<trkpt lat="35.200435" lon="-84.853227"><ele>239.9</ele><time>2026-07-23T20:44:07Z</time></trkpt>
<trkpt lat="35.200444" lon="-84.853194"><ele>239.9</ele><time>2026-07-23T20:44:09Z</time></trkpt>
<trkpt lat="35.20046" lon="-84.85315"><ele>239.6</ele><time>2026-07-23T20:44:12Z</time></trkpt>
<trkpt lat="35.200472" lon="-84.853119"><ele>239.6</ele><time>2026-07-23T20:44:14Z</time></trkpt>
<trkpt lat="35.200495" lon="-84.853078"><ele>239.0</ele><time>2026-07-23T20:44:17Z</time></trkpt>
<trkpt lat="35.200511" lon="-84.853049"><ele>239.3</ele><time>2026-07-23T20:44:19Z</time></trkpt>
<trkpt lat="35.200529" lon="-84.853024"><ele>239.0</ele><time>2026-07-23T20:44:21Z</time></trkpt>
<trkpt lat="35.200546" lon="-84.852997"><ele>238.7</ele><time>2026-07-23T20:44:23Z</time></trkpt>
<trkpt lat="35.200557" lon="-84.852964"><ele>239.0</ele><time>2026-07-23T20:44:25Z</time></trkpt>
<trkpt lat="35.20057" lon="-84.852932"><ele>238.7</ele><time>2026-07-23T20:44:27Z</time></trkpt>
<trkpt lat="35.200574" lon="-84.852897"><ele>238.4</ele><time>2026-07-23T20:44:29Z</time></trkpt>
<trkpt lat="35.200576" lon="-84.85285"><ele>238.0</ele><time>2026-07-23T20:44:32Z</time></trkpt>
<trkpt lat="35.200571" lon="-84.852816"><ele>237.7</ele><time>2026-07-23T20:44:34Z</time></trkpt>
<trkpt lat="35.200562" lon="-84.852784"><ele>238.0</ele><time>2026-07-23T20:44:36Z</time></trkpt>
<trkpt lat="35.200551" lon="-84.852753"><ele>238.0</ele><time>2026-07-23T20:44:38Z</time></trkpt>
<trkpt lat="35.200534" lon="-84.85271"><ele>238.0</ele><time>2026-07-23T20:44:41Z</time></trkpt>
<trkpt lat="35.200522" lon="-84.85268"><ele>238.0</ele><time>2026-07-23T20:44:43Z</time></trkpt>
<trkpt lat="35.200506" lon="-84.85265"><ele>238.4</ele><time>2026-07-23T20:44:45Z</time></trkpt>
<trkpt lat="35.200487" lon="-84.852623"><ele>239.0</ele><time>2026-07-23T20:44:47Z</time></trkpt>
<trkpt lat="35.200465" lon="-84.852597"><ele>239.3</ele><time>2026-07-23T20:44:49Z</time></trkpt>
<trkpt lat="35.20044" lon="-84.852576"><ele>239.0</ele><time>2026-07-23T20:44:51Z</time></trkpt>
<trkpt lat="35.200415" lon="-84.852556"><ele>239.0</ele><time>2026-07-23T20:44:53Z</time></trkpt>
<trkpt lat="35.20039" lon="-84.852537"><ele>239.0</ele><time>2026-07-23T20:44:55Z</time></trkpt>
<trkpt lat="35.200367" lon="-84.852517"><ele>239.3</ele><time>2026-07-23T20:44:57Z</time></trkpt>
<trkpt lat="35.200343" lon="-84.852499"><ele>239.6</ele><time>2026-07-23T20:44:59Z</time></trkpt>
<trkpt lat="35.200317" lon="-84.852481"><ele>240.2</ele><time>2026-07-23T20:45:01Z</time></trkpt>
<trkpt lat="35.200293" lon="-84.852463"><ele>239.9</ele><time>2026-07-23T20:45:03Z</time></trkpt>
<trkpt lat="35.200261" lon="-84.852437"><ele>239.6</ele><time>2026-07-23T20:45:06Z</time></trkpt>
<trkpt lat="35.200241" lon="-84.852414"><ele>240.2</ele><time>2026-07-23T20:45:08Z</time></trkpt>
<trkpt lat="35.200218" lon="-84.852394"><ele>240.2</ele><time>2026-07-23T20:45:10Z</time></trkpt>
<trkpt lat="35.200196" lon="-84.852373"><ele>239.9</ele><time>2026-07-23T20:45:12Z</time></trkpt>
<trkpt lat="35.200164" lon="-84.852343"><ele>239.9</ele><time>2026-07-23T20:45:15Z</time></trkpt>
<trkpt lat="35.200133" lon="-84.852314"><ele>240.2</ele><time>2026-07-23T20:45:18Z</time></trkpt>
<trkpt lat="35.200111" lon="-84.852289"><ele>239.9</ele><time>2026-07-23T20:45:20Z</time></trkpt>
<trkpt lat="35.200092" lon="-84.852261"><ele>239.9</ele><time>2026-07-23T20:45:22Z</time></trkpt>
<trkpt lat="35.200074" lon="-84.85223"><ele>239.9</ele><time>2026-07-23T20:45:24Z</time></trkpt>
<trkpt lat="35.200059" lon="-84.852202"><ele>239.9</ele><time>2026-07-23T20:45:26Z</time></trkpt>
<trkpt lat="35.20003" lon="-84.852166"><ele>240.5</ele><time>2026-07-23T20:45:29Z</time></trkpt>
<trkpt lat="35.20001" lon="-84.852143"><ele>240.8</ele><time>2026-07-23T20:45:31Z</time></trkpt>
<trkpt lat="35.199989" lon="-84.852121"><ele>240.8</ele><time>2026-07-23T20:45:33Z</time></trkpt>
<trkpt lat="35.199966" lon="-84.852101"><ele>240.5</ele><time>2026-07-23T20:45:35Z</time></trkpt>
<trkpt lat="35.199942" lon="-84.852082"><ele>240.2</ele><time>2026-07-23T20:45:37Z</time></trkpt>
<trkpt lat="35.199918" lon="-84.852062"><ele>240.5</ele><time>2026-07-23T20:45:39Z</time></trkpt>
<trkpt lat="35.199884" lon="-84.852038"><ele>240.2</ele><time>2026-07-23T20:45:42Z</time></trkpt>
<trkpt lat="35.199852" lon="-84.852011"><ele>240.8</ele><time>2026-07-23T20:45:45Z</time></trkpt>
<trkpt lat="35.19982" lon="-84.851986"><ele>240.8</ele><time>2026-07-23T20:45:48Z</time></trkpt>
<trkpt lat="35.199788" lon="-84.851961"><ele>240.5</ele><time>2026-07-23T20:45:51Z</time></trkpt>
<trkpt lat="35.199767" lon="-84.851938"><ele>241.4</ele><time>2026-07-23T20:45:53Z</time></trkpt>
<trkpt lat="35.199735" lon="-84.851911"><ele>241.4</ele><time>2026-07-23T20:45:56Z</time></trkpt>
<trkpt lat="35.199703" lon="-84.851882"><ele>241.4</ele><time>2026-07-23T20:45:59Z</time></trkpt>
<trkpt lat="35.199669" lon="-84.851855"><ele>241.7</ele><time>2026-07-23T20:46:02Z</time></trkpt>
<trkpt lat="35.199632" lon="-84.851834"><ele>241.7</ele><time>2026-07-23T20:46:05Z</time></trkpt>
<trkpt lat="35.199594" lon="-84.851816"><ele>242.0</ele><time>2026-07-23T20:46:08Z</time></trkpt>
<trkpt lat="35.199554" lon="-84.851806"><ele>242.9</ele><time>2026-07-23T20:46:11Z</time></trkpt>
<trkpt lat="35.199526" lon="-84.851808"><ele>242.9</ele><time>2026-07-23T20:46:13Z</time></trkpt>
<trkpt lat="35.199496" lon="-84.851816"><ele>242.6</ele><time>2026-07-23T20:46:15Z</time></trkpt>
<trkpt lat="35.199468" lon="-84.851826"><ele>243.5</ele><time>2026-07-23T20:46:17Z</time></trkpt>
<trkpt lat="35.199442" lon="-84.851841"><ele>244.1</ele><time>2026-07-23T20:46:19Z</time></trkpt>
<trkpt lat="35.199416" lon="-84.851862"><ele>243.2</ele><time>2026-07-23T20:46:21Z</time></trkpt>
<trkpt lat="35.199394" lon="-84.851888"><ele>243.8</ele><time>2026-07-23T20:46:23Z</time></trkpt>
<trkpt lat="35.199373" lon="-84.851912"><ele>243.8</ele><time>2026-07-23T20:46:25Z</time></trkpt>
<trkpt lat="35.199345" lon="-84.851945"><ele>242.9</ele><time>2026-07-23T20:46:28Z</time></trkpt>
<trkpt lat="35.199323" lon="-84.851966"><ele>242.3</ele><time>2026-07-23T20:46:30Z</time></trkpt>
<trkpt lat="35.199296" lon="-84.851981"><ele>242.3</ele><time>2026-07-23T20:46:32Z</time></trkpt>
<trkpt lat="35.199269" lon="-84.851994"><ele>242.3</ele><time>2026-07-23T20:46:34Z</time></trkpt>
<trkpt lat="35.199242" lon="-84.852002"><ele>242.6</ele><time>2026-07-23T20:46:36Z</time></trkpt>
<trkpt lat="35.199204" lon="-84.852018"><ele>242.3</ele><time>2026-07-23T20:46:39Z</time></trkpt>
<trkpt lat="35.199179" lon="-84.852031"><ele>242.3</ele><time>2026-07-23T20:46:41Z</time></trkpt>
<trkpt lat="35.199153" lon="-84.852047"><ele>242.3</ele><time>2026-07-23T20:46:43Z</time></trkpt>
<trkpt lat="35.199117" lon="-84.852068"><ele>240.8</ele><time>2026-07-23T20:46:46Z</time></trkpt>
<trkpt lat="35.199083" lon="-84.852088"><ele>240.5</ele><time>2026-07-23T20:46:49Z</time></trkpt>
<trkpt lat="35.199049" lon="-84.852106"><ele>240.5</ele><time>2026-07-23T20:46:52Z</time></trkpt>
<trkpt lat="35.199017" lon="-84.852131"><ele>240.5</ele><time>2026-07-23T20:46:55Z</time></trkpt>
<trkpt lat="35.198991" lon="-84.852148"><ele>240.2</ele><time>2026-07-23T20:46:57Z</time></trkpt>
<trkpt lat="35.198962" lon="-84.85216"><ele>240.2</ele><time>2026-07-23T20:46:59Z</time></trkpt>
<trkpt lat="35.198936" lon="-84.852175"><ele>240.8</ele><time>2026-07-23T20:47:01Z</time></trkpt>
<trkpt lat="35.198912" lon="-84.852191"><ele>240.5</ele><time>2026-07-23T20:47:03Z</time></trkpt>
<trkpt lat="35.198887" lon="-84.852206"><ele>240.5</ele><time>2026-07-23T20:47:05Z</time></trkpt>
<trkpt lat="35.198853" lon="-84.852226"><ele>240.5</ele><time>2026-07-23T20:47:08Z</time></trkpt>
<trkpt lat="35.198818" lon="-84.852247"><ele>239.9</ele><time>2026-07-23T20:47:11Z</time></trkpt>
<trkpt lat="35.198782" lon="-84.85227"><ele>239.6</ele><time>2026-07-23T20:47:14Z</time></trkpt>
<trkpt lat="35.19875" lon="-84.852291"><ele>239.6</ele><time>2026-07-23T20:47:17Z</time></trkpt>
<trkpt lat="35.198719" lon="-84.852319"><ele>238.7</ele><time>2026-07-23T20:47:20Z</time></trkpt>
<trkpt lat="35.198686" lon="-84.852344"><ele>238.0</ele><time>2026-07-23T20:47:23Z</time></trkpt>
<trkpt lat="35.198654" lon="-84.852374"><ele>238.7</ele><time>2026-07-23T20:47:26Z</time></trkpt>
<trkpt lat="35.198634" lon="-84.852398"><ele>239.3</ele><time>2026-07-23T20:47:28Z</time></trkpt>
<trkpt lat="35.198601" lon="-84.852427"><ele>239.9</ele><time>2026-07-23T20:47:31Z</time></trkpt>
<trkpt lat="35.198579" lon="-84.852451"><ele>239.9</ele><time>2026-07-23T20:47:33Z</time></trkpt>
<trkpt lat="35.19856" lon="-84.852477"><ele>239.6</ele><time>2026-07-23T20:47:35Z</time></trkpt>
<trkpt lat="35.198544" lon="-84.852506"><ele>239.6</ele><time>2026-07-23T20:47:37Z</time></trkpt>
<trkpt lat="35.198526" lon="-84.852532"><ele>239.6</ele><time>2026-07-23T20:47:39Z</time></trkpt>
<trkpt lat="35.198498" lon="-84.852568"><ele>239.6</ele><time>2026-07-23T20:47:42Z</time></trkpt>
<trkpt lat="35.198468" lon="-84.852603"><ele>239.3</ele><time>2026-07-23T20:47:45Z</time></trkpt>
<trkpt lat="35.198434" lon="-84.85263"><ele>239.3</ele><time>2026-07-23T20:47:48Z</time></trkpt>
<trkpt lat="35.198412" lon="-84.852649"><ele>239.6</ele><time>2026-07-23T20:47:50Z</time></trkpt>
<trkpt lat="35.198388" lon="-84.852666"><ele>239.0</ele><time>2026-07-23T20:47:52Z</time></trkpt>
<trkpt lat="35.198352" lon="-84.85269"><ele>239.9</ele><time>2026-07-23T20:47:55Z</time></trkpt>
<trkpt lat="35.198317" lon="-84.852712"><ele>239.6</ele><time>2026-07-23T20:47:58Z</time></trkpt>
<trkpt lat="35.198292" lon="-84.852729"><ele>239.9</ele><time>2026-07-23T20:48:00Z</time></trkpt>
<trkpt lat="35.198267" lon="-84.852745"><ele>239.9</ele><time>2026-07-23T20:48:02Z</time></trkpt>
<trkpt lat="35.198241" lon="-84.852759"><ele>239.9</ele><time>2026-07-23T20:48:04Z</time></trkpt>
<trkpt lat="35.198215" lon="-84.852772"><ele>239.6</ele><time>2026-07-23T20:48:06Z</time></trkpt>
<trkpt lat="35.198188" lon="-84.852783"><ele>239.3</ele><time>2026-07-23T20:48:08Z</time></trkpt>
<trkpt lat="35.198159" lon="-84.852786"><ele>239.6</ele><time>2026-07-23T20:48:10Z</time></trkpt>
<trkpt lat="35.198133" lon="-84.852779"><ele>239.3</ele><time>2026-07-23T20:48:12Z</time></trkpt>
<trkpt lat="35.198105" lon="-84.852772"><ele>239.0</ele><time>2026-07-23T20:48:14Z</time></trkpt>
<trkpt lat="35.198067" lon="-84.852762"><ele>239.0</ele><time>2026-07-23T20:48:17Z</time></trkpt>
<trkpt lat="35.198028" lon="-84.852752"><ele>239.0</ele><time>2026-07-23T20:48:20Z</time></trkpt>
<trkpt lat="35.197988" lon="-84.852744"><ele>239.0</ele><time>2026-07-23T20:48:23Z</time></trkpt>
<trkpt lat="35.197948" lon="-84.85274"><ele>238.7</ele><time>2026-07-23T20:48:26Z</time></trkpt>
<trkpt lat="35.197912" lon="-84.852739"><ele>238.7</ele><time>2026-07-23T20:48:29Z</time></trkpt>
<trkpt lat="35.197877" lon="-84.852745"><ele>238.7</ele><time>2026-07-23T20:48:32Z</time></trkpt>
<trkpt lat="35.19785" lon="-84.852752"><ele>239.3</ele><time>2026-07-23T20:48:34Z</time></trkpt>
<trkpt lat="35.197821" lon="-84.852756"><ele>239.9</ele><time>2026-07-23T20:48:36Z</time></trkpt>
<trkpt lat="35.197794" lon="-84.852764"><ele>239.6</ele><time>2026-07-23T20:48:38Z</time></trkpt>
<trkpt lat="35.197753" lon="-84.852772"><ele>239.9</ele><time>2026-07-23T20:48:41Z</time></trkpt>
<trkpt lat="35.197715" lon="-84.852786"><ele>239.9</ele><time>2026-07-23T20:48:44Z</time></trkpt>
<trkpt lat="35.197687" lon="-84.852793"><ele>240.2</ele><time>2026-07-23T20:48:46Z</time></trkpt>
<trkpt lat="35.197648" lon="-84.852803"><ele>239.9</ele><time>2026-07-23T20:48:49Z</time></trkpt>
<trkpt lat="35.19762" lon="-84.852809"><ele>240.5</ele><time>2026-07-23T20:48:51Z</time></trkpt>
<trkpt lat="35.197582" lon="-84.852817"><ele>239.9</ele><time>2026-07-23T20:48:54Z</time></trkpt>
<trkpt lat="35.197542" lon="-84.852827"><ele>240.2</ele><time>2026-07-23T20:48:57Z</time></trkpt>
<trkpt lat="35.197515" lon="-84.852836"><ele>240.5</ele><time>2026-07-23T20:48:59Z</time></trkpt>
<trkpt lat="35.197488" lon="-84.852849"><ele>239.9</ele><time>2026-07-23T20:49:01Z</time></trkpt>
<trkpt lat="35.197462" lon="-84.852858"><ele>239.6</ele><time>2026-07-23T20:49:03Z</time></trkpt>
<trkpt lat="35.197422" lon="-84.852868"><ele>239.3</ele><time>2026-07-23T20:49:06Z</time></trkpt>
<trkpt lat="35.197384" lon="-84.852875"><ele>239.3</ele><time>2026-07-23T20:49:09Z</time></trkpt>
<trkpt lat="35.197349" lon="-84.852886"><ele>239.3</ele><time>2026-07-23T20:49:12Z</time></trkpt>
<trkpt lat="35.19731" lon="-84.85289"><ele>239.9</ele><time>2026-07-23T20:49:15Z</time></trkpt>
<trkpt lat="35.197276" lon="-84.852895"><ele>240.5</ele><time>2026-07-23T20:49:18Z</time></trkpt>
<trkpt lat="35.19724" lon="-84.852904"><ele>240.5</ele><time>2026-07-23T20:49:21Z</time></trkpt>
<trkpt lat="35.197205" lon="-84.852917"><ele>240.8</ele><time>2026-07-23T20:49:24Z</time></trkpt>
<trkpt lat="35.197167" lon="-84.852933"><ele>240.8</ele><time>2026-07-23T20:49:27Z</time></trkpt>
<trkpt lat="35.197132" lon="-84.852951"><ele>240.8</ele><time>2026-07-23T20:49:30Z</time></trkpt>
<trkpt lat="35.197097" lon="-84.852972"><ele>241.4</ele><time>2026-07-23T20:49:33Z</time></trkpt>
<trkpt lat="35.19706" lon="-84.852993"><ele>241.4</ele><time>2026-07-23T20:49:36Z</time></trkpt>
<trkpt lat="35.197033" lon="-84.853004"><ele>241.7</ele><time>2026-07-23T20:49:38Z</time></trkpt>
<trkpt lat="35.196993" lon="-84.853006"><ele>241.7</ele><time>2026-07-23T20:49:41Z</time></trkpt>
<trkpt lat="35.196965" lon="-84.853003"><ele>241.4</ele><time>2026-07-23T20:49:43Z</time></trkpt>
<trkpt lat="35.196926" lon="-84.853002"><ele>241.1</ele><time>2026-07-23T20:49:46Z</time></trkpt>
<trkpt lat="35.196897" lon="-84.852998"><ele>241.1</ele><time>2026-07-23T20:49:48Z</time></trkpt>
<trkpt lat="35.196857" lon="-84.852991"><ele>240.8</ele><time>2026-07-23T20:49:51Z</time></trkpt>
<trkpt lat="35.196819" lon="-84.852982"><ele>240.2</ele><time>2026-07-23T20:49:54Z</time></trkpt>
<trkpt lat="35.196791" lon="-84.852976"><ele>240.2</ele><time>2026-07-23T20:49:56Z</time></trkpt>
<trkpt lat="35.196752" lon="-84.85297"><ele>240.2</ele><time>2026-07-23T20:49:59Z</time></trkpt>
<trkpt lat="35.196717" lon="-84.852979"><ele>240.2</ele><time>2026-07-23T20:50:02Z</time></trkpt>
<trkpt lat="35.196677" lon="-84.852986"><ele>239.6</ele><time>2026-07-23T20:50:05Z</time></trkpt>
<trkpt lat="35.196648" lon="-84.852993"><ele>239.0</ele><time>2026-07-23T20:50:07Z</time></trkpt>
<trkpt lat="35.19662" lon="-84.853006"><ele>239.0</ele><time>2026-07-23T20:50:09Z</time></trkpt>
<trkpt lat="35.196586" lon="-84.853023"><ele>239.9</ele><time>2026-07-23T20:50:12Z</time></trkpt>
<trkpt lat="35.196549" lon="-84.853041"><ele>240.5</ele><time>2026-07-23T20:50:15Z</time></trkpt>
<trkpt lat="35.196511" lon="-84.853054"><ele>239.6</ele><time>2026-07-23T20:50:18Z</time></trkpt>
<trkpt lat="35.196471" lon="-84.853061"><ele>240.2</ele><time>2026-07-23T20:50:21Z</time></trkpt>
<trkpt lat="35.196432" lon="-84.853069"><ele>240.8</ele><time>2026-07-23T20:50:24Z</time></trkpt>
<trkpt lat="35.196397" lon="-84.85308"><ele>240.8</ele><time>2026-07-23T20:50:27Z</time></trkpt>
<trkpt lat="35.196368" lon="-84.853089"><ele>240.5</ele><time>2026-07-23T20:50:29Z</time></trkpt>
<trkpt lat="35.196339" lon="-84.853097"><ele>240.5</ele><time>2026-07-23T20:50:31Z</time></trkpt>
<trkpt lat="35.196312" lon="-84.853104"><ele>240.5</ele><time>2026-07-23T20:50:33Z</time></trkpt>
<trkpt lat="35.196287" lon="-84.853121"><ele>240.2</ele><time>2026-07-23T20:50:36Z</time></trkpt>
<trkpt lat="35.19625" lon="-84.85313"><ele>240.8</ele><time>2026-07-23T20:50:39Z</time></trkpt>
<trkpt lat="35.196215" lon="-84.85314"><ele>241.1</ele><time>2026-07-23T20:50:42Z</time></trkpt>
<trkpt lat="35.196175" lon="-84.85315"><ele>240.8</ele><time>2026-07-23T20:50:45Z</time></trkpt>
<trkpt lat="35.196139" lon="-84.85316"><ele>240.5</ele><time>2026-07-23T20:50:48Z</time></trkpt>
<trkpt lat="35.196101" lon="-84.853169"><ele>240.2</ele><time>2026-07-23T20:50:51Z</time></trkpt>
<trkpt lat="35.196065" lon="-84.853185"><ele>239.6</ele><time>2026-07-23T20:50:54Z</time></trkpt>
<trkpt lat="35.196039" lon="-84.853199"><ele>239.3</ele><time>2026-07-23T20:50:56Z</time></trkpt>
<trkpt lat="35.196012" lon="-84.853204"><ele>239.6</ele><time>2026-07-23T20:50:58Z</time></trkpt>
<trkpt lat="35.195984" lon="-84.853214"><ele>239.6</ele><time>2026-07-23T20:51:00Z</time></trkpt>
<trkpt lat="35.195946" lon="-84.853231"><ele>239.9</ele><time>2026-07-23T20:51:03Z</time></trkpt>
<trkpt lat="35.195919" lon="-84.853242"><ele>239.9</ele><time>2026-07-23T20:51:05Z</time></trkpt>
<trkpt lat="35.195884" lon="-84.853247"><ele>239.9</ele><time>2026-07-23T20:51:08Z</time></trkpt>
<trkpt lat="35.195844" lon="-84.853258"><ele>239.9</ele><time>2026-07-23T20:51:11Z</time></trkpt>
<trkpt lat="35.195816" lon="-84.853263"><ele>239.9</ele><time>2026-07-23T20:51:13Z</time></trkpt>
<trkpt lat="35.195787" lon="-84.853267"><ele>240.2</ele><time>2026-07-23T20:51:15Z</time></trkpt>
<trkpt lat="35.195759" lon="-84.853271"><ele>239.9</ele><time>2026-07-23T20:51:17Z</time></trkpt>
<trkpt lat="35.195718" lon="-84.853275"><ele>240.5</ele><time>2026-07-23T20:51:20Z</time></trkpt>
<trkpt lat="35.19569" lon="-84.85328"><ele>240.8</ele><time>2026-07-23T20:51:22Z</time></trkpt>
<trkpt lat="35.195653" lon="-84.85329"><ele>240.2</ele><time>2026-07-23T20:51:25Z</time></trkpt>
<trkpt lat="35.195627" lon="-84.853301"><ele>240.2</ele><time>2026-07-23T20:51:27Z</time></trkpt>
<trkpt lat="35.195592" lon="-84.853315"><ele>240.5</ele><time>2026-07-23T20:51:30Z</time></trkpt>
<trkpt lat="35.195564" lon="-84.853323"><ele>240.5</ele><time>2026-07-23T20:51:32Z</time></trkpt>
<trkpt lat="35.195537" lon="-84.853332"><ele>240.8</ele><time>2026-07-23T20:51:34Z</time></trkpt>
<trkpt lat="35.195498" lon="-84.853342"><ele>240.8</ele><time>2026-07-23T20:51:37Z</time></trkpt>
<trkpt lat="35.195459" lon="-84.853352"><ele>241.1</ele><time>2026-07-23T20:51:40Z</time></trkpt>
<trkpt lat="35.195419" lon="-84.853362"><ele>240.5</ele><time>2026-07-23T20:51:43Z</time></trkpt>
<trkpt lat="35.195391" lon="-84.853368"><ele>240.8</ele><time>2026-07-23T20:51:45Z</time></trkpt>
<trkpt lat="35.195364" lon="-84.853375"><ele>240.5</ele><time>2026-07-23T20:51:47Z</time></trkpt>
<trkpt lat="35.195325" lon="-84.853386"><ele>240.8</ele><time>2026-07-23T20:51:50Z</time></trkpt>
<trkpt lat="35.195297" lon="-84.853395"><ele>241.1</ele><time>2026-07-23T20:51:52Z</time></trkpt>
<trkpt lat="35.195259" lon="-84.853406"><ele>241.1</ele><time>2026-07-23T20:51:55Z</time></trkpt>
<trkpt lat="35.19522" lon="-84.853417"><ele>240.8</ele><time>2026-07-23T20:51:58Z</time></trkpt>
<trkpt lat="35.195192" lon="-84.853422"><ele>240.5</ele><time>2026-07-23T20:52:00Z</time></trkpt>
<trkpt lat="35.195165" lon="-84.853429"><ele>240.2</ele><time>2026-07-23T20:52:02Z</time></trkpt>
<trkpt lat="35.195137" lon="-84.853439"><ele>240.5</ele><time>2026-07-23T20:52:04Z</time></trkpt>
<trkpt lat="35.195108" lon="-84.853447"><ele>240.8</ele><time>2026-07-23T20:52:06Z</time></trkpt>
<trkpt lat="35.195081" lon="-84.853453"><ele>240.5</ele><time>2026-07-23T20:52:08Z</time></trkpt>
<trkpt lat="35.195052" lon="-84.853459"><ele>240.5</ele><time>2026-07-23T20:52:10Z</time></trkpt>
<trkpt lat="35.195023" lon="-84.853462"><ele>240.2</ele><time>2026-07-23T20:52:12Z</time></trkpt>
<trkpt lat="35.194995" lon="-84.853464"><ele>240.5</ele><time>2026-07-23T20:52:14Z</time></trkpt>
<trkpt lat="35.194968" lon="-84.853468"><ele>240.5</ele><time>2026-07-23T20:52:16Z</time></trkpt>
<trkpt lat="35.194941" lon="-84.853476"><ele>240.5</ele><time>2026-07-23T20:52:18Z</time></trkpt>
<trkpt lat="35.194913" lon="-84.853482"><ele>240.5</ele><time>2026-07-23T20:52:20Z</time></trkpt>
<trkpt lat="35.194875" lon="-84.853498"><ele>240.2</ele><time>2026-07-23T20:52:23Z</time></trkpt>
<trkpt lat="35.194847" lon="-84.85351"><ele>240.2</ele><time>2026-07-23T20:52:25Z</time></trkpt>
<trkpt lat="35.194808" lon="-84.853524"><ele>239.9</ele><time>2026-07-23T20:52:28Z</time></trkpt>
<trkpt lat="35.19478" lon="-84.853532"><ele>240.5</ele><time>2026-07-23T20:52:30Z</time></trkpt>
<trkpt lat="35.19475" lon="-84.853535"><ele>240.8</ele><time>2026-07-23T20:52:32Z</time></trkpt>
<trkpt lat="35.19472" lon="-84.853535"><ele>240.5</ele><time>2026-07-23T20:52:34Z</time></trkpt>
<trkpt lat="35.194693" lon="-84.853534"><ele>240.8</ele><time>2026-07-23T20:52:36Z</time></trkpt>
<trkpt lat="35.194651" lon="-84.853532"><ele>241.1</ele><time>2026-07-23T20:52:39Z</time></trkpt>
<trkpt lat="35.194611" lon="-84.853529"><ele>241.7</ele><time>2026-07-23T20:52:42Z</time></trkpt>
<trkpt lat="35.194582" lon="-84.853527"><ele>242.0</ele><time>2026-07-23T20:52:44Z</time></trkpt>
<trkpt lat="35.194542" lon="-84.853531"><ele>242.0</ele><time>2026-07-23T20:52:47Z</time></trkpt>
<trkpt lat="35.194502" lon="-84.853536"><ele>242.0</ele><time>2026-07-23T20:52:50Z</time></trkpt>
<trkpt lat="35.194464" lon="-84.853547"><ele>242.0</ele><time>2026-07-23T20:52:53Z</time></trkpt>
<trkpt lat="35.194424" lon="-84.853553"><ele>242.6</ele><time>2026-07-23T20:52:56Z</time></trkpt>
<trkpt lat="35.194395" lon="-84.853554"><ele>242.3</ele><time>2026-07-23T20:52:58Z</time></trkpt>
<trkpt lat="35.194356" lon="-84.853557"><ele>242.6</ele><time>2026-07-23T20:53:01Z</time></trkpt>
<trkpt lat="35.194318" lon="-84.85356"><ele>242.3</ele><time>2026-07-23T20:53:04Z</time></trkpt>
<trkpt lat="35.194278" lon="-84.853569"><ele>242.0</ele><time>2026-07-23T20:53:07Z</time></trkpt>
<trkpt lat="35.194241" lon="-84.853569"><ele>241.4</ele><time>2026-07-23T20:53:10Z</time></trkpt>
<trkpt lat="35.1942" lon="-84.853569"><ele>242.0</ele><time>2026-07-23T20:53:13Z</time></trkpt>
<trkpt lat="35.194171" lon="-84.853571"><ele>241.7</ele><time>2026-07-23T20:53:15Z</time></trkpt>
<trkpt lat="35.194142" lon="-84.853573"><ele>241.7</ele><time>2026-07-23T20:53:17Z</time></trkpt>
<trkpt lat="35.194115" lon="-84.853578"><ele>241.4</ele><time>2026-07-23T20:53:19Z</time></trkpt>
<trkpt lat="35.194085" lon="-84.853577"><ele>241.4</ele><time>2026-07-23T20:53:21Z</time></trkpt>
<trkpt lat="35.194055" lon="-84.853577"><ele>241.4</ele><time>2026-07-23T20:53:23Z</time></trkpt>
<trkpt lat="35.194026" lon="-84.853581"><ele>241.1</ele><time>2026-07-23T20:53:25Z</time></trkpt>
<trkpt lat="35.193997" lon="-84.853586"><ele>241.7</ele><time>2026-07-23T20:53:27Z</time></trkpt>
<trkpt lat="35.193968" lon="-84.853589"><ele>242.0</ele><time>2026-07-23T20:53:29Z</time></trkpt>
<trkpt lat="35.193939" lon="-84.853592"><ele>242.3</ele><time>2026-07-23T20:53:31Z</time></trkpt>
<trkpt lat="35.19391" lon="-84.853594"><ele>242.6</ele><time>2026-07-23T20:53:33Z</time></trkpt>
<trkpt lat="35.193871" lon="-84.853599"><ele>242.6</ele><time>2026-07-23T20:53:36Z</time></trkpt>
<trkpt lat="35.193849" lon="-84.853572"><ele>242.9</ele><time>2026-07-23T20:53:38Z</time></trkpt>
<trkpt lat="35.19381" lon="-84.853571"><ele>240.8</ele><time>2026-07-23T20:53:41Z</time></trkpt>
<trkpt lat="35.193774" lon="-84.853588"><ele>241.7</ele><time>2026-07-23T20:53:44Z</time></trkpt>
<trkpt lat="35.193738" lon="-84.853602"><ele>242.3</ele><time>2026-07-23T20:53:47Z</time></trkpt>
<trkpt lat="35.1937" lon="-84.853607"><ele>243.2</ele><time>2026-07-23T20:53:50Z</time></trkpt>
<trkpt lat="35.193668" lon="-84.85361"><ele>242.3</ele><time>2026-07-23T20:53:53Z</time></trkpt>
<trkpt lat="35.193655" lon="-84.853575"><ele>241.7</ele><time>2026-07-23T20:53:57Z</time></trkpt>
<trkpt lat="35.193669" lon="-84.853535"><ele>241.4</ele><time>2026-07-23T20:54:00Z</time></trkpt>
<trkpt lat="35.193651" lon="-84.853504"><ele>240.2</ele><time>2026-07-23T20:54:02Z</time></trkpt>
<trkpt lat="35.193641" lon="-84.853463"><ele>239.6</ele><time>2026-07-23T20:54:05Z</time></trkpt>
<trkpt lat="35.193642" lon="-84.853418"><ele>239.6</ele><time>2026-07-23T20:54:08Z</time></trkpt>
<trkpt lat="35.193631" lon="-84.853374"><ele>239.9</ele><time>2026-07-23T20:54:11Z</time></trkpt>
<trkpt lat="35.193606" lon="-84.853336"><ele>240.8</ele><time>2026-07-23T20:54:14Z</time></trkpt>
<trkpt lat="35.193574" lon="-84.853309"><ele>240.5</ele><time>2026-07-23T20:54:17Z</time></trkpt>
<trkpt lat="35.193538" lon="-84.853289"><ele>240.5</ele><time>2026-07-23T20:54:20Z</time></trkpt>
<trkpt lat="35.1935" lon="-84.853277"><ele>240.5</ele><time>2026-07-23T20:54:23Z</time></trkpt>
<trkpt lat="35.19346" lon="-84.853262"><ele>241.1</ele><time>2026-07-23T20:54:26Z</time></trkpt>
<trkpt lat="35.193433" lon="-84.853257"><ele>241.1</ele><time>2026-07-23T20:54:28Z</time></trkpt>
<trkpt lat="35.193394" lon="-84.853247"><ele>241.4</ele><time>2026-07-23T20:54:31Z</time></trkpt>
<trkpt lat="35.193357" lon="-84.853231"><ele>241.1</ele><time>2026-07-23T20:54:34Z</time></trkpt>
<trkpt lat="35.193332" lon="-84.853218"><ele>241.4</ele><time>2026-07-23T20:54:36Z</time></trkpt>
<trkpt lat="35.193296" lon="-84.853194"><ele>242.0</ele><time>2026-07-23T20:54:39Z</time></trkpt>
<trkpt lat="35.193259" lon="-84.853169"><ele>242.0</ele><time>2026-07-23T20:54:42Z</time></trkpt>
<trkpt lat="35.193236" lon="-84.853149"><ele>242.0</ele><time>2026-07-23T20:54:44Z</time></trkpt>
<trkpt lat="35.193213" lon="-84.853128"><ele>241.7</ele><time>2026-07-23T20:54:46Z</time></trkpt>
<trkpt lat="35.193193" lon="-84.853106"><ele>242.0</ele><time>2026-07-23T20:54:48Z</time></trkpt>
<trkpt lat="35.193162" lon="-84.853074"><ele>242.6</ele><time>2026-07-23T20:54:51Z</time></trkpt>
<trkpt lat="35.193132" lon="-84.853043"><ele>242.6</ele><time>2026-07-23T20:54:54Z</time></trkpt>
<trkpt lat="35.193102" lon="-84.853009"><ele>243.2</ele><time>2026-07-23T20:54:57Z</time></trkpt>
<trkpt lat="35.193085" lon="-84.852983"><ele>243.2</ele><time>2026-07-23T20:54:59Z</time></trkpt>
<trkpt lat="35.193061" lon="-84.852948"><ele>242.9</ele><time>2026-07-23T20:55:02Z</time></trkpt>
<trkpt lat="35.193032" lon="-84.852913"><ele>243.2</ele><time>2026-07-23T20:55:05Z</time></trkpt>
<trkpt lat="35.193013" lon="-84.852886"><ele>243.5</ele><time>2026-07-23T20:55:07Z</time></trkpt>
<trkpt lat="35.192986" lon="-84.85285"><ele>243.5</ele><time>2026-07-23T20:55:10Z</time></trkpt>
<trkpt lat="35.192958" lon="-84.852816"><ele>243.2</ele><time>2026-07-23T20:55:13Z</time></trkpt>
<trkpt lat="35.192928" lon="-84.852785"><ele>242.9</ele><time>2026-07-23T20:55:16Z</time></trkpt>
<trkpt lat="35.192894" lon="-84.852763"><ele>242.6</ele><time>2026-07-23T20:55:19Z</time></trkpt>
<trkpt lat="35.19287" lon="-84.852745"><ele>242.9</ele><time>2026-07-23T20:55:21Z</time></trkpt>
<trkpt lat="35.192845" lon="-84.85273"><ele>242.9</ele><time>2026-07-23T20:55:23Z</time></trkpt>
<trkpt lat="35.192819" lon="-84.852718"><ele>242.6</ele><time>2026-07-23T20:55:25Z</time></trkpt>
<trkpt lat="35.192794" lon="-84.852703"><ele>242.6</ele><time>2026-07-23T20:55:27Z</time></trkpt>
<trkpt lat="35.192769" lon="-84.852687"><ele>242.6</ele><time>2026-07-23T20:55:29Z</time></trkpt>
<trkpt lat="35.192735" lon="-84.852662"><ele>242.9</ele><time>2026-07-23T20:55:32Z</time></trkpt>
<trkpt lat="35.192701" lon="-84.852639"><ele>242.6</ele><time>2026-07-23T20:55:35Z</time></trkpt>
<trkpt lat="35.192672" lon="-84.852613"><ele>242.3</ele><time>2026-07-23T20:55:38Z</time></trkpt>
<trkpt lat="35.19265" lon="-84.852593"><ele>242.3</ele><time>2026-07-23T20:55:40Z</time></trkpt>
<trkpt lat="35.192627" lon="-84.852575"><ele>242.0</ele><time>2026-07-23T20:55:42Z</time></trkpt>
<trkpt lat="35.192608" lon="-84.852549"><ele>241.7</ele><time>2026-07-23T20:55:44Z</time></trkpt>
<trkpt lat="35.192589" lon="-84.852523"><ele>241.4</ele><time>2026-07-23T20:55:46Z</time></trkpt>
<trkpt lat="35.192565" lon="-84.852488"><ele>241.7</ele><time>2026-07-23T20:55:49Z</time></trkpt>
<trkpt lat="35.192541" lon="-84.852452"><ele>242.3</ele><time>2026-07-23T20:55:52Z</time></trkpt>
<trkpt lat="35.192515" lon="-84.852416"><ele>242.3</ele><time>2026-07-23T20:55:55Z</time></trkpt>
<trkpt lat="35.192486" lon="-84.852389"><ele>242.9</ele><time>2026-07-23T20:55:58Z</time></trkpt>
<trkpt lat="35.192453" lon="-84.852379"><ele>244.1</ele><time>2026-07-23T20:56:01Z</time></trkpt>
<trkpt lat="35.192431" lon="-84.852343"><ele>243.8</ele><time>2026-07-23T20:56:04Z</time></trkpt>
<trkpt lat="35.192407" lon="-84.852312"><ele>243.8</ele><time>2026-07-23T20:56:07Z</time></trkpt>
<trkpt lat="35.192375" lon="-84.852286"><ele>244.1</ele><time>2026-07-23T20:56:10Z</time></trkpt>
<trkpt lat="35.192342" lon="-84.852263"><ele>243.8</ele><time>2026-07-23T20:56:13Z</time></trkpt>
<trkpt lat="35.192306" lon="-84.852248"><ele>244.1</ele><time>2026-07-23T20:56:16Z</time></trkpt>
<trkpt lat="35.192276" lon="-84.852227"><ele>244.1</ele><time>2026-07-23T20:56:19Z</time></trkpt>
<trkpt lat="35.192241" lon="-84.852215"><ele>244.4</ele><time>2026-07-23T20:56:22Z</time></trkpt>
<trkpt lat="35.1922" lon="-84.852206"><ele>244.4</ele><time>2026-07-23T20:56:25Z</time></trkpt>
<trkpt lat="35.192164" lon="-84.852192"><ele>244.1</ele><time>2026-07-23T20:56:28Z</time></trkpt>
<trkpt lat="35.192131" lon="-84.852176"><ele>243.5</ele><time>2026-07-23T20:56:31Z</time></trkpt>
<trkpt lat="35.1921" lon="-84.852151"><ele>242.9</ele><time>2026-07-23T20:56:34Z</time></trkpt>
<trkpt lat="35.192068" lon="-84.852123"><ele>242.6</ele><time>2026-07-23T20:56:37Z</time></trkpt>
<trkpt lat="35.192038" lon="-84.852094"><ele>242.9</ele><time>2026-07-23T20:56:40Z</time></trkpt>
<trkpt lat="35.192014" lon="-84.852061"><ele>243.5</ele><time>2026-07-23T20:56:43Z</time></trkpt>
<trkpt lat="35.191987" lon="-84.852028"><ele>244.1</ele><time>2026-07-23T20:56:46Z</time></trkpt>
<trkpt lat="35.191961" lon="-84.851994"><ele>244.4</ele><time>2026-07-23T20:56:49Z</time></trkpt>
<trkpt lat="35.191933" lon="-84.851963"><ele>244.4</ele><time>2026-07-23T20:56:52Z</time></trkpt>
<trkpt lat="35.191903" lon="-84.851934"><ele>245.1</ele><time>2026-07-23T20:56:55Z</time></trkpt>
<trkpt lat="35.191871" lon="-84.851908"><ele>245.1</ele><time>2026-07-23T20:56:58Z</time></trkpt>
<trkpt lat="35.191839" lon="-84.851884"><ele>245.4</ele><time>2026-07-23T20:57:01Z</time></trkpt>
<trkpt lat="35.191803" lon="-84.851864"><ele>245.1</ele><time>2026-07-23T20:57:04Z</time></trkpt>
<trkpt lat="35.19177" lon="-84.851841"><ele>244.8</ele><time>2026-07-23T20:57:07Z</time></trkpt>
<trkpt lat="35.191737" lon="-84.851817"><ele>244.8</ele><time>2026-07-23T20:57:10Z</time></trkpt>
<trkpt lat="35.191703" lon="-84.851791"><ele>244.4</ele><time>2026-07-23T20:57:13Z</time></trkpt>
<trkpt lat="35.191674" lon="-84.851762"><ele>244.4</ele><time>2026-07-23T20:57:16Z</time></trkpt>
<trkpt lat="35.191644" lon="-84.851732"><ele>244.8</ele><time>2026-07-23T20:57:19Z</time></trkpt>
<trkpt lat="35.191614" lon="-84.851699"><ele>244.1</ele><time>2026-07-23T20:57:22Z</time></trkpt>
<trkpt lat="35.191586" lon="-84.851671"><ele>243.8</ele><time>2026-07-23T20:57:25Z</time></trkpt>
<trkpt lat="35.191564" lon="-84.851632"><ele>243.8</ele><time>2026-07-23T20:57:28Z</time></trkpt>
<trkpt lat="35.191545" lon="-84.851596"><ele>242.9</ele><time>2026-07-23T20:57:31Z</time></trkpt>
<trkpt lat="35.19153" lon="-84.851552"><ele>242.9</ele><time>2026-07-23T20:57:34Z</time></trkpt>
<trkpt lat="35.191521" lon="-84.85151"><ele>242.3</ele><time>2026-07-23T20:57:37Z</time></trkpt>
<trkpt lat="35.191518" lon="-84.851468"><ele>241.4</ele><time>2026-07-23T20:57:40Z</time></trkpt>
<trkpt lat="35.191519" lon="-84.851421"><ele>241.7</ele><time>2026-07-23T20:57:43Z</time></trkpt>
<trkpt lat="35.191511" lon="-84.851375"><ele>242.0</ele><time>2026-07-23T20:57:46Z</time></trkpt>
<trkpt lat="35.191496" lon="-84.851331"><ele>242.3</ele><time>2026-07-23T20:57:49Z</time></trkpt>
<trkpt lat="35.191467" lon="-84.851338"><ele>243.5</ele><time>2026-07-23T20:57:52Z</time></trkpt>
<trkpt lat="35.191475" lon="-84.851377"><ele>242.0</ele><time>2026-07-23T20:57:54Z</time></trkpt>
<trkpt lat="35.191486" lon="-84.851415"><ele>241.1</ele><time>2026-07-23T20:57:56Z</time></trkpt>
<trkpt lat="35.191494" lon="-84.851449"><ele>240.8</ele><time>2026-07-23T20:57:58Z</time></trkpt>
<trkpt lat="35.191502" lon="-84.851497"><ele>240.5</ele><time>2026-07-23T20:58:01Z</time></trkpt>
<trkpt lat="35.191511" lon="-84.851546"><ele>240.2</ele><time>2026-07-23T20:58:04Z</time></trkpt>
<trkpt lat="35.191519" lon="-84.851579"><ele>239.9</ele><time>2026-07-23T20:58:06Z</time></trkpt>
<trkpt lat="35.191534" lon="-84.851609"><ele>240.5</ele><time>2026-07-23T20:58:08Z</time></trkpt>
<trkpt lat="35.191556" lon="-84.851649"><ele>240.8</ele><time>2026-07-23T20:58:11Z</time></trkpt>
<trkpt lat="35.19158" lon="-84.851691"><ele>240.5</ele><time>2026-07-23T20:58:14Z</time></trkpt>
<trkpt lat="35.191598" lon="-84.851721"><ele>240.5</ele><time>2026-07-23T20:58:16Z</time></trkpt>
<trkpt lat="35.191629" lon="-84.851752"><ele>240.8</ele><time>2026-07-23T20:58:19Z</time></trkpt>
<trkpt lat="35.191663" lon="-84.851779"><ele>240.8</ele><time>2026-07-23T20:58:22Z</time></trkpt>
<trkpt lat="35.191686" lon="-84.851798"><ele>240.8</ele><time>2026-07-23T20:58:24Z</time></trkpt>
<trkpt lat="35.191723" lon="-84.851818"><ele>240.8</ele><time>2026-07-23T20:58:27Z</time></trkpt>
<trkpt lat="35.19176" lon="-84.851838"><ele>240.8</ele><time>2026-07-23T20:58:30Z</time></trkpt>
<trkpt lat="35.191795" lon="-84.85186"><ele>241.1</ele><time>2026-07-23T20:58:33Z</time></trkpt>
<trkpt lat="35.191829" lon="-84.851883"><ele>241.4</ele><time>2026-07-23T20:58:36Z</time></trkpt>
<trkpt lat="35.191864" lon="-84.851905"><ele>241.4</ele><time>2026-07-23T20:58:39Z</time></trkpt>
<trkpt lat="35.191894" lon="-84.85193"><ele>241.4</ele><time>2026-07-23T20:58:42Z</time></trkpt>
<trkpt lat="35.191926" lon="-84.851958"><ele>241.7</ele><time>2026-07-23T20:58:45Z</time></trkpt>
<trkpt lat="35.191957" lon="-84.851989"><ele>241.7</ele><time>2026-07-23T20:58:48Z</time></trkpt>
<trkpt lat="35.191984" lon="-84.852024"><ele>242.3</ele><time>2026-07-23T20:58:51Z</time></trkpt>
<trkpt lat="35.192013" lon="-84.85206"><ele>242.3</ele><time>2026-07-23T20:58:54Z</time></trkpt>
<trkpt lat="35.192041" lon="-84.852092"><ele>242.3</ele><time>2026-07-23T20:58:57Z</time></trkpt>
<trkpt lat="35.192068" lon="-84.852121"><ele>242.3</ele><time>2026-07-23T20:59:00Z</time></trkpt>
<trkpt lat="35.192096" lon="-84.852153"><ele>241.7</ele><time>2026-07-23T20:59:03Z</time></trkpt>
<trkpt lat="35.192127" lon="-84.852177"><ele>241.4</ele><time>2026-07-23T20:59:06Z</time></trkpt>
<trkpt lat="35.192164" lon="-84.852195"><ele>241.1</ele><time>2026-07-23T20:59:09Z</time></trkpt>
<trkpt lat="35.192189" lon="-84.852209"><ele>240.8</ele><time>2026-07-23T20:59:11Z</time></trkpt>
<trkpt lat="35.192227" lon="-84.852221"><ele>240.5</ele><time>2026-07-23T20:59:14Z</time></trkpt>
<trkpt lat="35.192254" lon="-84.852231"><ele>240.5</ele><time>2026-07-23T20:59:16Z</time></trkpt>
<trkpt lat="35.192292" lon="-84.852248"><ele>240.8</ele><time>2026-07-23T20:59:19Z</time></trkpt>
<trkpt lat="35.192321" lon="-84.852257"><ele>241.1</ele><time>2026-07-23T20:59:21Z</time></trkpt>
<trkpt lat="35.19235" lon="-84.852264"><ele>241.1</ele><time>2026-07-23T20:59:23Z</time></trkpt>
<trkpt lat="35.192377" lon="-84.852273"><ele>241.1</ele><time>2026-07-23T20:59:25Z</time></trkpt>
<trkpt lat="35.192403" lon="-84.852285"><ele>240.8</ele><time>2026-07-23T20:59:27Z</time></trkpt>
<trkpt lat="35.192432" lon="-84.852314"><ele>240.5</ele><time>2026-07-23T20:59:30Z</time></trkpt>
<trkpt lat="35.192466" lon="-84.852345"><ele>240.2</ele><time>2026-07-23T20:59:33Z</time></trkpt>
<trkpt lat="35.192498" lon="-84.852377"><ele>240.2</ele><time>2026-07-23T20:59:36Z</time></trkpt>
<trkpt lat="35.192529" lon="-84.852409"><ele>240.5</ele><time>2026-07-23T20:59:39Z</time></trkpt>
<trkpt lat="35.192547" lon="-84.852435"><ele>240.5</ele><time>2026-07-23T20:59:41Z</time></trkpt>
<trkpt lat="35.192565" lon="-84.852461"><ele>241.1</ele><time>2026-07-23T20:59:43Z</time></trkpt>
<trkpt lat="35.192577" lon="-84.852493"><ele>241.1</ele><time>2026-07-23T20:59:45Z</time></trkpt>
<trkpt lat="35.192601" lon="-84.852534"><ele>241.4</ele><time>2026-07-23T20:59:48Z</time></trkpt>
<trkpt lat="35.192625" lon="-84.852571"><ele>240.5</ele><time>2026-07-23T20:59:51Z</time></trkpt>
<trkpt lat="35.192649" lon="-84.852608"><ele>240.5</ele><time>2026-07-23T20:59:54Z</time></trkpt>
<trkpt lat="35.192682" lon="-84.852637"><ele>241.4</ele><time>2026-07-23T20:59:57Z</time></trkpt>
<trkpt lat="35.192717" lon="-84.852667"><ele>241.4</ele><time>2026-07-23T21:00:00Z</time></trkpt>
<trkpt lat="35.192742" lon="-84.852686"><ele>241.4</ele><time>2026-07-23T21:00:02Z</time></trkpt>
<trkpt lat="35.192768" lon="-84.852702"><ele>241.7</ele><time>2026-07-23T21:00:04Z</time></trkpt>
<trkpt lat="35.192806" lon="-84.852723"><ele>241.7</ele><time>2026-07-23T21:00:07Z</time></trkpt>
<trkpt lat="35.192832" lon="-84.852742"><ele>241.7</ele><time>2026-07-23T21:00:09Z</time></trkpt>
<trkpt lat="35.192859" lon="-84.852754"><ele>241.7</ele><time>2026-07-23T21:00:11Z</time></trkpt>
<trkpt lat="35.192886" lon="-84.852763"><ele>241.7</ele><time>2026-07-23T21:00:13Z</time></trkpt>
<trkpt lat="35.19291" lon="-84.852782"><ele>241.4</ele><time>2026-07-23T21:00:15Z</time></trkpt>
<trkpt lat="35.192947" lon="-84.852803"><ele>241.1</ele><time>2026-07-23T21:00:18Z</time></trkpt>
<trkpt lat="35.192982" lon="-84.852829"><ele>240.8</ele><time>2026-07-23T21:00:21Z</time></trkpt>
<trkpt lat="35.192999" lon="-84.852855"><ele>240.2</ele><time>2026-07-23T21:00:23Z</time></trkpt>
<trkpt lat="35.193015" lon="-84.852883"><ele>239.9</ele><time>2026-07-23T21:00:25Z</time></trkpt>
<trkpt lat="35.193039" lon="-84.852918"><ele>239.9</ele><time>2026-07-23T21:00:28Z</time></trkpt>
<trkpt lat="35.193038" lon="-84.852955"><ele>241.4</ele><time>2026-07-23T21:00:31Z</time></trkpt>
<trkpt lat="35.193009" lon="-84.852982"><ele>241.7</ele><time>2026-07-23T21:00:34Z</time></trkpt>
<trkpt lat="35.192981" lon="-84.853007"><ele>241.7</ele><time>2026-07-23T21:00:37Z</time></trkpt>
<trkpt lat="35.192959" lon="-84.853036"><ele>242.0</ele><time>2026-07-23T21:00:40Z</time></trkpt>
<trkpt lat="35.192928" lon="-84.853061"><ele>242.0</ele><time>2026-07-23T21:00:43Z</time></trkpt>
<trkpt lat="35.192898" lon="-84.853081"><ele>242.0</ele><time>2026-07-23T21:00:46Z</time></trkpt>
<trkpt lat="35.192882" lon="-84.85312"><ele>242.0</ele><time>2026-07-23T21:00:50Z</time></trkpt>
<trkpt lat="35.192844" lon="-84.853134"><ele>241.7</ele><time>2026-07-23T21:00:55Z</time></trkpt>
<trkpt lat="35.192813" lon="-84.85314"><ele>241.7</ele><time>2026-07-23T21:00:58Z</time></trkpt>
<trkpt lat="35.192799" lon="-84.853169"><ele>241.7</ele><time>2026-07-23T21:01:03Z</time></trkpt>
<trkpt lat="35.192817" lon="-84.853208"><ele>241.4</ele><time>2026-07-23T21:01:08Z</time></trkpt>
<trkpt lat="35.19285" lon="-84.85321"><ele>241.4</ele><time>2026-07-23T21:01:10Z</time></trkpt>
<trkpt lat="35.192883" lon="-84.853212"><ele>241.4</ele><time>2026-07-23T21:01:12Z</time></trkpt>
<trkpt lat="35.192914" lon="-84.853218"><ele>241.4</ele><time>2026-07-23T21:01:14Z</time></trkpt>
<trkpt lat="35.192951" lon="-84.853219"><ele>241.4</ele><time>2026-07-23T21:01:16Z</time></trkpt>
<trkpt lat="35.192989" lon="-84.85322"><ele>241.4</ele><time>2026-07-23T21:01:18Z</time></trkpt>
<trkpt lat="35.193026" lon="-84.853222"><ele>241.7</ele><time>2026-07-23T21:01:20Z</time></trkpt>
<trkpt lat="35.193058" lon="-84.853228"><ele>241.7</ele><time>2026-07-23T21:01:22Z</time></trkpt>
<trkpt lat="35.193091" lon="-84.853229"><ele>241.7</ele><time>2026-07-23T21:01:24Z</time></trkpt>
<trkpt lat="35.193126" lon="-84.853233"><ele>241.7</ele><time>2026-07-23T21:01:26Z</time></trkpt>
<trkpt lat="35.19316" lon="-84.853238"><ele>242.0</ele><time>2026-07-23T21:01:28Z</time></trkpt>
<trkpt lat="35.193196" lon="-84.853242"><ele>242.0</ele><time>2026-07-23T21:01:30Z</time></trkpt>
<trkpt lat="35.19323" lon="-84.853248"><ele>242.0</ele><time>2026-07-23T21:01:32Z</time></trkpt>
<trkpt lat="35.193264" lon="-84.853252"><ele>242.0</ele><time>2026-07-23T21:01:34Z</time></trkpt>
<trkpt lat="35.193304" lon="-84.853255"><ele>242.0</ele><time>2026-07-23T21:01:36Z</time></trkpt>
<trkpt lat="35.193341" lon="-84.853257"><ele>242.0</ele><time>2026-07-23T21:01:38Z</time></trkpt>
<trkpt lat="35.193377" lon="-84.853261"><ele>242.0</ele><time>2026-07-23T21:01:40Z</time></trkpt>
<trkpt lat="35.193412" lon="-84.85327"><ele>242.0</ele><time>2026-07-23T21:01:42Z</time></trkpt>
<trkpt lat="35.193442" lon="-84.853278"><ele>242.0</ele><time>2026-07-23T21:01:44Z</time></trkpt>
<trkpt lat="35.193473" lon="-84.853283"><ele>242.3</ele><time>2026-07-23T21:01:46Z</time></trkpt>
<trkpt lat="35.193503" lon="-84.85329"><ele>242.0</ele><time>2026-07-23T21:01:48Z</time></trkpt>
<trkpt lat="35.193531" lon="-84.8533"><ele>242.0</ele><time>2026-07-23T21:01:50Z</time></trkpt>
<trkpt lat="35.193559" lon="-84.853311"><ele>242.0</ele><time>2026-07-23T21:01:52Z</time></trkpt>
<trkpt lat="35.193594" lon="-84.853333"><ele>242.0</ele><time>2026-07-23T21:01:55Z</time></trkpt>
<trkpt lat="35.193623" lon="-84.853361"><ele>242.3</ele><time>2026-07-23T21:01:58Z</time></trkpt>
<trkpt lat="35.193643" lon="-84.853397"><ele>242.3</ele><time>2026-07-23T21:02:01Z</time></trkpt>
<trkpt lat="35.193653" lon="-84.853442"><ele>242.3</ele><time>2026-07-23T21:02:04Z</time></trkpt>
<trkpt lat="35.193657" lon="-84.853487"><ele>242.3</ele><time>2026-07-23T21:02:07Z</time></trkpt>
<trkpt lat="35.193657" lon="-84.853529"><ele>242.3</ele><time>2026-07-23T21:02:10Z</time></trkpt>
<trkpt lat="35.19365" lon="-84.853572"><ele>240.2</ele><time>2026-07-23T21:02:13Z</time></trkpt>
<trkpt lat="35.193645" lon="-84.853613"><ele>241.1</ele><time>2026-07-23T21:02:16Z</time></trkpt>
<trkpt lat="35.193667" lon="-84.853636"><ele>241.1</ele><time>2026-07-23T21:02:19Z</time></trkpt>
<trkpt lat="35.193697" lon="-84.853631"><ele>240.8</ele><time>2026-07-23T21:02:21Z</time></trkpt>
<trkpt lat="35.193725" lon="-84.853626"><ele>241.1</ele><time>2026-07-23T21:02:23Z</time></trkpt>
<trkpt lat="35.193764" lon="-84.853622"><ele>240.8</ele><time>2026-07-23T21:02:26Z</time></trkpt>
<trkpt lat="35.193778" lon="-84.853612"><ele>243.2</ele><time>2026-07-23T21:02:29Z</time></trkpt>
<trkpt lat="35.193786" lon="-84.853622"><ele>242.6</ele><time>2026-07-23T21:02:30Z</time></trkpt>
<trkpt lat="35.193785" lon="-84.853625"><ele>242.3</ele><time>2026-07-23T21:02:41Z</time></trkpt>
<trkpt lat="35.193789" lon="-84.853627"><ele>242.0</ele><time>2026-07-23T21:02:42Z</time></trkpt>
<trkpt lat="35.19383" lon="-84.853621"><ele>242.0</ele><time>2026-07-23T21:02:45Z</time></trkpt>
<trkpt lat="35.193862" lon="-84.853601"><ele>240.2</ele><time>2026-07-23T21:02:48Z</time></trkpt>
<trkpt lat="35.193901" lon="-84.853596"><ele>240.5</ele><time>2026-07-23T21:02:51Z</time></trkpt>
<trkpt lat="35.193935" lon="-84.853592"><ele>240.8</ele><time>2026-07-23T21:02:54Z</time></trkpt>
<trkpt lat="35.193969" lon="-84.853582"><ele>240.8</ele><time>2026-07-23T21:02:57Z</time></trkpt>
<trkpt lat="35.194008" lon="-84.853581"><ele>240.2</ele><time>2026-07-23T21:03:00Z</time></trkpt>
<trkpt lat="35.194038" lon="-84.853584"><ele>239.9</ele><time>2026-07-23T21:03:02Z</time></trkpt>
<trkpt lat="35.194067" lon="-84.853585"><ele>240.2</ele><time>2026-07-23T21:03:04Z</time></trkpt>
<trkpt lat="35.194097" lon="-84.853585"><ele>239.9</ele><time>2026-07-23T21:03:06Z</time></trkpt>
<trkpt lat="35.194133" lon="-84.853582"><ele>239.9</ele><time>2026-07-23T21:03:09Z</time></trkpt>
<trkpt lat="35.194172" lon="-84.853579"><ele>239.9</ele><time>2026-07-23T21:03:12Z</time></trkpt>
<trkpt lat="35.194212" lon="-84.853581"><ele>239.3</ele><time>2026-07-23T21:03:15Z</time></trkpt>
<trkpt lat="35.19425" lon="-84.853573"><ele>239.9</ele><time>2026-07-23T21:03:18Z</time></trkpt>
<trkpt lat="35.194279" lon="-84.853565"><ele>240.2</ele><time>2026-07-23T21:03:20Z</time></trkpt>
<trkpt lat="35.194308" lon="-84.853561"><ele>240.2</ele><time>2026-07-23T21:03:22Z</time></trkpt>
<trkpt lat="35.194348" lon="-84.853556"><ele>240.5</ele><time>2026-07-23T21:03:25Z</time></trkpt>
<trkpt lat="35.194386" lon="-84.853556"><ele>241.4</ele><time>2026-07-23T21:03:28Z</time></trkpt>
<trkpt lat="35.194424" lon="-84.85355"><ele>241.1</ele><time>2026-07-23T21:03:31Z</time></trkpt>
<trkpt lat="35.194464" lon="-84.853547"><ele>241.7</ele><time>2026-07-23T21:03:34Z</time></trkpt>
<trkpt lat="35.194493" lon="-84.853541"><ele>242.0</ele><time>2026-07-23T21:03:36Z</time></trkpt>
<trkpt lat="35.194531" lon="-84.853528"><ele>242.0</ele><time>2026-07-23T21:03:39Z</time></trkpt>
<trkpt lat="35.194565" lon="-84.853523"><ele>242.0</ele><time>2026-07-23T21:03:42Z</time></trkpt>
<trkpt lat="35.194602" lon="-84.853522"><ele>241.4</ele><time>2026-07-23T21:03:45Z</time></trkpt>
<trkpt lat="35.194644" lon="-84.853526"><ele>240.5</ele><time>2026-07-23T21:03:48Z</time></trkpt>
<trkpt lat="35.194672" lon="-84.853532"><ele>239.9</ele><time>2026-07-23T21:03:50Z</time></trkpt>
<trkpt lat="35.194699" lon="-84.853535"><ele>240.5</ele><time>2026-07-23T21:03:52Z</time></trkpt>
<trkpt lat="35.194728" lon="-84.853537"><ele>240.5</ele><time>2026-07-23T21:03:54Z</time></trkpt>
<trkpt lat="35.194768" lon="-84.853535"><ele>240.8</ele><time>2026-07-23T21:03:57Z</time></trkpt>
<trkpt lat="35.194796" lon="-84.853528"><ele>240.5</ele><time>2026-07-23T21:03:59Z</time></trkpt>
<trkpt lat="35.194836" lon="-84.853516"><ele>240.2</ele><time>2026-07-23T21:04:02Z</time></trkpt>
<trkpt lat="35.194862" lon="-84.853502"><ele>239.9</ele><time>2026-07-23T21:04:04Z</time></trkpt>
<trkpt lat="35.194888" lon="-84.853487"><ele>239.3</ele><time>2026-07-23T21:04:06Z</time></trkpt>
<trkpt lat="35.194916" lon="-84.853477"><ele>239.3</ele><time>2026-07-23T21:04:08Z</time></trkpt>
<trkpt lat="35.194944" lon="-84.853471"><ele>239.0</ele><time>2026-07-23T21:04:10Z</time></trkpt>
<trkpt lat="35.194983" lon="-84.853466"><ele>239.0</ele><time>2026-07-23T21:04:13Z</time></trkpt>
<trkpt lat="35.195021" lon="-84.85346"><ele>238.7</ele><time>2026-07-23T21:04:16Z</time></trkpt>
<trkpt lat="35.195056" lon="-84.853456"><ele>238.7</ele><time>2026-07-23T21:04:19Z</time></trkpt>
<trkpt lat="35.195094" lon="-84.853447"><ele>238.4</ele><time>2026-07-23T21:04:22Z</time></trkpt>
<trkpt lat="35.195122" lon="-84.853441"><ele>238.4</ele><time>2026-07-23T21:04:24Z</time></trkpt>
<trkpt lat="35.195149" lon="-84.853433"><ele>238.4</ele><time>2026-07-23T21:04:26Z</time></trkpt>
<trkpt lat="35.195177" lon="-84.853419"><ele>239.0</ele><time>2026-07-23T21:04:28Z</time></trkpt>
<trkpt lat="35.195208" lon="-84.853409"><ele>238.7</ele><time>2026-07-23T21:04:30Z</time></trkpt>
<trkpt lat="35.195237" lon="-84.853404"><ele>239.0</ele><time>2026-07-23T21:04:32Z</time></trkpt>
<trkpt lat="35.195272" lon="-84.853393"><ele>239.3</ele><time>2026-07-23T21:04:35Z</time></trkpt>
<trkpt lat="35.195308" lon="-84.853386"><ele>239.0</ele><time>2026-07-23T21:04:38Z</time></trkpt>
<trkpt lat="35.195345" lon="-84.853376"><ele>239.0</ele><time>2026-07-23T21:04:41Z</time></trkpt>
<trkpt lat="35.195372" lon="-84.853366"><ele>239.6</ele><time>2026-07-23T21:04:43Z</time></trkpt>
<trkpt lat="35.195404" lon="-84.853357"><ele>239.3</ele><time>2026-07-23T21:04:45Z</time></trkpt>
<trkpt lat="35.195435" lon="-84.853348"><ele>239.6</ele><time>2026-07-23T21:04:47Z</time></trkpt>
<trkpt lat="35.195463" lon="-84.85334"><ele>239.6</ele><time>2026-07-23T21:04:49Z</time></trkpt>
<trkpt lat="35.195502" lon="-84.853327"><ele>239.9</ele><time>2026-07-23T21:04:52Z</time></trkpt>
<trkpt lat="35.195537" lon="-84.853319"><ele>240.5</ele><time>2026-07-23T21:04:55Z</time></trkpt>
<trkpt lat="35.195575" lon="-84.85331"><ele>240.2</ele><time>2026-07-23T21:04:58Z</time></trkpt>
<trkpt lat="35.195616" lon="-84.853299"><ele>239.6</ele><time>2026-07-23T21:05:01Z</time></trkpt>
<trkpt lat="35.195646" lon="-84.853291"><ele>240.2</ele><time>2026-07-23T21:05:03Z</time></trkpt>
<trkpt lat="35.195685" lon="-84.853276"><ele>241.4</ele><time>2026-07-23T21:05:06Z</time></trkpt>
<trkpt lat="35.195724" lon="-84.853262"><ele>242.3</ele><time>2026-07-23T21:05:09Z</time></trkpt>
<trkpt lat="35.195764" lon="-84.853251"><ele>241.7</ele><time>2026-07-23T21:05:12Z</time></trkpt>
<trkpt lat="35.1958" lon="-84.85324"><ele>241.4</ele><time>2026-07-23T21:05:15Z</time></trkpt>
<trkpt lat="35.195842" lon="-84.853233"><ele>240.5</ele><time>2026-07-23T21:05:18Z</time></trkpt>
<trkpt lat="35.195869" lon="-84.853229"><ele>240.2</ele><time>2026-07-23T21:05:20Z</time></trkpt>
<trkpt lat="35.195899" lon="-84.853222"><ele>240.5</ele><time>2026-07-23T21:05:22Z</time></trkpt>
<trkpt lat="35.19593" lon="-84.853217"><ele>240.2</ele><time>2026-07-23T21:05:24Z</time></trkpt>
<trkpt lat="35.195959" lon="-84.853214"><ele>239.3</ele><time>2026-07-23T21:05:26Z</time></trkpt>
<trkpt lat="35.195989" lon="-84.853209"><ele>239.3</ele><time>2026-07-23T21:05:28Z</time></trkpt>
<trkpt lat="35.196026" lon="-84.853201"><ele>238.7</ele><time>2026-07-23T21:05:31Z</time></trkpt>
<trkpt lat="35.196063" lon="-84.853194"><ele>238.0</ele><time>2026-07-23T21:05:34Z</time></trkpt>
<trkpt lat="35.196098" lon="-84.853182"><ele>238.4</ele><time>2026-07-23T21:05:37Z</time></trkpt>
<trkpt lat="35.196124" lon="-84.85317"><ele>239.3</ele><time>2026-07-23T21:05:39Z</time></trkpt>
<trkpt lat="35.196152" lon="-84.853158"><ele>238.7</ele><time>2026-07-23T21:05:41Z</time></trkpt>
<trkpt lat="35.19618" lon="-84.853154"><ele>238.4</ele><time>2026-07-23T21:05:43Z</time></trkpt>
<trkpt lat="35.196208" lon="-84.853143"><ele>237.7</ele><time>2026-07-23T21:05:45Z</time></trkpt>
<trkpt lat="35.196238" lon="-84.853133"><ele>238.4</ele><time>2026-07-23T21:05:47Z</time></trkpt>
<trkpt lat="35.196266" lon="-84.853126"><ele>238.4</ele><time>2026-07-23T21:05:49Z</time></trkpt>
<trkpt lat="35.196304" lon="-84.853115"><ele>238.7</ele><time>2026-07-23T21:05:52Z</time></trkpt>
<trkpt lat="35.196341" lon="-84.853105"><ele>238.4</ele><time>2026-07-23T21:05:55Z</time></trkpt>
<trkpt lat="35.196376" lon="-84.853092"><ele>238.0</ele><time>2026-07-23T21:05:58Z</time></trkpt>
<trkpt lat="35.196414" lon="-84.853082"><ele>238.0</ele><time>2026-07-23T21:06:01Z</time></trkpt>
<trkpt lat="35.196454" lon="-84.853076"><ele>237.7</ele><time>2026-07-23T21:06:04Z</time></trkpt>
<trkpt lat="35.196481" lon="-84.85307"><ele>237.7</ele><time>2026-07-23T21:06:06Z</time></trkpt>
<trkpt lat="35.196521" lon="-84.853059"><ele>238.4</ele><time>2026-07-23T21:06:09Z</time></trkpt>
<trkpt lat="35.196557" lon="-84.853044"><ele>238.7</ele><time>2026-07-23T21:06:12Z</time></trkpt>
<trkpt lat="35.196596" lon="-84.853037"><ele>239.0</ele><time>2026-07-23T21:06:15Z</time></trkpt>
<trkpt lat="35.196633" lon="-84.853027"><ele>239.0</ele><time>2026-07-23T21:06:18Z</time></trkpt>
<trkpt lat="35.196668" lon="-84.853016"><ele>238.4</ele><time>2026-07-23T21:06:21Z</time></trkpt>
<trkpt lat="35.196703" lon="-84.853003"><ele>239.3</ele><time>2026-07-23T21:06:24Z</time></trkpt>
<trkpt lat="35.196734" lon="-84.852984"><ele>239.6</ele><time>2026-07-23T21:06:27Z</time></trkpt>
<trkpt lat="35.19677" lon="-84.852975"><ele>240.8</ele><time>2026-07-23T21:06:30Z</time></trkpt>
<trkpt lat="35.196807" lon="-84.852974"><ele>240.8</ele><time>2026-07-23T21:06:33Z</time></trkpt>
<trkpt lat="35.196834" lon="-84.852982"><ele>240.2</ele><time>2026-07-23T21:06:35Z</time></trkpt>
<trkpt lat="35.196872" lon="-84.852987"><ele>239.9</ele><time>2026-07-23T21:06:38Z</time></trkpt>
<trkpt lat="35.196907" lon="-84.852989"><ele>240.5</ele><time>2026-07-23T21:06:41Z</time></trkpt>
<trkpt lat="35.196945" lon="-84.852992"><ele>240.2</ele><time>2026-07-23T21:06:44Z</time></trkpt>
<trkpt lat="35.196974" lon="-84.852996"><ele>240.2</ele><time>2026-07-23T21:06:46Z</time></trkpt>
<trkpt lat="35.197011" lon="-84.852994"><ele>240.5</ele><time>2026-07-23T21:06:49Z</time></trkpt>
<trkpt lat="35.19705" lon="-84.852981"><ele>240.8</ele><time>2026-07-23T21:06:52Z</time></trkpt>
<trkpt lat="35.197076" lon="-84.852969"><ele>241.4</ele><time>2026-07-23T21:06:54Z</time></trkpt>
<trkpt lat="35.197101" lon="-84.852954"><ele>242.3</ele><time>2026-07-23T21:06:56Z</time></trkpt>
<trkpt lat="35.197125" lon="-84.852938"><ele>242.0</ele><time>2026-07-23T21:06:58Z</time></trkpt>
<trkpt lat="35.197147" lon="-84.852916"><ele>242.3</ele><time>2026-07-23T21:07:00Z</time></trkpt>
<trkpt lat="35.197185" lon="-84.852904"><ele>243.2</ele><time>2026-07-23T21:07:03Z</time></trkpt>
<trkpt lat="35.197223" lon="-84.852891"><ele>243.2</ele><time>2026-07-23T21:07:06Z</time></trkpt>
<trkpt lat="35.19726" lon="-84.852884"><ele>243.2</ele><time>2026-07-23T21:07:09Z</time></trkpt>
<trkpt lat="35.197298" lon="-84.852877"><ele>242.3</ele><time>2026-07-23T21:07:12Z</time></trkpt>
<trkpt lat="35.197335" lon="-84.852872"><ele>242.0</ele><time>2026-07-23T21:07:15Z</time></trkpt>
<trkpt lat="35.197376" lon="-84.852865"><ele>242.0</ele><time>2026-07-23T21:07:18Z</time></trkpt>
<trkpt lat="35.197415" lon="-84.852854"><ele>242.6</ele><time>2026-07-23T21:07:21Z</time></trkpt>
<trkpt lat="35.197443" lon="-84.852852"><ele>242.3</ele><time>2026-07-23T21:07:23Z</time></trkpt>
<trkpt lat="35.197471" lon="-84.852846"><ele>242.0</ele><time>2026-07-23T21:07:25Z</time></trkpt>
<trkpt lat="35.197498" lon="-84.852843"><ele>242.3</ele><time>2026-07-23T21:07:27Z</time></trkpt>
<trkpt lat="35.197538" lon="-84.852832"><ele>241.7</ele><time>2026-07-23T21:07:30Z</time></trkpt>
<trkpt lat="35.197577" lon="-84.852824"><ele>240.5</ele><time>2026-07-23T21:07:33Z</time></trkpt>
<trkpt lat="35.19762" lon="-84.852818"><ele>239.6</ele><time>2026-07-23T21:07:36Z</time></trkpt>
<trkpt lat="35.197649" lon="-84.852807"><ele>239.3</ele><time>2026-07-23T21:07:38Z</time></trkpt>
<trkpt lat="35.197678" lon="-84.852799"><ele>239.3</ele><time>2026-07-23T21:07:40Z</time></trkpt>
<trkpt lat="35.197707" lon="-84.852789"><ele>239.6</ele><time>2026-07-23T21:07:42Z</time></trkpt>
<trkpt lat="35.197734" lon="-84.852782"><ele>239.6</ele><time>2026-07-23T21:07:44Z</time></trkpt>
<trkpt lat="35.197768" lon="-84.852772"><ele>239.3</ele><time>2026-07-23T21:07:47Z</time></trkpt>
<trkpt lat="35.197806" lon="-84.852768"><ele>239.0</ele><time>2026-07-23T21:07:50Z</time></trkpt>
<trkpt lat="35.197845" lon="-84.85276"><ele>239.6</ele><time>2026-07-23T21:07:53Z</time></trkpt>
<trkpt lat="35.197884" lon="-84.852754"><ele>240.2</ele><time>2026-07-23T21:07:56Z</time></trkpt>
<trkpt lat="35.197913" lon="-84.852749"><ele>240.5</ele><time>2026-07-23T21:07:58Z</time></trkpt>
<trkpt lat="35.19794" lon="-84.852752"><ele>240.8</ele><time>2026-07-23T21:08:00Z</time></trkpt>
<trkpt lat="35.197968" lon="-84.85276"><ele>239.9</ele><time>2026-07-23T21:08:02Z</time></trkpt>
<trkpt lat="35.198008" lon="-84.852768"><ele>238.7</ele><time>2026-07-23T21:08:05Z</time></trkpt>
<trkpt lat="35.198044" lon="-84.852778"><ele>239.6</ele><time>2026-07-23T21:08:08Z</time></trkpt>
<trkpt lat="35.198084" lon="-84.852787"><ele>240.2</ele><time>2026-07-23T21:08:11Z</time></trkpt>
<trkpt lat="35.198122" lon="-84.852793"><ele>239.9</ele><time>2026-07-23T21:08:14Z</time></trkpt>
<trkpt lat="35.198151" lon="-84.852796"><ele>239.9</ele><time>2026-07-23T21:08:17Z</time></trkpt>
<trkpt lat="35.198186" lon="-84.852796"><ele>239.3</ele><time>2026-07-23T21:08:20Z</time></trkpt>
<trkpt lat="35.198223" lon="-84.852782"><ele>239.3</ele><time>2026-07-23T21:08:23Z</time></trkpt>
<trkpt lat="35.198247" lon="-84.852762"><ele>239.3</ele><time>2026-07-23T21:08:25Z</time></trkpt>
<trkpt lat="35.198272" lon="-84.852745"><ele>239.3</ele><time>2026-07-23T21:08:27Z</time></trkpt>
<trkpt lat="35.198304" lon="-84.852725"><ele>239.3</ele><time>2026-07-23T21:08:30Z</time></trkpt>
<trkpt lat="35.198334" lon="-84.852706"><ele>239.0</ele><time>2026-07-23T21:08:33Z</time></trkpt>
<trkpt lat="35.19836" lon="-84.852693"><ele>239.6</ele><time>2026-07-23T21:08:35Z</time></trkpt>
<trkpt lat="35.198383" lon="-84.852671"><ele>239.9</ele><time>2026-07-23T21:08:37Z</time></trkpt>
<trkpt lat="35.198406" lon="-84.852652"><ele>239.9</ele><time>2026-07-23T21:08:39Z</time></trkpt>
<trkpt lat="35.198434" lon="-84.852622"><ele>240.8</ele><time>2026-07-23T21:08:42Z</time></trkpt>
<trkpt lat="35.198461" lon="-84.852593"><ele>241.4</ele><time>2026-07-23T21:08:45Z</time></trkpt>
<trkpt lat="35.19849" lon="-84.852563"><ele>241.4</ele><time>2026-07-23T21:08:48Z</time></trkpt>
<trkpt lat="35.198518" lon="-84.85253"><ele>240.5</ele><time>2026-07-23T21:08:51Z</time></trkpt>
<trkpt lat="35.198542" lon="-84.852497"><ele>240.2</ele><time>2026-07-23T21:08:54Z</time></trkpt>
<trkpt lat="35.198568" lon="-84.85247"><ele>240.2</ele><time>2026-07-23T21:08:57Z</time></trkpt>
<trkpt lat="35.198597" lon="-84.852438"><ele>240.2</ele><time>2026-07-23T21:09:00Z</time></trkpt>
<trkpt lat="35.198628" lon="-84.852403"><ele>240.8</ele><time>2026-07-23T21:09:03Z</time></trkpt>
<trkpt lat="35.198657" lon="-84.852376"><ele>240.5</ele><time>2026-07-23T21:09:06Z</time></trkpt>
<trkpt lat="35.198684" lon="-84.85235"><ele>240.5</ele><time>2026-07-23T21:09:09Z</time></trkpt>
<trkpt lat="35.198714" lon="-84.85232"><ele>240.2</ele><time>2026-07-23T21:09:12Z</time></trkpt>
<trkpt lat="35.198746" lon="-84.85229"><ele>239.9</ele><time>2026-07-23T21:09:15Z</time></trkpt>
<trkpt lat="35.198775" lon="-84.852264"><ele>240.2</ele><time>2026-07-23T21:09:18Z</time></trkpt>
<trkpt lat="35.198805" lon="-84.852249"><ele>240.8</ele><time>2026-07-23T21:09:21Z</time></trkpt>
<trkpt lat="35.198843" lon="-84.852232"><ele>239.9</ele><time>2026-07-23T21:09:24Z</time></trkpt>
<trkpt lat="35.19888" lon="-84.85221"><ele>239.9</ele><time>2026-07-23T21:09:27Z</time></trkpt>
<trkpt lat="35.198914" lon="-84.852191"><ele>240.2</ele><time>2026-07-23T21:09:30Z</time></trkpt>
<trkpt lat="35.198946" lon="-84.852177"><ele>239.9</ele><time>2026-07-23T21:09:33Z</time></trkpt>
<trkpt lat="35.198982" lon="-84.852158"><ele>239.0</ele><time>2026-07-23T21:09:36Z</time></trkpt>
<trkpt lat="35.199015" lon="-84.852134"><ele>239.6</ele><time>2026-07-23T21:09:39Z</time></trkpt>
<trkpt lat="35.199045" lon="-84.852112"><ele>240.2</ele><time>2026-07-23T21:09:42Z</time></trkpt>
<trkpt lat="35.199078" lon="-84.852091"><ele>240.5</ele><time>2026-07-23T21:09:45Z</time></trkpt>
<trkpt lat="35.199116" lon="-84.852078"><ele>239.3</ele><time>2026-07-23T21:09:48Z</time></trkpt>
<trkpt lat="35.199155" lon="-84.852066"><ele>238.4</ele><time>2026-07-23T21:09:51Z</time></trkpt>
<trkpt lat="35.199189" lon="-84.852049"><ele>239.9</ele><time>2026-07-23T21:09:54Z</time></trkpt>
<trkpt lat="35.199221" lon="-84.852026"><ele>240.2</ele><time>2026-07-23T21:09:57Z</time></trkpt>
<trkpt lat="35.199246" lon="-84.852012"><ele>240.2</ele><time>2026-07-23T21:09:59Z</time></trkpt>
<trkpt lat="35.199282" lon="-84.851995"><ele>239.0</ele><time>2026-07-23T21:10:02Z</time></trkpt>
<trkpt lat="35.199311" lon="-84.851974"><ele>239.3</ele><time>2026-07-23T21:10:05Z</time></trkpt>
<trkpt lat="35.199342" lon="-84.851954"><ele>238.7</ele><time>2026-07-23T21:10:08Z</time></trkpt>
<trkpt lat="35.199375" lon="-84.851925"><ele>239.3</ele><time>2026-07-23T21:10:11Z</time></trkpt>
<trkpt lat="35.199403" lon="-84.851893"><ele>239.3</ele><time>2026-07-23T21:10:14Z</time></trkpt>
<trkpt lat="35.199434" lon="-84.851869"><ele>240.2</ele><time>2026-07-23T21:10:17Z</time></trkpt>
<trkpt lat="35.199457" lon="-84.851849"><ele>240.2</ele><time>2026-07-23T21:10:19Z</time></trkpt>
<trkpt lat="35.199496" lon="-84.851839"><ele>239.3</ele><time>2026-07-23T21:10:22Z</time></trkpt>
<trkpt lat="35.199523" lon="-84.851831"><ele>240.2</ele><time>2026-07-23T21:10:24Z</time></trkpt>
<trkpt lat="35.199561" lon="-84.851823"><ele>241.7</ele><time>2026-07-23T21:10:27Z</time></trkpt>
<trkpt lat="35.19959" lon="-84.851827"><ele>241.7</ele><time>2026-07-23T21:10:29Z</time></trkpt>
<trkpt lat="35.19962" lon="-84.851837"><ele>241.1</ele><time>2026-07-23T21:10:31Z</time></trkpt>
<trkpt lat="35.199647" lon="-84.851857"><ele>240.8</ele><time>2026-07-23T21:10:33Z</time></trkpt>
<trkpt lat="35.199673" lon="-84.851872"><ele>240.2</ele><time>2026-07-23T21:10:35Z</time></trkpt>
<trkpt lat="35.199697" lon="-84.85189"><ele>239.6</ele><time>2026-07-23T21:10:37Z</time></trkpt>
<trkpt lat="35.199721" lon="-84.851912"><ele>239.0</ele><time>2026-07-23T21:10:39Z</time></trkpt>
<trkpt lat="35.199743" lon="-84.851933"><ele>238.4</ele><time>2026-07-23T21:10:41Z</time></trkpt>
<trkpt lat="35.199773" lon="-84.851956"><ele>237.7</ele><time>2026-07-23T21:10:44Z</time></trkpt>
<trkpt lat="35.199801" lon="-84.851985"><ele>237.1</ele><time>2026-07-23T21:10:47Z</time></trkpt>
<trkpt lat="35.199833" lon="-84.85201"><ele>237.1</ele><time>2026-07-23T21:10:50Z</time></trkpt>
<trkpt lat="35.199855" lon="-84.852031"><ele>237.1</ele><time>2026-07-23T21:10:52Z</time></trkpt>
<trkpt lat="35.199887" lon="-84.852057"><ele>236.8</ele><time>2026-07-23T21:10:55Z</time></trkpt>
<trkpt lat="35.199921" lon="-84.852083"><ele>236.8</ele><time>2026-07-23T21:10:58Z</time></trkpt>
<trkpt lat="35.199953" lon="-84.852109"><ele>237.7</ele><time>2026-07-23T21:11:01Z</time></trkpt>
<trkpt lat="35.199983" lon="-84.852133"><ele>238.4</ele><time>2026-07-23T21:11:04Z</time></trkpt>
<trkpt lat="35.20001" lon="-84.852159"><ele>237.7</ele><time>2026-07-23T21:11:07Z</time></trkpt>
<trkpt lat="35.200033" lon="-84.852182"><ele>236.8</ele><time>2026-07-23T21:11:09Z</time></trkpt>
<trkpt lat="35.200053" lon="-84.852207"><ele>237.1</ele><time>2026-07-23T21:11:11Z</time></trkpt>
<trkpt lat="35.200074" lon="-84.852239"><ele>237.1</ele><time>2026-07-23T21:11:13Z</time></trkpt>
<trkpt lat="35.200095" lon="-84.852265"><ele>236.8</ele><time>2026-07-23T21:11:15Z</time></trkpt>
<trkpt lat="35.200124" lon="-84.852299"><ele>236.8</ele><time>2026-07-23T21:11:18Z</time></trkpt>
<trkpt lat="35.200156" lon="-84.852327"><ele>236.5</ele><time>2026-07-23T21:11:21Z</time></trkpt>
<trkpt lat="35.200175" lon="-84.852352"><ele>235.9</ele><time>2026-07-23T21:11:23Z</time></trkpt>
<trkpt lat="35.200197" lon="-84.852373"><ele>235.9</ele><time>2026-07-23T21:11:25Z</time></trkpt>
<trkpt lat="35.200226" lon="-84.852408"><ele>236.2</ele><time>2026-07-23T21:11:28Z</time></trkpt>
<trkpt lat="35.200248" lon="-84.85243"><ele>235.9</ele><time>2026-07-23T21:11:30Z</time></trkpt>
<trkpt lat="35.200282" lon="-84.852457"><ele>236.5</ele><time>2026-07-23T21:11:33Z</time></trkpt>
<trkpt lat="35.200308" lon="-84.852473"><ele>236.8</ele><time>2026-07-23T21:11:35Z</time></trkpt>
<trkpt lat="35.200342" lon="-84.852494"><ele>237.1</ele><time>2026-07-23T21:11:38Z</time></trkpt>
<trkpt lat="35.200374" lon="-84.852519"><ele>236.8</ele><time>2026-07-23T21:11:41Z</time></trkpt>
<trkpt lat="35.200396" lon="-84.85254"><ele>236.8</ele><time>2026-07-23T21:11:43Z</time></trkpt>
<trkpt lat="35.20043" lon="-84.852566"><ele>237.4</ele><time>2026-07-23T21:11:46Z</time></trkpt>
<trkpt lat="35.200453" lon="-84.852585"><ele>237.4</ele><time>2026-07-23T21:11:48Z</time></trkpt>
<trkpt lat="35.200474" lon="-84.852612"><ele>237.7</ele><time>2026-07-23T21:11:50Z</time></trkpt>
<trkpt lat="35.200498" lon="-84.85265"><ele>238.0</ele><time>2026-07-23T21:11:53Z</time></trkpt>
<trkpt lat="35.20052" lon="-84.852691"><ele>239.0</ele><time>2026-07-23T21:11:56Z</time></trkpt>
<trkpt lat="35.20054" lon="-84.852727"><ele>238.4</ele><time>2026-07-23T21:11:59Z</time></trkpt>
<trkpt lat="35.200556" lon="-84.852774"><ele>238.0</ele><time>2026-07-23T21:12:02Z</time></trkpt>
<trkpt lat="35.200562" lon="-84.852812"><ele>238.4</ele><time>2026-07-23T21:12:04Z</time></trkpt>
<trkpt lat="35.200567" lon="-84.852845"><ele>239.3</ele><time>2026-07-23T21:12:06Z</time></trkpt>
<trkpt lat="35.200569" lon="-84.852882"><ele>239.3</ele><time>2026-07-23T21:12:08Z</time></trkpt>
<trkpt lat="35.20057" lon="-84.852931"><ele>238.4</ele><time>2026-07-23T21:12:11Z</time></trkpt>
<trkpt lat="35.200566" lon="-84.852975"><ele>238.0</ele><time>2026-07-23T21:12:14Z</time></trkpt>
<trkpt lat="35.20055" lon="-84.85302"><ele>238.0</ele><time>2026-07-23T21:12:17Z</time></trkpt>
<trkpt lat="35.20053" lon="-84.853046"><ele>238.0</ele><time>2026-07-23T21:12:19Z</time></trkpt>
<trkpt lat="35.200511" lon="-84.853071"><ele>238.0</ele><time>2026-07-23T21:12:21Z</time></trkpt>
<trkpt lat="35.20049" lon="-84.853094"><ele>237.7</ele><time>2026-07-23T21:12:23Z</time></trkpt>
<trkpt lat="35.200475" lon="-84.853124"><ele>237.7</ele><time>2026-07-23T21:12:25Z</time></trkpt>
<trkpt lat="35.200461" lon="-84.853164"><ele>236.5</ele><time>2026-07-23T21:12:27Z</time></trkpt>
<trkpt lat="35.200453" lon="-84.853201"><ele>236.5</ele><time>2026-07-23T21:12:29Z</time></trkpt>
<trkpt lat="35.200445" lon="-84.853247"><ele>237.1</ele><time>2026-07-23T21:12:32Z</time></trkpt>
<trkpt lat="35.200434" lon="-84.853289"><ele>236.2</ele><time>2026-07-23T21:12:35Z</time></trkpt>
<trkpt lat="35.200421" lon="-84.853328"><ele>236.5</ele><time>2026-07-23T21:12:38Z</time></trkpt>
<trkpt lat="35.200411" lon="-84.853362"><ele>236.2</ele><time>2026-07-23T21:12:40Z</time></trkpt>
<trkpt lat="35.200401" lon="-84.85341"><ele>236.5</ele><time>2026-07-23T21:12:43Z</time></trkpt>
<trkpt lat="35.200391" lon="-84.853444"><ele>236.8</ele><time>2026-07-23T21:12:45Z</time></trkpt>
<trkpt lat="35.200377" lon="-84.853497"><ele>237.1</ele><time>2026-07-23T21:12:48Z</time></trkpt>
<trkpt lat="35.200357" lon="-84.853534"><ele>237.1</ele><time>2026-07-23T21:12:51Z</time></trkpt>
<trkpt lat="35.200347" lon="-84.853571"><ele>238.0</ele><time>2026-07-23T21:12:54Z</time></trkpt>
<trkpt lat="35.200335" lon="-84.853618"><ele>238.0</ele><time>2026-07-23T21:12:57Z</time></trkpt>
<trkpt lat="35.200324" lon="-84.853664"><ele>239.0</ele><time>2026-07-23T21:13:00Z</time></trkpt>
<trkpt lat="35.200316" lon="-84.853696"><ele>238.7</ele><time>2026-07-23T21:13:02Z</time></trkpt>
<trkpt lat="35.200309" lon="-84.85373"><ele>239.3</ele><time>2026-07-23T21:13:04Z</time></trkpt>
<trkpt lat="35.200297" lon="-84.853775"><ele>239.3</ele><time>2026-07-23T21:13:07Z</time></trkpt>
<trkpt lat="35.20028" lon="-84.853814"><ele>239.0</ele><time>2026-07-23T21:13:10Z</time></trkpt>
<trkpt lat="35.200258" lon="-84.853855"><ele>238.4</ele><time>2026-07-23T21:13:13Z</time></trkpt>
<trkpt lat="35.200242" lon="-84.853899"><ele>238.0</ele><time>2026-07-23T21:13:16Z</time></trkpt>
<trkpt lat="35.200226" lon="-84.853926"><ele>237.7</ele><time>2026-07-23T21:13:18Z</time></trkpt>
<trkpt lat="35.200201" lon="-84.853961"><ele>237.7</ele><time>2026-07-23T21:13:21Z</time></trkpt>
<trkpt lat="35.200175" lon="-84.853997"><ele>237.1</ele><time>2026-07-23T21:13:24Z</time></trkpt>
<trkpt lat="35.20015" lon="-84.854035"><ele>237.4</ele><time>2026-07-23T21:13:27Z</time></trkpt>
<trkpt lat="35.20012" lon="-84.85407"><ele>237.4</ele><time>2026-07-23T21:13:30Z</time></trkpt>
<trkpt lat="35.200092" lon="-84.854098"><ele>237.4</ele><time>2026-07-23T21:13:33Z</time></trkpt>
<trkpt lat="35.20006" lon="-84.854127"><ele>237.7</ele><time>2026-07-23T21:13:36Z</time></trkpt>
<trkpt lat="35.20003" lon="-84.854155"><ele>237.7</ele><time>2026-07-23T21:13:39Z</time></trkpt>
<trkpt lat="35.200008" lon="-84.854177"><ele>238.0</ele><time>2026-07-23T21:13:41Z</time></trkpt>
<trkpt lat="35.199978" lon="-84.854206"><ele>238.4</ele><time>2026-07-23T21:13:44Z</time></trkpt>
<trkpt lat="35.199998" lon="-84.854235"><ele>237.4</ele><time>2026-07-23T21:13:48Z</time></trkpt>
<trkpt lat="35.20002" lon="-84.854208"><ele>236.8</ele><time>2026-07-23T21:13:50Z</time></trkpt>
<trkpt lat="35.200038" lon="-84.854179"><ele>237.1</ele><time>2026-07-23T21:13:52Z</time></trkpt>
<trkpt lat="35.200062" lon="-84.854153"><ele>237.4</ele><time>2026-07-23T21:13:54Z</time></trkpt>
<trkpt lat="35.200091" lon="-84.85412"><ele>237.1</ele><time>2026-07-23T21:13:57Z</time></trkpt>
<trkpt lat="35.200117" lon="-84.854093"><ele>237.4</ele><time>2026-07-23T21:14:00Z</time></trkpt>
<trkpt lat="35.200143" lon="-84.854061"><ele>237.7</ele><time>2026-07-23T21:14:03Z</time></trkpt>
<trkpt lat="35.20017" lon="-84.854026"><ele>237.4</ele><time>2026-07-23T21:14:06Z</time></trkpt>
<trkpt lat="35.200191" lon="-84.854002"><ele>237.4</ele><time>2026-07-23T21:14:08Z</time></trkpt>
<trkpt lat="35.200215" lon="-84.853983"><ele>237.7</ele><time>2026-07-23T21:14:10Z</time></trkpt>
<trkpt lat="35.200244" lon="-84.853977"><ele>237.7</ele><time>2026-07-23T21:14:12Z</time></trkpt>
<trkpt lat="35.200282" lon="-84.853985"><ele>237.7</ele><time>2026-07-23T21:14:15Z</time></trkpt>
<trkpt lat="35.200314" lon="-84.854001"><ele>238.0</ele><time>2026-07-23T21:14:18Z</time></trkpt>
<trkpt lat="35.200346" lon="-84.854021"><ele>238.0</ele><time>2026-07-23T21:14:21Z</time></trkpt>
<trkpt lat="35.200371" lon="-84.854036"><ele>238.0</ele><time>2026-07-23T21:14:23Z</time></trkpt>
<trkpt lat="35.200397" lon="-84.854052"><ele>238.4</ele><time>2026-07-23T21:14:25Z</time></trkpt>
<trkpt lat="35.200428" lon="-84.854081"><ele>238.7</ele><time>2026-07-23T21:14:28Z</time></trkpt>
<trkpt lat="35.200447" lon="-84.854106"><ele>238.7</ele><time>2026-07-23T21:14:30Z</time></trkpt>
<trkpt lat="35.200469" lon="-84.854137"><ele>238.7</ele><time>2026-07-23T21:14:33Z</time></trkpt>
<trkpt lat="35.200494" lon="-84.854171"><ele>238.4</ele><time>2026-07-23T21:14:36Z</time></trkpt>
<trkpt lat="35.200512" lon="-84.854212"><ele>238.7</ele><time>2026-07-23T21:14:39Z</time></trkpt>
<trkpt lat="35.200526" lon="-84.854242"><ele>238.7</ele><time>2026-07-23T21:14:41Z</time></trkpt>
<trkpt lat="35.200553" lon="-84.854279"><ele>239.3</ele><time>2026-07-23T21:14:44Z</time></trkpt>
<trkpt lat="35.200569" lon="-84.854307"><ele>239.3</ele><time>2026-07-23T21:14:46Z</time></trkpt>
<trkpt lat="35.200591" lon="-84.854344"><ele>239.3</ele><time>2026-07-23T21:14:49Z</time></trkpt>
<trkpt lat="35.200617" lon="-84.854378"><ele>238.4</ele><time>2026-07-23T21:14:52Z</time></trkpt>
<trkpt lat="35.200638" lon="-84.854418"><ele>238.0</ele><time>2026-07-23T21:14:55Z</time></trkpt>
<trkpt lat="35.200657" lon="-84.85446"><ele>238.7</ele><time>2026-07-23T21:14:58Z</time></trkpt>
<trkpt lat="35.200673" lon="-84.854488"><ele>239.3</ele><time>2026-07-23T21:15:00Z</time></trkpt>
<trkpt lat="35.200687" lon="-84.854518"><ele>239.3</ele><time>2026-07-23T21:15:02Z</time></trkpt>
<trkpt lat="35.200705" lon="-84.854561"><ele>239.3</ele><time>2026-07-23T21:15:05Z</time></trkpt>
<trkpt lat="35.200725" lon="-84.8546"><ele>239.3</ele><time>2026-07-23T21:15:08Z</time></trkpt>
<trkpt lat="35.200742" lon="-84.854639"><ele>238.7</ele><time>2026-07-23T21:15:11Z</time></trkpt>
<trkpt lat="35.200764" lon="-84.854679"><ele>238.0</ele><time>2026-07-23T21:15:14Z</time></trkpt>
<trkpt lat="35.200783" lon="-84.854721"><ele>238.7</ele><time>2026-07-23T21:15:17Z</time></trkpt>
<trkpt lat="35.200801" lon="-84.854761"><ele>239.3</ele><time>2026-07-23T21:15:20Z</time></trkpt>
<trkpt lat="35.200821" lon="-84.854803"><ele>239.0</ele><time>2026-07-23T21:15:23Z</time></trkpt>
<trkpt lat="35.200831" lon="-84.854835"><ele>238.0</ele><time>2026-07-23T21:15:25Z</time></trkpt>
<trkpt lat="35.200838" lon="-84.854882"><ele>237.7</ele><time>2026-07-23T21:15:28Z</time></trkpt>
<trkpt lat="35.200847" lon="-84.854926"><ele>238.0</ele><time>2026-07-23T21:15:31Z</time></trkpt>
<trkpt lat="35.200859" lon="-84.854972"><ele>238.7</ele><time>2026-07-23T21:15:34Z</time></trkpt>
<trkpt lat="35.200873" lon="-84.85502"><ele>239.0</ele><time>2026-07-23T21:15:37Z</time></trkpt>
<trkpt lat="35.200885" lon="-84.855052"><ele>239.0</ele><time>2026-07-23T21:15:39Z</time></trkpt>
<trkpt lat="35.200895" lon="-84.855085"><ele>238.7</ele><time>2026-07-23T21:15:41Z</time></trkpt>
<trkpt lat="35.200907" lon="-84.855117"><ele>239.0</ele><time>2026-07-23T21:15:43Z</time></trkpt>
<trkpt lat="35.200903" lon="-84.855151"><ele>238.7</ele><time>2026-07-23T21:15:46Z</time></trkpt>
<trkpt lat="35.200877" lon="-84.855162"><ele>238.4</ele><time>2026-07-23T21:15:48Z</time></trkpt>
<trkpt lat="35.200859" lon="-84.855195"><ele>237.7</ele><time>2026-07-23T21:15:51Z</time></trkpt>
<trkpt lat="35.200894" lon="-84.85521"><ele>236.8</ele><time>2026-07-23T21:15:54Z</time></trkpt>
<trkpt lat="35.200927" lon="-84.855204"><ele>236.8</ele><time>2026-07-23T21:15:57Z</time></trkpt>
<trkpt lat="35.200961" lon="-84.855213"><ele>237.4</ele><time>2026-07-23T21:16:00Z</time></trkpt>
<trkpt lat="35.200993" lon="-84.855233"><ele>238.0</ele><time>2026-07-23T21:16:03Z</time></trkpt>
<trkpt lat="35.201021" lon="-84.855268"><ele>238.0</ele><time>2026-07-23T21:16:06Z</time></trkpt>
<trkpt lat="35.201045" lon="-84.855303"><ele>238.0</ele><time>2026-07-23T21:16:09Z</time></trkpt>
<trkpt lat="35.201065" lon="-84.85534"><ele>238.4</ele><time>2026-07-23T21:16:12Z</time></trkpt>
<trkpt lat="35.201086" lon="-84.855379"><ele>238.4</ele><time>2026-07-23T21:16:15Z</time></trkpt>
<trkpt lat="35.201101" lon="-84.855409"><ele>238.7</ele><time>2026-07-23T21:16:17Z</time></trkpt>
<trkpt lat="35.201118" lon="-84.855437"><ele>239.0</ele><time>2026-07-23T21:16:19Z</time></trkpt>
<trkpt lat="35.201134" lon="-84.855467"><ele>239.0</ele><time>2026-07-23T21:16:21Z</time></trkpt>
<trkpt lat="35.201155" lon="-84.855508"><ele>239.3</ele><time>2026-07-23T21:16:24Z</time></trkpt>
<trkpt lat="35.201175" lon="-84.855546"><ele>238.4</ele><time>2026-07-23T21:16:27Z</time></trkpt>
<trkpt lat="35.201191" lon="-84.855584"><ele>237.7</ele><time>2026-07-23T21:16:30Z</time></trkpt>
<trkpt lat="35.201201" lon="-84.855616"><ele>238.0</ele><time>2026-07-23T21:16:32Z</time></trkpt>
<trkpt lat="35.201221" lon="-84.855661"><ele>238.4</ele><time>2026-07-23T21:16:35Z</time></trkpt>
<trkpt lat="35.201234" lon="-84.855691"><ele>238.7</ele><time>2026-07-23T21:16:37Z</time></trkpt>
<trkpt lat="35.20125" lon="-84.855728"><ele>239.0</ele><time>2026-07-23T21:16:40Z</time></trkpt>
<trkpt lat="35.201268" lon="-84.855763"><ele>237.7</ele><time>2026-07-23T21:16:43Z</time></trkpt>
<trkpt lat="35.201286" lon="-84.855806"><ele>238.0</ele><time>2026-07-23T21:16:46Z</time></trkpt>
<trkpt lat="35.2013" lon="-84.855835"><ele>238.4</ele><time>2026-07-23T21:16:48Z</time></trkpt>
<trkpt lat="35.201309" lon="-84.855869"><ele>238.4</ele><time>2026-07-23T21:16:50Z</time></trkpt>
<trkpt lat="35.201319" lon="-84.855901"><ele>238.7</ele><time>2026-07-23T21:16:52Z</time></trkpt>
<trkpt lat="35.201337" lon="-84.855944"><ele>238.0</ele><time>2026-07-23T21:16:55Z</time></trkpt>
<trkpt lat="35.201357" lon="-84.855986"><ele>237.1</ele><time>2026-07-23T21:16:58Z</time></trkpt>
<trkpt lat="35.201372" lon="-84.856028"><ele>236.5</ele><time>2026-07-23T21:17:01Z</time></trkpt>
<trkpt lat="35.201386" lon="-84.856071"><ele>236.8</ele><time>2026-07-23T21:17:04Z</time></trkpt>
<trkpt lat="35.201397" lon="-84.856103"><ele>237.4</ele><time>2026-07-23T21:17:06Z</time></trkpt>
<trkpt lat="35.201409" lon="-84.856134"><ele>237.7</ele><time>2026-07-23T21:17:08Z</time></trkpt>
<trkpt lat="35.201425" lon="-84.856178"><ele>238.4</ele><time>2026-07-23T21:17:11Z</time></trkpt>
<trkpt lat="35.201441" lon="-84.856211"><ele>238.4</ele><time>2026-07-23T21:17:14Z</time></trkpt>
<trkpt lat="35.201453" lon="-84.856253"><ele>238.0</ele><time>2026-07-23T21:17:17Z</time></trkpt>
<trkpt lat="35.201462" lon="-84.856285"><ele>238.0</ele><time>2026-07-23T21:17:19Z</time></trkpt>
<trkpt lat="35.201471" lon="-84.856318"><ele>238.4</ele><time>2026-07-23T21:17:21Z</time></trkpt>
<trkpt lat="35.201481" lon="-84.856351"><ele>238.7</ele><time>2026-07-23T21:17:23Z</time></trkpt>
<trkpt lat="35.201496" lon="-84.856389"><ele>238.7</ele><time>2026-07-23T21:17:26Z</time></trkpt>
<trkpt lat="35.201506" lon="-84.856427"><ele>238.0</ele><time>2026-07-23T21:17:29Z</time></trkpt>
<trkpt lat="35.201519" lon="-84.856471"><ele>238.0</ele><time>2026-07-23T21:17:32Z</time></trkpt>
<trkpt lat="35.201525" lon="-84.856503"><ele>238.7</ele><time>2026-07-23T21:17:34Z</time></trkpt>
<trkpt lat="35.201536" lon="-84.856549"><ele>239.0</ele><time>2026-07-23T21:17:37Z</time></trkpt>
<trkpt lat="35.201549" lon="-84.856591"><ele>238.7</ele><time>2026-07-23T21:17:40Z</time></trkpt>
<trkpt lat="35.201552" lon="-84.856627"><ele>238.7</ele><time>2026-07-23T21:17:42Z</time></trkpt>
<trkpt lat="35.201556" lon="-84.85666"><ele>237.7</ele><time>2026-07-23T21:17:44Z</time></trkpt>
<trkpt lat="35.201578" lon="-84.856702"><ele>236.5</ele><time>2026-07-23T21:17:47Z</time></trkpt>
<trkpt lat="35.201592" lon="-84.856732"><ele>237.1</ele><time>2026-07-23T21:17:49Z</time></trkpt>
<trkpt lat="35.201607" lon="-84.85676"><ele>236.8</ele><time>2026-07-23T21:17:51Z</time></trkpt>
<trkpt lat="35.201618" lon="-84.856791"><ele>237.1</ele><time>2026-07-23T21:17:53Z</time></trkpt>
<trkpt lat="35.201634" lon="-84.85683"><ele>237.7</ele><time>2026-07-23T21:17:56Z</time></trkpt>
<trkpt lat="35.201647" lon="-84.856866"><ele>237.7</ele><time>2026-07-23T21:17:59Z</time></trkpt>
<trkpt lat="35.201658" lon="-84.856911"><ele>238.4</ele><time>2026-07-23T21:18:02Z</time></trkpt>
<trkpt lat="35.201671" lon="-84.856953"><ele>239.6</ele><time>2026-07-23T21:18:05Z</time></trkpt>
<trkpt lat="35.201679" lon="-84.856995"><ele>239.3</ele><time>2026-07-23T21:18:08Z</time></trkpt>
<trkpt lat="35.201686" lon="-84.857043"><ele>239.0</ele><time>2026-07-23T21:18:11Z</time></trkpt>
<trkpt lat="35.201696" lon="-84.857084"><ele>238.7</ele><time>2026-07-23T21:18:14Z</time></trkpt>
<trkpt lat="35.201706" lon="-84.857131"><ele>239.3</ele><time>2026-07-23T21:18:17Z</time></trkpt>
<trkpt lat="35.201715" lon="-84.857176"><ele>239.0</ele><time>2026-07-23T21:18:20Z</time></trkpt>
<trkpt lat="35.201724" lon="-84.857224"><ele>239.0</ele><time>2026-07-23T21:18:23Z</time></trkpt>
<trkpt lat="35.20173" lon="-84.857268"><ele>239.3</ele><time>2026-07-23T21:18:26Z</time></trkpt>
<trkpt lat="35.201736" lon="-84.857313"><ele>239.3</ele><time>2026-07-23T21:18:29Z</time></trkpt>
<trkpt lat="35.201742" lon="-84.857357"><ele>239.3</ele><time>2026-07-23T21:18:32Z</time></trkpt>
<trkpt lat="35.201751" lon="-84.857402"><ele>240.8</ele><time>2026-07-23T21:18:35Z</time></trkpt>
<trkpt lat="35.201754" lon="-84.857437"><ele>240.8</ele><time>2026-07-23T21:18:37Z</time></trkpt>
<trkpt lat="35.201762" lon="-84.857479"><ele>240.2</ele><time>2026-07-23T21:18:40Z</time></trkpt>
<trkpt lat="35.201768" lon="-84.857523"><ele>239.6</ele><time>2026-07-23T21:18:43Z</time></trkpt>
<trkpt lat="35.201776" lon="-84.857568"><ele>239.9</ele><time>2026-07-23T21:18:46Z</time></trkpt>
<trkpt lat="35.201774" lon="-84.857603"><ele>238.4</ele><time>2026-07-23T21:18:48Z</time></trkpt>
<trkpt lat="35.201758" lon="-84.857639"><ele>238.0</ele><time>2026-07-23T21:18:50Z</time></trkpt>
<trkpt lat="35.201745" lon="-84.857678"><ele>239.0</ele><time>2026-07-23T21:18:52Z</time></trkpt>
<trkpt lat="35.201731" lon="-84.857713"><ele>239.3</ele><time>2026-07-23T21:18:54Z</time></trkpt>
<trkpt lat="35.201712" lon="-84.857738"><ele>239.0</ele><time>2026-07-23T21:18:56Z</time></trkpt>
<trkpt lat="35.201682" lon="-84.857772"><ele>239.3</ele><time>2026-07-23T21:18:59Z</time></trkpt>
<trkpt lat="35.201652" lon="-84.857802"><ele>239.0</ele><time>2026-07-23T21:19:02Z</time></trkpt>
<trkpt lat="35.20163" lon="-84.857824"><ele>239.3</ele><time>2026-07-23T21:19:04Z</time></trkpt>
<trkpt lat="35.201598" lon="-84.857858"><ele>239.6</ele><time>2026-07-23T21:19:07Z</time></trkpt>
<trkpt lat="35.201576" lon="-84.857878"><ele>239.0</ele><time>2026-07-23T21:19:09Z</time></trkpt>
<trkpt lat="35.201554" lon="-84.8579"><ele>238.7</ele><time>2026-07-23T21:19:11Z</time></trkpt>
<trkpt lat="35.201529" lon="-84.857916"><ele>238.0</ele><time>2026-07-23T21:19:13Z</time></trkpt>
<trkpt lat="35.201489" lon="-84.857921"><ele>237.7</ele><time>2026-07-23T21:19:16Z</time></trkpt>
<trkpt lat="35.201454" lon="-84.857935"><ele>238.0</ele><time>2026-07-23T21:19:19Z</time></trkpt>
<trkpt lat="35.201422" lon="-84.857965"><ele>238.0</ele><time>2026-07-23T21:19:22Z</time></trkpt>
<trkpt lat="35.201392" lon="-84.857977"><ele>238.4</ele><time>2026-07-23T21:19:24Z</time></trkpt>
<trkpt lat="35.201362" lon="-84.857976"><ele>238.7</ele><time>2026-07-23T21:19:26Z</time></trkpt>
<trkpt lat="35.201323" lon="-84.857975"><ele>239.0</ele><time>2026-07-23T21:19:29Z</time></trkpt>
<trkpt lat="35.201295" lon="-84.857971"><ele>239.6</ele><time>2026-07-23T21:19:31Z</time></trkpt>
<trkpt lat="35.201258" lon="-84.857956"><ele>239.3</ele><time>2026-07-23T21:19:34Z</time></trkpt>
<trkpt lat="35.20122" lon="-84.857948"><ele>239.9</ele><time>2026-07-23T21:19:37Z</time></trkpt>
<trkpt lat="35.201182" lon="-84.857956"><ele>241.1</ele><time>2026-07-23T21:19:40Z</time></trkpt>
<trkpt lat="35.201146" lon="-84.857963"><ele>241.4</ele><time>2026-07-23T21:19:43Z</time></trkpt>
<trkpt lat="35.20111" lon="-84.85797"><ele>240.8</ele><time>2026-07-23T21:19:46Z</time></trkpt>
<trkpt lat="35.201077" lon="-84.857973"><ele>240.8</ele><time>2026-07-23T21:19:49Z</time></trkpt>
<trkpt lat="35.201043" lon="-84.857976"><ele>242.6</ele><time>2026-07-23T21:19:52Z</time></trkpt>
<trkpt lat="35.201005" lon="-84.85796"><ele>241.1</ele><time>2026-07-23T21:19:55Z</time></trkpt>
<trkpt lat="35.200975" lon="-84.857965"><ele>241.1</ele><time>2026-07-23T21:19:57Z</time></trkpt>
<trkpt lat="35.200948" lon="-84.857984"><ele>240.8</ele><time>2026-07-23T21:19:59Z</time></trkpt>
<trkpt lat="35.200918" lon="-84.858016"><ele>240.5</ele><time>2026-07-23T21:20:02Z</time></trkpt>
<trkpt lat="35.200899" lon="-84.858042"><ele>241.4</ele><time>2026-07-23T21:20:04Z</time></trkpt>
<trkpt lat="35.200867" lon="-84.858073"><ele>242.3</ele><time>2026-07-23T21:20:07Z</time></trkpt>
<trkpt lat="35.200828" lon="-84.858088"><ele>241.7</ele><time>2026-07-23T21:20:10Z</time></trkpt>
<trkpt lat="35.200804" lon="-84.858112"><ele>240.5</ele><time>2026-07-23T21:20:13Z</time></trkpt>
<trkpt lat="35.200782" lon="-84.858143"><ele>241.1</ele><time>2026-07-23T21:20:16Z</time></trkpt>
<trkpt lat="35.200763" lon="-84.858173"><ele>240.8</ele><time>2026-07-23T21:20:18Z</time></trkpt>
<trkpt lat="35.20075" lon="-84.858211"><ele>240.5</ele><time>2026-07-23T21:20:20Z</time></trkpt>
<trkpt lat="35.200738" lon="-84.858242"><ele>240.8</ele><time>2026-07-23T21:20:22Z</time></trkpt>
<trkpt lat="35.200719" lon="-84.858276"><ele>240.2</ele><time>2026-07-23T21:20:25Z</time></trkpt>
<trkpt lat="35.200691" lon="-84.85831"><ele>241.4</ele><time>2026-07-23T21:20:28Z</time></trkpt>
<trkpt lat="35.200672" lon="-84.85834"><ele>241.7</ele><time>2026-07-23T21:20:30Z</time></trkpt>
<trkpt lat="35.200652" lon="-84.858365"><ele>241.1</ele><time>2026-07-23T21:20:32Z</time></trkpt>
<trkpt lat="35.200626" lon="-84.858403"><ele>240.8</ele><time>2026-07-23T21:20:35Z</time></trkpt>
<trkpt lat="35.200595" lon="-84.858435"><ele>240.5</ele><time>2026-07-23T21:20:38Z</time></trkpt>
<trkpt lat="35.200569" lon="-84.858468"><ele>240.8</ele><time>2026-07-23T21:20:41Z</time></trkpt>
<trkpt lat="35.200543" lon="-84.858504"><ele>241.1</ele><time>2026-07-23T21:20:44Z</time></trkpt>
<trkpt lat="35.200526" lon="-84.858533"><ele>242.3</ele><time>2026-07-23T21:20:46Z</time></trkpt>
<trkpt lat="35.200494" lon="-84.858563"><ele>242.0</ele><time>2026-07-23T21:20:49Z</time></trkpt>
<trkpt lat="35.200473" lon="-84.858586"><ele>240.8</ele><time>2026-07-23T21:20:51Z</time></trkpt>
<trkpt lat="35.200453" lon="-84.85861"><ele>241.7</ele><time>2026-07-23T21:20:53Z</time></trkpt>
<trkpt lat="35.200432" lon="-84.858635"><ele>241.4</ele><time>2026-07-23T21:20:55Z</time></trkpt>
<trkpt lat="35.200399" lon="-84.85866"><ele>242.0</ele><time>2026-07-23T21:20:58Z</time></trkpt>
<trkpt lat="35.20037" lon="-84.858686"><ele>242.6</ele><time>2026-07-23T21:21:01Z</time></trkpt>
<trkpt lat="35.200346" lon="-84.858709"><ele>241.7</ele><time>2026-07-23T21:21:04Z</time></trkpt>
<trkpt lat="35.20033" lon="-84.85874"><ele>241.7</ele><time>2026-07-23T21:21:06Z</time></trkpt>
<trkpt lat="35.200311" lon="-84.85877"><ele>242.3</ele><time>2026-07-23T21:21:08Z</time></trkpt>
<trkpt lat="35.200292" lon="-84.858799"><ele>242.3</ele><time>2026-07-23T21:21:10Z</time></trkpt>
<trkpt lat="35.200273" lon="-84.858826"><ele>241.7</ele><time>2026-07-23T21:21:12Z</time></trkpt>
<trkpt lat="35.200247" lon="-84.858856"><ele>240.5</ele><time>2026-07-23T21:21:15Z</time></trkpt>
<trkpt lat="35.200221" lon="-84.858888"><ele>240.8</ele><time>2026-07-23T21:21:18Z</time></trkpt>
<trkpt lat="35.200207" lon="-84.858917"><ele>241.1</ele><time>2026-07-23T21:21:20Z</time></trkpt>
<trkpt lat="35.20019" lon="-84.858944"><ele>242.0</ele><time>2026-07-23T21:21:22Z</time></trkpt>
<trkpt lat="35.200161" lon="-84.858979"><ele>242.0</ele><time>2026-07-23T21:21:25Z</time></trkpt>
<trkpt lat="35.200135" lon="-84.859012"><ele>241.1</ele><time>2026-07-23T21:21:28Z</time></trkpt>
<trkpt lat="35.20011" lon="-84.859046"><ele>240.5</ele><time>2026-07-23T21:21:31Z</time></trkpt>
<trkpt lat="35.200077" lon="-84.859076"><ele>240.5</ele><time>2026-07-23T21:21:34Z</time></trkpt>
<trkpt lat="35.200047" lon="-84.859108"><ele>240.2</ele><time>2026-07-23T21:21:37Z</time></trkpt>
<trkpt lat="35.20002" lon="-84.859142"><ele>240.2</ele><time>2026-07-23T21:21:40Z</time></trkpt>
<trkpt lat="35.2" lon="-84.859167"><ele>241.4</ele><time>2026-07-23T21:21:42Z</time></trkpt>
<trkpt lat="35.19997" lon="-84.859199"><ele>242.0</ele><time>2026-07-23T21:21:45Z</time></trkpt>
<trkpt lat="35.199939" lon="-84.85923"><ele>242.0</ele><time>2026-07-23T21:21:48Z</time></trkpt>
<trkpt lat="35.199914" lon="-84.859264"><ele>242.3</ele><time>2026-07-23T21:21:51Z</time></trkpt>
<trkpt lat="35.199881" lon="-84.859272"><ele>241.4</ele><time>2026-07-23T21:21:55Z</time></trkpt>
<trkpt lat="35.199856" lon="-84.859297"><ele>240.2</ele><time>2026-07-23T21:21:57Z</time></trkpt>
<trkpt lat="35.199843" lon="-84.859327"><ele>239.6</ele><time>2026-07-23T21:21:59Z</time></trkpt>
<trkpt lat="35.199822" lon="-84.859366"><ele>239.9</ele><time>2026-07-23T21:22:02Z</time></trkpt>
<trkpt lat="35.199806" lon="-84.859405"><ele>239.0</ele><time>2026-07-23T21:22:05Z</time></trkpt>
<trkpt lat="35.199782" lon="-84.859435"><ele>240.2</ele><time>2026-07-23T21:22:08Z</time></trkpt>
<trkpt lat="35.199757" lon="-84.859472"><ele>240.5</ele><time>2026-07-23T21:22:11Z</time></trkpt>
<trkpt lat="35.199736" lon="-84.859496"><ele>241.1</ele><time>2026-07-23T21:22:13Z</time></trkpt>
<trkpt lat="35.199713" lon="-84.859519"><ele>240.8</ele><time>2026-07-23T21:22:15Z</time></trkpt>
<trkpt lat="35.199691" lon="-84.859543"><ele>240.8</ele><time>2026-07-23T21:22:17Z</time></trkpt>
<trkpt lat="35.199663" lon="-84.859577"><ele>242.0</ele><time>2026-07-23T21:22:20Z</time></trkpt>
<trkpt lat="35.199643" lon="-84.859604"><ele>241.7</ele><time>2026-07-23T21:22:22Z</time></trkpt>
<trkpt lat="35.199624" lon="-84.859632"><ele>241.4</ele><time>2026-07-23T21:22:24Z</time></trkpt>
<trkpt lat="35.199601" lon="-84.859652"><ele>242.3</ele><time>2026-07-23T21:22:26Z</time></trkpt>
<trkpt lat="35.199569" lon="-84.859681"><ele>241.4</ele><time>2026-07-23T21:22:29Z</time></trkpt>
<trkpt lat="35.199534" lon="-84.859702"><ele>241.7</ele><time>2026-07-23T21:22:32Z</time></trkpt>
<trkpt lat="35.199507" lon="-84.859714"><ele>241.1</ele><time>2026-07-23T21:22:34Z</time></trkpt>
<trkpt lat="35.199479" lon="-84.85973"><ele>241.7</ele><time>2026-07-23T21:22:36Z</time></trkpt>
<trkpt lat="35.199451" lon="-84.859751"><ele>242.3</ele><time>2026-07-23T21:22:38Z</time></trkpt>
<trkpt lat="35.199425" lon="-84.859765"><ele>242.0</ele><time>2026-07-23T21:22:40Z</time></trkpt>
<trkpt lat="35.199398" lon="-84.859781"><ele>242.6</ele><time>2026-07-23T21:22:42Z</time></trkpt>
<trkpt lat="35.199372" lon="-84.859797"><ele>242.6</ele><time>2026-07-23T21:22:44Z</time></trkpt>
<trkpt lat="35.199345" lon="-84.859812"><ele>242.6</ele><time>2026-07-23T21:22:46Z</time></trkpt>
<trkpt lat="35.19931" lon="-84.859833"><ele>241.1</ele><time>2026-07-23T21:22:49Z</time></trkpt>
<trkpt lat="35.199289" lon="-84.859855"><ele>242.3</ele><time>2026-07-23T21:22:51Z</time></trkpt>
<trkpt lat="35.199266" lon="-84.859877"><ele>242.6</ele><time>2026-07-23T21:22:53Z</time></trkpt>
<trkpt lat="35.199241" lon="-84.859894"><ele>242.3</ele><time>2026-07-23T21:22:55Z</time></trkpt>
<trkpt lat="35.199208" lon="-84.85992"><ele>241.7</ele><time>2026-07-23T21:22:58Z</time></trkpt>
<trkpt lat="35.199184" lon="-84.859938"><ele>242.0</ele><time>2026-07-23T21:23:00Z</time></trkpt>
<trkpt lat="35.199151" lon="-84.859955"><ele>240.2</ele><time>2026-07-23T21:23:03Z</time></trkpt>
<trkpt lat="35.199117" lon="-84.859978"><ele>239.9</ele><time>2026-07-23T21:23:06Z</time></trkpt>
<trkpt lat="35.199082" lon="-84.860001"><ele>240.5</ele><time>2026-07-23T21:23:09Z</time></trkpt>
<trkpt lat="35.199049" lon="-84.860031"><ele>241.4</ele><time>2026-07-23T21:23:12Z</time></trkpt>
<trkpt lat="35.199021" lon="-84.860044"><ele>239.9</ele><time>2026-07-23T21:23:14Z</time></trkpt>
<trkpt lat="35.198987" lon="-84.860069"><ele>239.6</ele><time>2026-07-23T21:23:17Z</time></trkpt>
<trkpt lat="35.198954" lon="-84.860094"><ele>239.3</ele><time>2026-07-23T21:23:20Z</time></trkpt>
<trkpt lat="35.198928" lon="-84.860109"><ele>238.7</ele><time>2026-07-23T21:23:22Z</time></trkpt>
<trkpt lat="35.198897" lon="-84.860139"><ele>239.9</ele><time>2026-07-23T21:23:25Z</time></trkpt>
<trkpt lat="35.198871" lon="-84.860153"><ele>239.9</ele><time>2026-07-23T21:23:27Z</time></trkpt>
<trkpt lat="35.198837" lon="-84.860168"><ele>240.8</ele><time>2026-07-23T21:23:30Z</time></trkpt>
<trkpt lat="35.198803" lon="-84.860187"><ele>241.1</ele><time>2026-07-23T21:23:33Z</time></trkpt>
<trkpt lat="35.198769" lon="-84.860207"><ele>241.1</ele><time>2026-07-23T21:23:36Z</time></trkpt>
<trkpt lat="35.198735" lon="-84.860226"><ele>241.4</ele><time>2026-07-23T21:23:39Z</time></trkpt>
<trkpt lat="35.198699" lon="-84.860243"><ele>240.8</ele><time>2026-07-23T21:23:42Z</time></trkpt>
<trkpt lat="35.198673" lon="-84.86026"><ele>241.4</ele><time>2026-07-23T21:23:44Z</time></trkpt>
<trkpt lat="35.198639" lon="-84.860278"><ele>242.9</ele><time>2026-07-23T21:23:47Z</time></trkpt>
<trkpt lat="35.198607" lon="-84.860299"><ele>243.2</ele><time>2026-07-23T21:23:50Z</time></trkpt>
<trkpt lat="35.198575" lon="-84.860325"><ele>243.2</ele><time>2026-07-23T21:23:53Z</time></trkpt>
<trkpt lat="35.198541" lon="-84.860345"><ele>243.5</ele><time>2026-07-23T21:23:56Z</time></trkpt>
<trkpt lat="35.198507" lon="-84.860359"><ele>245.4</ele><time>2026-07-23T21:23:59Z</time></trkpt>
<trkpt lat="35.19847" lon="-84.860371"><ele>243.8</ele><time>2026-07-23T21:24:02Z</time></trkpt>
<trkpt lat="35.198442" lon="-84.86038"><ele>243.8</ele><time>2026-07-23T21:24:04Z</time></trkpt>
<trkpt lat="35.198405" lon="-84.860396"><ele>243.5</ele><time>2026-07-23T21:24:07Z</time></trkpt>
<trkpt lat="35.198373" lon="-84.860427"><ele>243.5</ele><time>2026-07-23T21:24:10Z</time></trkpt>
<trkpt lat="35.198337" lon="-84.860446"><ele>243.8</ele><time>2026-07-23T21:24:13Z</time></trkpt>
<trkpt lat="35.198311" lon="-84.860458"><ele>244.4</ele><time>2026-07-23T21:24:15Z</time></trkpt>
<trkpt lat="35.198286" lon="-84.860472"><ele>244.4</ele><time>2026-07-23T21:24:17Z</time></trkpt>
<trkpt lat="35.198257" lon="-84.860481"><ele>245.1</ele><time>2026-07-23T21:24:19Z</time></trkpt>
<trkpt lat="35.198231" lon="-84.860497"><ele>244.8</ele><time>2026-07-23T21:24:21Z</time></trkpt>
<trkpt lat="35.198201" lon="-84.860524"><ele>245.1</ele><time>2026-07-23T21:24:24Z</time></trkpt>
<trkpt lat="35.198168" lon="-84.860542"><ele>243.2</ele><time>2026-07-23T21:24:27Z</time></trkpt>
<trkpt lat="35.198132" lon="-84.860559"><ele>243.2</ele><time>2026-07-23T21:24:30Z</time></trkpt>
<trkpt lat="35.198101" lon="-84.860586"><ele>243.2</ele><time>2026-07-23T21:24:33Z</time></trkpt>
<trkpt lat="35.198069" lon="-84.860613"><ele>242.6</ele><time>2026-07-23T21:24:36Z</time></trkpt>
<trkpt lat="35.198034" lon="-84.860634"><ele>243.8</ele><time>2026-07-23T21:24:39Z</time></trkpt>
<trkpt lat="35.197996" lon="-84.860643"><ele>241.7</ele><time>2026-07-23T21:24:42Z</time></trkpt>
<trkpt lat="35.197959" lon="-84.860658"><ele>242.0</ele><time>2026-07-23T21:24:45Z</time></trkpt>
<trkpt lat="35.197919" lon="-84.860677"><ele>243.8</ele><time>2026-07-23T21:24:48Z</time></trkpt>
<trkpt lat="35.197893" lon="-84.860689"><ele>243.5</ele><time>2026-07-23T21:24:50Z</time></trkpt>
<trkpt lat="35.197865" lon="-84.860691"><ele>242.3</ele><time>2026-07-23T21:24:52Z</time></trkpt>
<trkpt lat="35.19783" lon="-84.860709"><ele>242.3</ele><time>2026-07-23T21:24:55Z</time></trkpt>
<trkpt lat="35.197795" lon="-84.860714"><ele>242.6</ele><time>2026-07-23T21:24:57Z</time></trkpt>
<trkpt lat="35.197757" lon="-84.860723"><ele>243.2</ele><time>2026-07-23T21:24:59Z</time></trkpt>
<trkpt lat="35.197719" lon="-84.860739"><ele>242.0</ele><time>2026-07-23T21:25:03Z</time></trkpt>
<trkpt lat="35.197694" lon="-84.860782"><ele>239.9</ele><time>2026-07-23T21:25:06Z</time></trkpt>
<trkpt lat="35.197672" lon="-84.860805"><ele>240.2</ele><time>2026-07-23T21:25:08Z</time></trkpt>
<trkpt lat="35.197641" lon="-84.860834"><ele>240.2</ele><time>2026-07-23T21:25:11Z</time></trkpt>
<trkpt lat="35.197617" lon="-84.860851"><ele>239.9</ele><time>2026-07-23T21:25:13Z</time></trkpt>
<trkpt lat="35.197584" lon="-84.860879"><ele>237.7</ele><time>2026-07-23T21:25:16Z</time></trkpt>
<trkpt lat="35.19755" lon="-84.860904"><ele>239.3</ele><time>2026-07-23T21:25:19Z</time></trkpt>
<trkpt lat="35.197524" lon="-84.860918"><ele>240.2</ele><time>2026-07-23T21:25:21Z</time></trkpt>
<trkpt lat="35.197486" lon="-84.860935"><ele>241.1</ele><time>2026-07-23T21:25:24Z</time></trkpt>
<trkpt lat="35.19745" lon="-84.860956"><ele>241.4</ele><time>2026-07-23T21:25:27Z</time></trkpt>
<trkpt lat="35.197417" lon="-84.860977"><ele>241.4</ele><time>2026-07-23T21:25:30Z</time></trkpt>
<trkpt lat="35.197386" lon="-84.861007"><ele>240.8</ele><time>2026-07-23T21:25:33Z</time></trkpt>
<trkpt lat="35.197365" lon="-84.86103"><ele>240.8</ele><time>2026-07-23T21:25:35Z</time></trkpt>
<trkpt lat="35.197339" lon="-84.861059"><ele>240.8</ele><time>2026-07-23T21:25:38Z</time></trkpt>
<trkpt lat="35.197305" lon="-84.861081"><ele>239.6</ele><time>2026-07-23T21:25:41Z</time></trkpt>
<trkpt lat="35.197287" lon="-84.861106"><ele>238.4</ele><time>2026-07-23T21:25:43Z</time></trkpt>
<trkpt lat="35.197264" lon="-84.861126"><ele>237.7</ele><time>2026-07-23T21:25:45Z</time></trkpt>
<trkpt lat="35.197234" lon="-84.861159"><ele>238.4</ele><time>2026-07-23T21:25:48Z</time></trkpt>
<trkpt lat="35.197214" lon="-84.861184"><ele>238.7</ele><time>2026-07-23T21:25:50Z</time></trkpt>
<trkpt lat="35.197182" lon="-84.861217"><ele>239.6</ele><time>2026-07-23T21:25:53Z</time></trkpt>
<trkpt lat="35.197159" lon="-84.861238"><ele>239.9</ele><time>2026-07-23T21:25:55Z</time></trkpt>
<trkpt lat="35.197129" lon="-84.861266"><ele>239.3</ele><time>2026-07-23T21:25:58Z</time></trkpt>
<trkpt lat="35.197099" lon="-84.861299"><ele>241.4</ele><time>2026-07-23T21:26:01Z</time></trkpt>
<trkpt lat="35.197069" lon="-84.861331"><ele>243.5</ele><time>2026-07-23T21:26:04Z</time></trkpt>
<trkpt lat="35.197036" lon="-84.861358"><ele>243.2</ele><time>2026-07-23T21:26:07Z</time></trkpt>
<trkpt lat="35.197011" lon="-84.861371"><ele>244.4</ele><time>2026-07-23T21:26:09Z</time></trkpt>
<trkpt lat="35.196987" lon="-84.861389"><ele>243.5</ele><time>2026-07-23T21:26:11Z</time></trkpt>
<trkpt lat="35.196963" lon="-84.861409"><ele>243.2</ele><time>2026-07-23T21:26:13Z</time></trkpt>
<trkpt lat="35.196956" lon="-84.86145"><ele>242.6</ele><time>2026-07-23T21:26:15Z</time></trkpt>
<trkpt lat="35.196917" lon="-84.861462"><ele>242.3</ele><time>2026-07-23T21:26:18Z</time></trkpt>
<trkpt lat="35.196885" lon="-84.861491"><ele>242.0</ele><time>2026-07-23T21:26:21Z</time></trkpt>
<trkpt lat="35.19686" lon="-84.861515"><ele>243.5</ele><time>2026-07-23T21:26:24Z</time></trkpt>
<trkpt lat="35.19684" lon="-84.861551"><ele>249.0</ele><time>2026-07-23T21:26:27Z</time></trkpt>
<trkpt lat="35.196815" lon="-84.861576"><ele>249.6</ele><time>2026-07-23T21:26:30Z</time></trkpt>
<trkpt lat="35.196792" lon="-84.86161"><ele>249.9</ele><time>2026-07-23T21:26:33Z</time></trkpt>
<trkpt lat="35.196766" lon="-84.86164"><ele>249.9</ele><time>2026-07-23T21:26:36Z</time></trkpt>
<trkpt lat="35.19673" lon="-84.861659"><ele>250.2</ele><time>2026-07-23T21:26:39Z</time></trkpt>
<trkpt lat="35.196703" lon="-84.861676"><ele>250.2</ele><time>2026-07-23T21:26:41Z</time></trkpt>
<trkpt lat="35.196679" lon="-84.8617"><ele>249.9</ele><time>2026-07-23T21:26:43Z</time></trkpt>
<trkpt lat="35.196652" lon="-84.861719"><ele>250.2</ele><time>2026-07-23T21:26:45Z</time></trkpt>
<trkpt lat="35.196625" lon="-84.861735"><ele>249.0</ele><time>2026-07-23T21:26:47Z</time></trkpt>
<trkpt lat="35.196598" lon="-84.861745"><ele>249.0</ele><time>2026-07-23T21:26:49Z</time></trkpt>
<trkpt lat="35.196569" lon="-84.861749"><ele>249.3</ele><time>2026-07-23T21:26:51Z</time></trkpt>
<trkpt lat="35.196542" lon="-84.861755"><ele>249.9</ele><time>2026-07-23T21:26:53Z</time></trkpt>
<trkpt lat="35.196512" lon="-84.861783"><ele>248.1</ele><time>2026-07-23T21:26:56Z</time></trkpt>
<trkpt lat="35.196474" lon="-84.8618"><ele>249.3</ele><time>2026-07-23T21:26:59Z</time></trkpt>
<trkpt lat="35.196443" lon="-84.861826"><ele>249.0</ele><time>2026-07-23T21:27:02Z</time></trkpt>
<trkpt lat="35.196414" lon="-84.861848"><ele>247.2</ele><time>2026-07-23T21:27:05Z</time></trkpt>
<trkpt lat="35.196382" lon="-84.861869"><ele>248.4</ele><time>2026-07-23T21:27:08Z</time></trkpt>
<trkpt lat="35.196355" lon="-84.861898"><ele>249.3</ele><time>2026-07-23T21:27:11Z</time></trkpt>
<trkpt lat="35.196325" lon="-84.861917"><ele>248.7</ele><time>2026-07-23T21:27:14Z</time></trkpt>
<trkpt lat="35.196296" lon="-84.861947"><ele>250.2</ele><time>2026-07-23T21:27:17Z</time></trkpt>
<trkpt lat="35.196266" lon="-84.861976"><ele>249.3</ele><time>2026-07-23T21:27:20Z</time></trkpt>
<trkpt lat="35.196229" lon="-84.861989"><ele>250.5</ele><time>2026-07-23T21:27:23Z</time></trkpt>
<trkpt lat="35.196195" lon="-84.862012"><ele>251.5</ele><time>2026-07-23T21:27:26Z</time></trkpt>
<trkpt lat="35.196163" lon="-84.862033"><ele>251.8</ele><time>2026-07-23T21:27:29Z</time></trkpt>
<trkpt lat="35.196138" lon="-84.86205"><ele>250.9</ele><time>2026-07-23T21:27:31Z</time></trkpt>
<trkpt lat="35.196117" lon="-84.862077"><ele>250.9</ele><time>2026-07-23T21:27:33Z</time></trkpt>
<trkpt lat="35.196095" lon="-84.862103"><ele>252.4</ele><time>2026-07-23T21:27:35Z</time></trkpt>
<trkpt lat="35.196073" lon="-84.862127"><ele>250.9</ele><time>2026-07-23T21:27:37Z</time></trkpt>
<trkpt lat="35.19605" lon="-84.862149"><ele>249.0</ele><time>2026-07-23T21:27:39Z</time></trkpt>
<trkpt lat="35.196018" lon="-84.862166"><ele>249.0</ele><time>2026-07-23T21:27:42Z</time></trkpt>
<trkpt lat="35.195983" lon="-84.862188"><ele>248.4</ele><time>2026-07-23T21:27:45Z</time></trkpt>
<trkpt lat="35.195944" lon="-84.862199"><ele>247.8</ele><time>2026-07-23T21:27:48Z</time></trkpt>
<trkpt lat="35.195912" lon="-84.862217"><ele>247.2</ele><time>2026-07-23T21:27:51Z</time></trkpt>
<trkpt lat="35.19588" lon="-84.862233"><ele>249.0</ele><time>2026-07-23T21:27:54Z</time></trkpt>
<trkpt lat="35.195849" lon="-84.862259"><ele>252.7</ele><time>2026-07-23T21:27:57Z</time></trkpt>
<trkpt lat="35.195823" lon="-84.862295"><ele>250.2</ele><time>2026-07-23T21:28:00Z</time></trkpt>
<trkpt lat="35.195801" lon="-84.862315"><ele>250.5</ele><time>2026-07-23T21:28:02Z</time></trkpt>
<trkpt lat="35.195769" lon="-84.862342"><ele>250.5</ele><time>2026-07-23T21:28:05Z</time></trkpt>
<trkpt lat="35.195744" lon="-84.862358"><ele>250.2</ele><time>2026-07-23T21:28:07Z</time></trkpt>
<trkpt lat="35.195719" lon="-84.862375"><ele>250.2</ele><time>2026-07-23T21:28:09Z</time></trkpt>
<trkpt lat="35.195684" lon="-84.862396"><ele>249.6</ele><time>2026-07-23T21:28:12Z</time></trkpt>
<trkpt lat="35.195654" lon="-84.86241"><ele>247.8</ele><time>2026-07-23T21:28:15Z</time></trkpt>
<trkpt lat="35.195622" lon="-84.862431"><ele>247.2</ele><time>2026-07-23T21:28:18Z</time></trkpt>
<trkpt lat="35.195589" lon="-84.862454"><ele>244.1</ele><time>2026-07-23T21:28:21Z</time></trkpt>
<trkpt lat="35.195566" lon="-84.862473"><ele>244.4</ele><time>2026-07-23T21:28:23Z</time></trkpt>
<trkpt lat="35.195531" lon="-84.862489"><ele>247.5</ele><time>2026-07-23T21:28:26Z</time></trkpt>
<trkpt lat="35.195498" lon="-84.86251"><ele>249.0</ele><time>2026-07-23T21:28:29Z</time></trkpt>
<trkpt lat="35.195459" lon="-84.862527"><ele>246.9</ele><time>2026-07-23T21:28:32Z</time></trkpt>
<trkpt lat="35.195436" lon="-84.862546"><ele>246.9</ele><time>2026-07-23T21:28:34Z</time></trkpt>
<trkpt lat="35.1954" lon="-84.86257"><ele>246.6</ele><time>2026-07-23T21:28:37Z</time></trkpt>
<trkpt lat="35.195372" lon="-84.862582"><ele>246.3</ele><time>2026-07-23T21:28:39Z</time></trkpt>
<trkpt lat="35.195344" lon="-84.862597"><ele>247.5</ele><time>2026-07-23T21:28:41Z</time></trkpt>
<trkpt lat="35.195318" lon="-84.862609"><ele>247.5</ele><time>2026-07-23T21:28:43Z</time></trkpt>
<trkpt lat="35.195292" lon="-84.862619"><ele>248.1</ele><time>2026-07-23T21:28:45Z</time></trkpt>
<trkpt lat="35.195257" lon="-84.862642"><ele>246.0</ele><time>2026-07-23T21:28:48Z</time></trkpt>
<trkpt lat="35.195223" lon="-84.862664"><ele>245.7</ele><time>2026-07-23T21:28:51Z</time></trkpt>
<trkpt lat="35.195192" lon="-84.862692"><ele>244.8</ele><time>2026-07-23T21:28:54Z</time></trkpt>
<trkpt lat="35.195153" lon="-84.862705"><ele>244.1</ele><time>2026-07-23T21:28:57Z</time></trkpt>
<trkpt lat="35.195124" lon="-84.862696"><ele>244.8</ele><time>2026-07-23T21:28:59Z</time></trkpt>
<trkpt lat="35.195099" lon="-84.862657"><ele>245.7</ele><time>2026-07-23T21:29:02Z</time></trkpt>
<trkpt lat="35.195084" lon="-84.862627"><ele>246.3</ele><time>2026-07-23T21:29:04Z</time></trkpt>
<trkpt lat="35.195075" lon="-84.862581"><ele>248.1</ele><time>2026-07-23T21:29:07Z</time></trkpt>
<trkpt lat="35.195057" lon="-84.862542"><ele>248.1</ele><time>2026-07-23T21:29:10Z</time></trkpt>
<trkpt lat="35.195043" lon="-84.862497"><ele>248.7</ele><time>2026-07-23T21:29:13Z</time></trkpt>
<trkpt lat="35.195036" lon="-84.862464"><ele>248.7</ele><time>2026-07-23T21:29:15Z</time></trkpt>
<trkpt lat="35.195016" lon="-84.862423"><ele>249.6</ele><time>2026-07-23T21:29:18Z</time></trkpt>
<trkpt lat="35.195006" lon="-84.862388"><ele>250.5</ele><time>2026-07-23T21:29:20Z</time></trkpt>
<trkpt lat="35.19499" lon="-84.862341"><ele>251.2</ele><time>2026-07-23T21:29:23Z</time></trkpt>
<trkpt lat="35.194976" lon="-84.86231"><ele>251.8</ele><time>2026-07-23T21:29:25Z</time></trkpt>
<trkpt lat="35.194963" lon="-84.862278"><ele>251.8</ele><time>2026-07-23T21:29:27Z</time></trkpt>
<trkpt lat="35.194944" lon="-84.862249"><ele>252.4</ele><time>2026-07-23T21:29:29Z</time></trkpt>
<trkpt lat="35.194924" lon="-84.86221"><ele>252.7</ele><time>2026-07-23T21:29:32Z</time></trkpt>
<trkpt lat="35.19491" lon="-84.862178"><ele>253.6</ele><time>2026-07-23T21:29:34Z</time></trkpt>
<trkpt lat="35.194901" lon="-84.862145"><ele>254.2</ele><time>2026-07-23T21:29:36Z</time></trkpt>
<trkpt lat="35.19488" lon="-84.862103"><ele>255.1</ele><time>2026-07-23T21:29:39Z</time></trkpt>
<trkpt lat="35.194867" lon="-84.86207"><ele>255.7</ele><time>2026-07-23T21:29:41Z</time></trkpt>
<trkpt lat="35.194855" lon="-84.862038"><ele>254.8</ele><time>2026-07-23T21:29:43Z</time></trkpt>
<trkpt lat="35.194833" lon="-84.861999"><ele>255.1</ele><time>2026-07-23T21:29:46Z</time></trkpt>
<trkpt lat="35.19482" lon="-84.861966"><ele>254.2</ele><time>2026-07-23T21:29:48Z</time></trkpt>
<trkpt lat="35.194808" lon="-84.861932"><ele>255.1</ele><time>2026-07-23T21:29:50Z</time></trkpt>
<trkpt lat="35.19478" lon="-84.861898"><ele>253.9</ele><time>2026-07-23T21:29:53Z</time></trkpt>
<trkpt lat="35.194747" lon="-84.86187"><ele>253.6</ele><time>2026-07-23T21:29:56Z</time></trkpt>
<trkpt lat="35.194723" lon="-84.861853"><ele>253.0</ele><time>2026-07-23T21:29:58Z</time></trkpt>
<trkpt lat="35.194698" lon="-84.861837"><ele>252.7</ele><time>2026-07-23T21:30:00Z</time></trkpt>
<trkpt lat="35.194663" lon="-84.861812"><ele>252.7</ele><time>2026-07-23T21:30:03Z</time></trkpt>
<trkpt lat="35.194631" lon="-84.861787"><ele>253.9</ele><time>2026-07-23T21:30:06Z</time></trkpt>
<trkpt lat="35.194598" lon="-84.861764"><ele>254.2</ele><time>2026-07-23T21:30:09Z</time></trkpt>
<trkpt lat="35.194569" lon="-84.861745"><ele>253.9</ele><time>2026-07-23T21:30:12Z</time></trkpt>
<trkpt lat="35.194533" lon="-84.861751"><ele>253.3</ele><time>2026-07-23T21:30:15Z</time></trkpt>
<trkpt lat="35.194499" lon="-84.861772"><ele>253.6</ele><time>2026-07-23T21:30:18Z</time></trkpt>
<trkpt lat="35.194477" lon="-84.861793"><ele>252.7</ele><time>2026-07-23T21:30:20Z</time></trkpt>
<trkpt lat="35.194452" lon="-84.861813"><ele>252.1</ele><time>2026-07-23T21:30:22Z</time></trkpt>
<trkpt lat="35.194427" lon="-84.861831"><ele>252.1</ele><time>2026-07-23T21:30:24Z</time></trkpt>
<trkpt lat="35.194405" lon="-84.861851"><ele>252.1</ele><time>2026-07-23T21:30:26Z</time></trkpt>
<trkpt lat="35.19438" lon="-84.861868"><ele>252.1</ele><time>2026-07-23T21:30:28Z</time></trkpt>
<trkpt lat="35.194355" lon="-84.861886"><ele>252.4</ele><time>2026-07-23T21:30:30Z</time></trkpt>
<trkpt lat="35.194324" lon="-84.861914"><ele>252.1</ele><time>2026-07-23T21:30:33Z</time></trkpt>
<trkpt lat="35.194293" lon="-84.86194"><ele>252.1</ele><time>2026-07-23T21:30:36Z</time></trkpt>
<trkpt lat="35.194257" lon="-84.861956"><ele>252.4</ele><time>2026-07-23T21:30:39Z</time></trkpt>
<trkpt lat="35.194221" lon="-84.861978"><ele>252.4</ele><time>2026-07-23T21:30:42Z</time></trkpt>
<trkpt lat="35.194183" lon="-84.861997"><ele>252.7</ele><time>2026-07-23T21:30:45Z</time></trkpt>
<trkpt lat="35.194146" lon="-84.862014"><ele>251.8</ele><time>2026-07-23T21:30:48Z</time></trkpt>
<trkpt lat="35.194111" lon="-84.862032"><ele>251.2</ele><time>2026-07-23T21:30:51Z</time></trkpt>
<trkpt lat="35.194076" lon="-84.862051"><ele>250.9</ele><time>2026-07-23T21:30:54Z</time></trkpt>
<trkpt lat="35.194039" lon="-84.862064"><ele>250.2</ele><time>2026-07-23T21:30:57Z</time></trkpt>
<trkpt lat="35.193998" lon="-84.862073"><ele>250.5</ele><time>2026-07-23T21:31:00Z</time></trkpt>
<trkpt lat="35.193971" lon="-84.862078"><ele>251.2</ele><time>2026-07-23T21:31:02Z</time></trkpt>
<trkpt lat="35.193938" lon="-84.862101"><ele>250.5</ele><time>2026-07-23T21:31:05Z</time></trkpt>
<trkpt lat="35.193913" lon="-84.862115"><ele>250.5</ele><time>2026-07-23T21:31:07Z</time></trkpt>
<trkpt lat="35.193886" lon="-84.862124"><ele>250.5</ele><time>2026-07-23T21:31:09Z</time></trkpt>
<trkpt lat="35.19385" lon="-84.862141"><ele>249.9</ele><time>2026-07-23T21:31:12Z</time></trkpt>
<trkpt lat="35.193815" lon="-84.862167"><ele>251.2</ele><time>2026-07-23T21:31:15Z</time></trkpt>
<trkpt lat="35.193792" lon="-84.862188"><ele>252.1</ele><time>2026-07-23T21:31:17Z</time></trkpt>
<trkpt lat="35.193768" lon="-84.862207"><ele>251.8</ele><time>2026-07-23T21:31:19Z</time></trkpt>
<trkpt lat="35.193745" lon="-84.862227"><ele>251.2</ele><time>2026-07-23T21:31:21Z</time></trkpt>
<trkpt lat="35.193713" lon="-84.862254"><ele>252.7</ele><time>2026-07-23T21:31:24Z</time></trkpt>
<trkpt lat="35.193677" lon="-84.862273"><ele>253.3</ele><time>2026-07-23T21:31:27Z</time></trkpt>
<trkpt lat="35.193637" lon="-84.862285"><ele>254.2</ele><time>2026-07-23T21:31:30Z</time></trkpt>
<trkpt lat="35.193609" lon="-84.86228"><ele>254.8</ele><time>2026-07-23T21:31:32Z</time></trkpt>
<trkpt lat="35.193594" lon="-84.862239"><ele>255.7</ele><time>2026-07-23T21:31:35Z</time></trkpt>
<trkpt lat="35.193606" lon="-84.862205"><ele>255.7</ele><time>2026-07-23T21:31:37Z</time></trkpt>
<trkpt lat="35.193612" lon="-84.862172"><ele>256.6</ele><time>2026-07-23T21:31:39Z</time></trkpt>
<trkpt lat="35.193632" lon="-84.862133"><ele>256.3</ele><time>2026-07-23T21:31:42Z</time></trkpt>
<trkpt lat="35.193666" lon="-84.862113"><ele>255.1</ele><time>2026-07-23T21:31:47Z</time></trkpt>
<trkpt lat="35.193695" lon="-84.862105"><ele>252.4</ele><time>2026-07-23T21:31:50Z</time></trkpt>
<trkpt lat="35.193729" lon="-84.862101"><ele>251.5</ele><time>2026-07-23T21:31:53Z</time></trkpt>
<trkpt lat="35.193764" lon="-84.862102"><ele>252.1</ele><time>2026-07-23T21:31:56Z</time></trkpt>
<trkpt lat="35.1938" lon="-84.862113"><ele>251.2</ele><time>2026-07-23T21:31:59Z</time></trkpt>
<trkpt lat="35.193834" lon="-84.862111"><ele>251.8</ele><time>2026-07-23T21:32:02Z</time></trkpt>
<trkpt lat="35.193865" lon="-84.862103"><ele>253.6</ele><time>2026-07-23T21:32:05Z</time></trkpt>
<trkpt lat="35.193897" lon="-84.862102"><ele>252.4</ele><time>2026-07-23T21:32:08Z</time></trkpt>
<trkpt lat="35.193933" lon="-84.862099"><ele>253.3</ele><time>2026-07-23T21:32:11Z</time></trkpt>
<trkpt lat="35.193969" lon="-84.862096"><ele>253.0</ele><time>2026-07-23T21:32:14Z</time></trkpt>
<trkpt lat="35.194004" lon="-84.862084"><ele>253.6</ele><time>2026-07-23T21:32:17Z</time></trkpt>
<trkpt lat="35.194042" lon="-84.862071"><ele>253.6</ele><time>2026-07-23T21:32:20Z</time></trkpt>
<trkpt lat="35.194079" lon="-84.86206"><ele>253.0</ele><time>2026-07-23T21:32:23Z</time></trkpt>
<trkpt lat="35.194107" lon="-84.862053"><ele>252.7</ele><time>2026-07-23T21:32:25Z</time></trkpt>
<trkpt lat="35.194134" lon="-84.862038"><ele>253.0</ele><time>2026-07-23T21:32:27Z</time></trkpt>
<trkpt lat="35.194171" lon="-84.86202"><ele>252.4</ele><time>2026-07-23T21:32:30Z</time></trkpt>
<trkpt lat="35.194206" lon="-84.861994"><ele>254.2</ele><time>2026-07-23T21:32:33Z</time></trkpt>
<trkpt lat="35.194243" lon="-84.861973"><ele>254.5</ele><time>2026-07-23T21:32:36Z</time></trkpt>
<trkpt lat="35.19427" lon="-84.86196"><ele>254.5</ele><time>2026-07-23T21:32:38Z</time></trkpt>
<trkpt lat="35.194306" lon="-84.861941"><ele>254.2</ele><time>2026-07-23T21:32:41Z</time></trkpt>
<trkpt lat="35.194338" lon="-84.861915"><ele>253.6</ele><time>2026-07-23T21:32:44Z</time></trkpt>
<trkpt lat="35.194374" lon="-84.861889"><ele>253.6</ele><time>2026-07-23T21:32:47Z</time></trkpt>
<trkpt lat="35.19441" lon="-84.861866"><ele>253.3</ele><time>2026-07-23T21:32:50Z</time></trkpt>
<trkpt lat="35.194445" lon="-84.861845"><ele>252.7</ele><time>2026-07-23T21:32:53Z</time></trkpt>
<trkpt lat="35.194478" lon="-84.861822"><ele>252.7</ele><time>2026-07-23T21:32:56Z</time></trkpt>
<trkpt lat="35.194502" lon="-84.861805"><ele>252.4</ele><time>2026-07-23T21:32:58Z</time></trkpt>
<trkpt lat="35.194534" lon="-84.861784"><ele>253.0</ele><time>2026-07-23T21:33:01Z</time></trkpt>
<trkpt lat="35.194566" lon="-84.86176"><ele>252.7</ele><time>2026-07-23T21:33:04Z</time></trkpt>
<trkpt lat="35.194583" lon="-84.861718"><ele>251.8</ele><time>2026-07-23T21:33:07Z</time></trkpt>
<trkpt lat="35.194564" lon="-84.861676"><ele>250.9</ele><time>2026-07-23T21:33:10Z</time></trkpt>
<trkpt lat="35.194546" lon="-84.861651"><ele>250.2</ele><time>2026-07-23T21:33:12Z</time></trkpt>
<trkpt lat="35.194527" lon="-84.861608"><ele>250.5</ele><time>2026-07-23T21:33:15Z</time></trkpt>
<trkpt lat="35.194511" lon="-84.861562"><ele>250.9</ele><time>2026-07-23T21:33:18Z</time></trkpt>
<trkpt lat="35.194493" lon="-84.86152"><ele>250.9</ele><time>2026-07-23T21:33:21Z</time></trkpt>
<trkpt lat="35.194476" lon="-84.861477"><ele>251.2</ele><time>2026-07-23T21:33:24Z</time></trkpt>
<trkpt lat="35.194463" lon="-84.861431"><ele>249.6</ele><time>2026-07-23T21:33:27Z</time></trkpt>
<trkpt lat="35.194458" lon="-84.861397"><ele>250.9</ele><time>2026-07-23T21:33:29Z</time></trkpt>
<trkpt lat="35.19445" lon="-84.861361"><ele>252.1</ele><time>2026-07-23T21:33:31Z</time></trkpt>
<trkpt lat="35.194441" lon="-84.861326"><ele>252.1</ele><time>2026-07-23T21:33:33Z</time></trkpt>
<trkpt lat="35.194435" lon="-84.861288"><ele>251.8</ele><time>2026-07-23T21:33:35Z</time></trkpt>
<trkpt lat="35.194432" lon="-84.86124"><ele>250.9</ele><time>2026-07-23T21:33:38Z</time></trkpt>
<trkpt lat="35.194447" lon="-84.861197"><ele>250.2</ele><time>2026-07-23T21:33:41Z</time></trkpt>
<trkpt lat="35.194468" lon="-84.861156"><ele>248.4</ele><time>2026-07-23T21:33:44Z</time></trkpt>
<trkpt lat="35.194502" lon="-84.86113"><ele>248.1</ele><time>2026-07-23T21:33:47Z</time></trkpt>
<trkpt lat="35.194517" lon="-84.861164"><ele>250.9</ele><time>2026-07-23T21:33:49Z</time></trkpt>
<trkpt lat="35.194491" lon="-84.861196"><ele>250.2</ele><time>2026-07-23T21:33:51Z</time></trkpt>
<trkpt lat="35.194455" lon="-84.861218"><ele>249.0</ele><time>2026-07-23T21:33:53Z</time></trkpt>
<trkpt lat="35.194444" lon="-84.86125"><ele>248.4</ele><time>2026-07-23T21:33:55Z</time></trkpt>
<trkpt lat="35.194445" lon="-84.861285"><ele>248.7</ele><time>2026-07-23T21:33:57Z</time></trkpt>
<trkpt lat="35.194445" lon="-84.861329"><ele>247.5</ele><time>2026-07-23T21:34:00Z</time></trkpt>
<trkpt lat="35.194447" lon="-84.861375"><ele>247.8</ele><time>2026-07-23T21:34:03Z</time></trkpt>
<trkpt lat="35.194452" lon="-84.861422"><ele>247.8</ele><time>2026-07-23T21:34:06Z</time></trkpt>
<trkpt lat="35.194467" lon="-84.861467"><ele>247.8</ele><time>2026-07-23T21:34:09Z</time></trkpt>
<trkpt lat="35.194482" lon="-84.861514"><ele>246.9</ele><time>2026-07-23T21:34:12Z</time></trkpt>
<trkpt lat="35.194495" lon="-84.861545"><ele>247.5</ele><time>2026-07-23T21:34:14Z</time></trkpt>
<trkpt lat="35.19451" lon="-84.861575"><ele>248.1</ele><time>2026-07-23T21:34:16Z</time></trkpt>
<trkpt lat="35.194524" lon="-84.861621"><ele>248.1</ele><time>2026-07-23T21:34:19Z</time></trkpt>
<trkpt lat="35.194534" lon="-84.861653"><ele>248.4</ele><time>2026-07-23T21:34:21Z</time></trkpt>
<trkpt lat="35.194543" lon="-84.861687"><ele>248.7</ele><time>2026-07-23T21:34:23Z</time></trkpt>
<trkpt lat="35.194556" lon="-84.86172"><ele>248.1</ele><time>2026-07-23T21:34:25Z</time></trkpt>
<trkpt lat="35.194571" lon="-84.861749"><ele>248.1</ele><time>2026-07-23T21:34:27Z</time></trkpt>
<trkpt lat="35.194585" lon="-84.861781"><ele>249.6</ele><time>2026-07-23T21:34:29Z</time></trkpt>
<trkpt lat="35.194603" lon="-84.861811"><ele>249.0</ele><time>2026-07-23T21:34:31Z</time></trkpt>
<trkpt lat="35.194626" lon="-84.861832"><ele>249.0</ele><time>2026-07-23T21:34:33Z</time></trkpt>
<trkpt lat="35.19465" lon="-84.861855"><ele>248.7</ele><time>2026-07-23T21:34:35Z</time></trkpt>
<trkpt lat="35.194678" lon="-84.861871"><ele>249.3</ele><time>2026-07-23T21:34:37Z</time></trkpt>
<trkpt lat="35.194701" lon="-84.861896"><ele>250.2</ele><time>2026-07-23T21:34:39Z</time></trkpt>
<trkpt lat="35.194723" lon="-84.86192"><ele>250.5</ele><time>2026-07-23T21:34:41Z</time></trkpt>
<trkpt lat="35.194757" lon="-84.861948"><ele>250.2</ele><time>2026-07-23T21:34:44Z</time></trkpt>
<trkpt lat="35.194782" lon="-84.861964"><ele>250.5</ele><time>2026-07-23T21:34:46Z</time></trkpt>
<trkpt lat="35.194807" lon="-84.862002"><ele>251.8</ele><time>2026-07-23T21:34:49Z</time></trkpt>
<trkpt lat="35.194826" lon="-84.862036"><ele>252.4</ele><time>2026-07-23T21:34:52Z</time></trkpt>
<trkpt lat="35.194844" lon="-84.862074"><ele>251.8</ele><time>2026-07-23T21:34:55Z</time></trkpt>
<trkpt lat="35.19486" lon="-84.862112"><ele>251.8</ele><time>2026-07-23T21:34:58Z</time></trkpt>
<trkpt lat="35.194879" lon="-84.862156"><ele>251.2</ele><time>2026-07-23T21:35:01Z</time></trkpt>
<trkpt lat="35.194896" lon="-84.8622"><ele>249.6</ele><time>2026-07-23T21:35:04Z</time></trkpt>
<trkpt lat="35.194919" lon="-84.862239"><ele>248.1</ele><time>2026-07-23T21:35:07Z</time></trkpt>
<trkpt lat="35.194933" lon="-84.862284"><ele>247.5</ele><time>2026-07-23T21:35:10Z</time></trkpt>
<trkpt lat="35.194949" lon="-84.862327"><ele>248.1</ele><time>2026-07-23T21:35:13Z</time></trkpt>
<trkpt lat="35.194966" lon="-84.862368"><ele>249.0</ele><time>2026-07-23T21:35:16Z</time></trkpt>
<trkpt lat="35.194982" lon="-84.862409"><ele>248.7</ele><time>2026-07-23T21:35:19Z</time></trkpt>
<trkpt lat="35.195" lon="-84.86245"><ele>249.0</ele><time>2026-07-23T21:35:22Z</time></trkpt>
<trkpt lat="35.195016" lon="-84.86249"><ele>249.9</ele><time>2026-07-23T21:35:25Z</time></trkpt>
<trkpt lat="35.195034" lon="-84.862528"><ele>250.5</ele><time>2026-07-23T21:35:28Z</time></trkpt>
<trkpt lat="35.195048" lon="-84.862567"><ele>251.8</ele><time>2026-07-23T21:35:31Z</time></trkpt>
<trkpt lat="35.195063" lon="-84.862596"><ele>250.2</ele><time>2026-07-23T21:35:33Z</time></trkpt>
<trkpt lat="35.195076" lon="-84.862628"><ele>249.9</ele><time>2026-07-23T21:35:35Z</time></trkpt>
<trkpt lat="35.195091" lon="-84.862659"><ele>249.6</ele><time>2026-07-23T21:35:37Z</time></trkpt>
<trkpt lat="35.195106" lon="-84.86269"><ele>249.3</ele><time>2026-07-23T21:35:39Z</time></trkpt>
<trkpt lat="35.195124" lon="-84.862734"><ele>248.7</ele><time>2026-07-23T21:35:42Z</time></trkpt>
<trkpt lat="35.195138" lon="-84.862777"><ele>247.5</ele><time>2026-07-23T21:35:45Z</time></trkpt>
<trkpt lat="35.195143" lon="-84.862823"><ele>246.0</ele><time>2026-07-23T21:35:48Z</time></trkpt>
<trkpt lat="35.19514" lon="-84.862864"><ele>245.4</ele><time>2026-07-23T21:35:51Z</time></trkpt>
<trkpt lat="35.19514" lon="-84.862908"><ele>244.4</ele><time>2026-07-23T21:35:54Z</time></trkpt>
<trkpt lat="35.195129" lon="-84.862953"><ele>244.4</ele><time>2026-07-23T21:35:57Z</time></trkpt>
<trkpt lat="35.195127" lon="-84.862986"><ele>245.1</ele><time>2026-07-23T21:35:59Z</time></trkpt>
<trkpt lat="35.195119" lon="-84.863031"><ele>245.7</ele><time>2026-07-23T21:36:02Z</time></trkpt>
<trkpt lat="35.195106" lon="-84.863075"><ele>246.0</ele><time>2026-07-23T21:36:05Z</time></trkpt>
<trkpt lat="35.195091" lon="-84.863118"><ele>244.8</ele><time>2026-07-23T21:36:08Z</time></trkpt>
<trkpt lat="35.195073" lon="-84.863162"><ele>245.7</ele><time>2026-07-23T21:36:11Z</time></trkpt>
<trkpt lat="35.195052" lon="-84.863204"><ele>245.4</ele><time>2026-07-23T21:36:14Z</time></trkpt>
<trkpt lat="35.19503" lon="-84.863244"><ele>244.1</ele><time>2026-07-23T21:36:17Z</time></trkpt>
<trkpt lat="35.195009" lon="-84.863286"><ele>244.8</ele><time>2026-07-23T21:36:20Z</time></trkpt>
<trkpt lat="35.194981" lon="-84.863321"><ele>244.8</ele><time>2026-07-23T21:36:23Z</time></trkpt>
<trkpt lat="35.194952" lon="-84.86335"><ele>245.4</ele><time>2026-07-23T21:36:26Z</time></trkpt>
<trkpt lat="35.19492" lon="-84.863377"><ele>244.8</ele><time>2026-07-23T21:36:29Z</time></trkpt>
<trkpt lat="35.194897" lon="-84.863401"><ele>245.1</ele><time>2026-07-23T21:36:31Z</time></trkpt>
<trkpt lat="35.19486" lon="-84.863424"><ele>245.1</ele><time>2026-07-23T21:36:34Z</time></trkpt>
<trkpt lat="35.194832" lon="-84.863433"><ele>244.8</ele><time>2026-07-23T21:36:36Z</time></trkpt>
<trkpt lat="35.194805" lon="-84.863442"><ele>244.8</ele><time>2026-07-23T21:36:38Z</time></trkpt>
<trkpt lat="35.194778" lon="-84.863454"><ele>243.5</ele><time>2026-07-23T21:36:40Z</time></trkpt>
<trkpt lat="35.19475" lon="-84.863461"><ele>243.2</ele><time>2026-07-23T21:36:42Z</time></trkpt>
<trkpt lat="35.194713" lon="-84.863473"><ele>244.1</ele><time>2026-07-23T21:36:45Z</time></trkpt>
<trkpt lat="35.194672" lon="-84.863475"><ele>244.8</ele><time>2026-07-23T21:36:48Z</time></trkpt>
<trkpt lat="35.19463" lon="-84.863476"><ele>245.7</ele><time>2026-07-23T21:36:51Z</time></trkpt>
<trkpt lat="35.194601" lon="-84.863473"><ele>246.3</ele><time>2026-07-23T21:36:53Z</time></trkpt>
<trkpt lat="35.194572" lon="-84.86347"><ele>248.4</ele><time>2026-07-23T21:36:55Z</time></trkpt>
<trkpt lat="35.19453" lon="-84.863468"><ele>249.6</ele><time>2026-07-23T21:36:58Z</time></trkpt>
<trkpt lat="35.1945" lon="-84.863473"><ele>249.6</ele><time>2026-07-23T21:37:00Z</time></trkpt>
<trkpt lat="35.194472" lon="-84.863477"><ele>250.5</ele><time>2026-07-23T21:37:02Z</time></trkpt>
<trkpt lat="35.194432" lon="-84.863486"><ele>250.5</ele><time>2026-07-23T21:37:05Z</time></trkpt>
<trkpt lat="35.194404" lon="-84.863495"><ele>251.2</ele><time>2026-07-23T21:37:07Z</time></trkpt>
<trkpt lat="35.194376" lon="-84.863497"><ele>252.1</ele><time>2026-07-23T21:37:09Z</time></trkpt>
<trkpt lat="35.194339" lon="-84.863514"><ele>249.9</ele><time>2026-07-23T21:37:12Z</time></trkpt>
<trkpt lat="35.194313" lon="-84.863528"><ele>249.6</ele><time>2026-07-23T21:37:14Z</time></trkpt>
<trkpt lat="35.194298" lon="-84.863561"><ele>249.0</ele><time>2026-07-23T21:37:16Z</time></trkpt>
<trkpt lat="35.194302" lon="-84.8636"><ele>246.9</ele><time>2026-07-23T21:37:18Z</time></trkpt>
<trkpt lat="35.194311" lon="-84.863637"><ele>245.7</ele><time>2026-07-23T21:37:20Z</time></trkpt>
<trkpt lat="35.194322" lon="-84.863673"><ele>244.1</ele><time>2026-07-23T21:37:22Z</time></trkpt>
<trkpt lat="35.194329" lon="-84.863709"><ele>243.5</ele><time>2026-07-23T21:37:24Z</time></trkpt>
<trkpt lat="35.194338" lon="-84.863745"><ele>242.9</ele><time>2026-07-23T21:37:26Z</time></trkpt>
<trkpt lat="35.194342" lon="-84.86378"><ele>243.2</ele><time>2026-07-23T21:37:28Z</time></trkpt>
<trkpt lat="35.194352" lon="-84.863829"><ele>242.9</ele><time>2026-07-23T21:37:31Z</time></trkpt>
<trkpt lat="35.194359" lon="-84.863863"><ele>242.0</ele><time>2026-07-23T21:37:33Z</time></trkpt>
<trkpt lat="35.194361" lon="-84.863899"><ele>241.7</ele><time>2026-07-23T21:37:35Z</time></trkpt>
<trkpt lat="35.194345" lon="-84.86394"><ele>241.1</ele><time>2026-07-23T21:37:38Z</time></trkpt>
<trkpt lat="35.194314" lon="-84.863966"><ele>241.4</ele><time>2026-07-23T21:37:41Z</time></trkpt>
<trkpt lat="35.194277" lon="-84.863985"><ele>242.0</ele><time>2026-07-23T21:37:44Z</time></trkpt>
<trkpt lat="35.194239" lon="-84.864001"><ele>241.4</ele><time>2026-07-23T21:37:47Z</time></trkpt>
<trkpt lat="35.194212" lon="-84.86401"><ele>241.4</ele><time>2026-07-23T21:37:49Z</time></trkpt>
<trkpt lat="35.194175" lon="-84.864027"><ele>241.4</ele><time>2026-07-23T21:37:52Z</time></trkpt>
<trkpt lat="35.194139" lon="-84.864045"><ele>242.9</ele><time>2026-07-23T21:37:55Z</time></trkpt>
<trkpt lat="35.194113" lon="-84.864055"><ele>242.9</ele><time>2026-07-23T21:37:57Z</time></trkpt>
<trkpt lat="35.194086" lon="-84.864067"><ele>242.6</ele><time>2026-07-23T21:37:59Z</time></trkpt>
<trkpt lat="35.19405" lon="-84.864084"><ele>242.9</ele><time>2026-07-23T21:38:02Z</time></trkpt>
<trkpt lat="35.194013" lon="-84.864102"><ele>242.6</ele><time>2026-07-23T21:38:05Z</time></trkpt>
<trkpt lat="35.193979" lon="-84.864118"><ele>242.0</ele><time>2026-07-23T21:38:08Z</time></trkpt>
<trkpt lat="35.193944" lon="-84.864134"><ele>241.7</ele><time>2026-07-23T21:38:11Z</time></trkpt>
<trkpt lat="35.193906" lon="-84.864146"><ele>241.7</ele><time>2026-07-23T21:38:14Z</time></trkpt>
<trkpt lat="35.193869" lon="-84.86416"><ele>241.4</ele><time>2026-07-23T21:38:17Z</time></trkpt>
<trkpt lat="35.193834" lon="-84.86418"><ele>241.7</ele><time>2026-07-23T21:38:20Z</time></trkpt>
<trkpt lat="35.193798" lon="-84.864199"><ele>241.4</ele><time>2026-07-23T21:38:23Z</time></trkpt>
<trkpt lat="35.193762" lon="-84.864221"><ele>241.7</ele><time>2026-07-23T21:38:26Z</time></trkpt>
<trkpt lat="35.193735" lon="-84.864235"><ele>241.4</ele><time>2026-07-23T21:38:28Z</time></trkpt>
<trkpt lat="35.193699" lon="-84.864254"><ele>241.7</ele><time>2026-07-23T21:38:31Z</time></trkpt>
<trkpt lat="35.193668" lon="-84.864281"><ele>241.7</ele><time>2026-07-23T21:38:34Z</time></trkpt>
<trkpt lat="35.193635" lon="-84.864311"><ele>241.4</ele><time>2026-07-23T21:38:37Z</time></trkpt>
<trkpt lat="35.193606" lon="-84.864343"><ele>241.4</ele><time>2026-07-23T21:38:40Z</time></trkpt>
<trkpt lat="35.193575" lon="-84.86437"><ele>241.1</ele><time>2026-07-23T21:38:43Z</time></trkpt>
<trkpt lat="35.193542" lon="-84.864389"><ele>242.0</ele><time>2026-07-23T21:38:46Z</time></trkpt>
<trkpt lat="35.193508" lon="-84.864414"><ele>242.3</ele><time>2026-07-23T21:38:49Z</time></trkpt>
<trkpt lat="35.193471" lon="-84.864437"><ele>242.9</ele><time>2026-07-23T21:38:52Z</time></trkpt>
<trkpt lat="35.193436" lon="-84.864458"><ele>242.3</ele><time>2026-07-23T21:38:55Z</time></trkpt>
<trkpt lat="35.193401" lon="-84.864476"><ele>242.6</ele><time>2026-07-23T21:38:58Z</time></trkpt>
<trkpt lat="35.193375" lon="-84.864491"><ele>242.9</ele><time>2026-07-23T21:39:00Z</time></trkpt>
<trkpt lat="35.193338" lon="-84.864509"><ele>243.2</ele><time>2026-07-23T21:39:03Z</time></trkpt>
<trkpt lat="35.193304" lon="-84.864534"><ele>243.5</ele><time>2026-07-23T21:39:06Z</time></trkpt>
<trkpt lat="35.193268" lon="-84.864555"><ele>244.1</ele><time>2026-07-23T21:39:09Z</time></trkpt>
<trkpt lat="35.193231" lon="-84.864571"><ele>244.4</ele><time>2026-07-23T21:39:12Z</time></trkpt>
<trkpt lat="35.193192" lon="-84.864588"><ele>244.8</ele><time>2026-07-23T21:39:15Z</time></trkpt>
<trkpt lat="35.193156" lon="-84.864607"><ele>244.8</ele><time>2026-07-23T21:39:18Z</time></trkpt>
<trkpt lat="35.19312" lon="-84.864627"><ele>244.4</ele><time>2026-07-23T21:39:21Z</time></trkpt>
<trkpt lat="35.193084" lon="-84.864648"><ele>244.8</ele><time>2026-07-23T21:39:24Z</time></trkpt>
<trkpt lat="35.19305" lon="-84.864671"><ele>244.1</ele><time>2026-07-23T21:39:27Z</time></trkpt>
<trkpt lat="35.193016" lon="-84.864688"><ele>244.1</ele><time>2026-07-23T21:39:30Z</time></trkpt>
<trkpt lat="35.192979" lon="-84.864705"><ele>243.5</ele><time>2026-07-23T21:39:33Z</time></trkpt>
<trkpt lat="35.192942" lon="-84.864721"><ele>243.5</ele><time>2026-07-23T21:39:36Z</time></trkpt>
<trkpt lat="35.192917" lon="-84.864736"><ele>243.5</ele><time>2026-07-23T21:39:38Z</time></trkpt>
<trkpt lat="35.192891" lon="-84.86475"><ele>243.5</ele><time>2026-07-23T21:39:40Z</time></trkpt>
<trkpt lat="35.192856" lon="-84.864771"><ele>243.8</ele><time>2026-07-23T21:39:43Z</time></trkpt>
<trkpt lat="35.192819" lon="-84.864788"><ele>243.8</ele><time>2026-07-23T21:39:46Z</time></trkpt>
<trkpt lat="35.192784" lon="-84.864809"><ele>243.8</ele><time>2026-07-23T21:39:49Z</time></trkpt>
<trkpt lat="35.192759" lon="-84.864825"><ele>243.8</ele><time>2026-07-23T21:39:51Z</time></trkpt>
<trkpt lat="35.192723" lon="-84.864844"><ele>244.1</ele><time>2026-07-23T21:39:54Z</time></trkpt>
<trkpt lat="35.192688" lon="-84.864864"><ele>243.5</ele><time>2026-07-23T21:39:57Z</time></trkpt>
<trkpt lat="35.192652" lon="-84.864882"><ele>243.2</ele><time>2026-07-23T21:40:00Z</time></trkpt>
<trkpt lat="35.192617" lon="-84.864903"><ele>243.2</ele><time>2026-07-23T21:40:03Z</time></trkpt>
<trkpt lat="35.19258" lon="-84.864923"><ele>243.5</ele><time>2026-07-23T21:40:06Z</time></trkpt>
<trkpt lat="35.192552" lon="-84.864935"><ele>243.5</ele><time>2026-07-23T21:40:08Z</time></trkpt>
<trkpt lat="35.192527" lon="-84.864948"><ele>243.2</ele><time>2026-07-23T21:40:10Z</time></trkpt>
<trkpt lat="35.192493" lon="-84.864966"><ele>242.9</ele><time>2026-07-23T21:40:13Z</time></trkpt>
<trkpt lat="35.192468" lon="-84.86498"><ele>243.5</ele><time>2026-07-23T21:40:15Z</time></trkpt>
<trkpt lat="35.192432" lon="-84.864997"><ele>243.8</ele><time>2026-07-23T21:40:18Z</time></trkpt>
<trkpt lat="35.192395" lon="-84.86501"><ele>244.4</ele><time>2026-07-23T21:40:21Z</time></trkpt>
<trkpt lat="35.192366" lon="-84.865018"><ele>244.4</ele><time>2026-07-23T21:40:23Z</time></trkpt>
<trkpt lat="35.192327" lon="-84.865024"><ele>244.8</ele><time>2026-07-23T21:40:26Z</time></trkpt>
<trkpt lat="35.192299" lon="-84.865028"><ele>245.1</ele><time>2026-07-23T21:40:28Z</time></trkpt>
<trkpt lat="35.19226" lon="-84.865037"><ele>245.7</ele><time>2026-07-23T21:40:31Z</time></trkpt>
<trkpt lat="35.192221" lon="-84.865047"><ele>245.4</ele><time>2026-07-23T21:40:34Z</time></trkpt>
<trkpt lat="35.192194" lon="-84.865051"><ele>245.4</ele><time>2026-07-23T21:40:36Z</time></trkpt>
<trkpt lat="35.192156" lon="-84.865057"><ele>245.1</ele><time>2026-07-23T21:40:39Z</time></trkpt>
<trkpt lat="35.192116" lon="-84.865063"><ele>245.7</ele><time>2026-07-23T21:40:42Z</time></trkpt>
<trkpt lat="35.192078" lon="-84.865073"><ele>245.7</ele><time>2026-07-23T21:40:45Z</time></trkpt>
<trkpt lat="35.192039" lon="-84.865081"><ele>245.7</ele><time>2026-07-23T21:40:48Z</time></trkpt>
<trkpt lat="35.191998" lon="-84.865088"><ele>245.7</ele><time>2026-07-23T21:40:51Z</time></trkpt>
<trkpt lat="35.191971" lon="-84.865099"><ele>245.4</ele><time>2026-07-23T21:40:53Z</time></trkpt>
<trkpt lat="35.191935" lon="-84.865117"><ele>244.8</ele><time>2026-07-23T21:40:56Z</time></trkpt>
<trkpt lat="35.191899" lon="-84.865137"><ele>244.4</ele><time>2026-07-23T21:40:59Z</time></trkpt>
<trkpt lat="35.191868" lon="-84.865166"><ele>243.8</ele><time>2026-07-23T21:41:02Z</time></trkpt>
<trkpt lat="35.191835" lon="-84.865194"><ele>244.8</ele><time>2026-07-23T21:41:05Z</time></trkpt>
<trkpt lat="35.191813" lon="-84.865218"><ele>244.8</ele><time>2026-07-23T21:41:07Z</time></trkpt>
<trkpt lat="35.191788" lon="-84.865238"><ele>245.7</ele><time>2026-07-23T21:41:09Z</time></trkpt>
<trkpt lat="35.191761" lon="-84.865254"><ele>244.1</ele><time>2026-07-23T21:41:11Z</time></trkpt>
<trkpt lat="35.191728" lon="-84.865281"><ele>244.1</ele><time>2026-07-23T21:41:14Z</time></trkpt>
<trkpt lat="35.191707" lon="-84.865302"><ele>244.4</ele><time>2026-07-23T21:41:16Z</time></trkpt>
<trkpt lat="35.191674" lon="-84.865329"><ele>244.1</ele><time>2026-07-23T21:41:19Z</time></trkpt>
<trkpt lat="35.191651" lon="-84.865347"><ele>244.1</ele><time>2026-07-23T21:41:21Z</time></trkpt>
<trkpt lat="35.191628" lon="-84.865366"><ele>244.4</ele><time>2026-07-23T21:41:23Z</time></trkpt>
<trkpt lat="35.191606" lon="-84.865385"><ele>243.2</ele><time>2026-07-23T21:41:25Z</time></trkpt>
<trkpt lat="35.191574" lon="-84.865416"><ele>243.5</ele><time>2026-07-23T21:41:28Z</time></trkpt>
<trkpt lat="35.19155" lon="-84.865433"><ele>244.4</ele><time>2026-07-23T21:41:30Z</time></trkpt>
<trkpt lat="35.191529" lon="-84.865455"><ele>244.8</ele><time>2026-07-23T21:41:32Z</time></trkpt>
<trkpt lat="35.191502" lon="-84.865488"><ele>244.1</ele><time>2026-07-23T21:41:35Z</time></trkpt>
<trkpt lat="35.191483" lon="-84.865513"><ele>242.9</ele><time>2026-07-23T21:41:37Z</time></trkpt>
<trkpt lat="35.191463" lon="-84.865539"><ele>242.3</ele><time>2026-07-23T21:41:39Z</time></trkpt>
<trkpt lat="35.191434" lon="-84.865573"><ele>242.0</ele><time>2026-07-23T21:41:42Z</time></trkpt>
<trkpt lat="35.191414" lon="-84.865597"><ele>242.0</ele><time>2026-07-23T21:41:44Z</time></trkpt>
<trkpt lat="35.1914" lon="-84.865628"><ele>242.3</ele><time>2026-07-23T21:41:46Z</time></trkpt>
<trkpt lat="35.191388" lon="-84.86566"><ele>242.6</ele><time>2026-07-23T21:41:48Z</time></trkpt>
<trkpt lat="35.191375" lon="-84.865691"><ele>243.5</ele><time>2026-07-23T21:41:50Z</time></trkpt>
<trkpt lat="35.191358" lon="-84.865732"><ele>243.5</ele><time>2026-07-23T21:41:53Z</time></trkpt>
<trkpt lat="35.191338" lon="-84.865772"><ele>243.8</ele><time>2026-07-23T21:41:56Z</time></trkpt>
<trkpt lat="35.191321" lon="-84.865811"><ele>243.5</ele><time>2026-07-23T21:41:59Z</time></trkpt>
<trkpt lat="35.191302" lon="-84.865851"><ele>243.5</ele><time>2026-07-23T21:42:02Z</time></trkpt>
<trkpt lat="35.191283" lon="-84.865878"><ele>244.1</ele><time>2026-07-23T21:42:04Z</time></trkpt>
<trkpt lat="35.191262" lon="-84.865902"><ele>244.1</ele><time>2026-07-23T21:42:06Z</time></trkpt>
<trkpt lat="35.191232" lon="-84.865934"><ele>244.1</ele><time>2026-07-23T21:42:09Z</time></trkpt>
<trkpt lat="35.191199" lon="-84.865962"><ele>244.1</ele><time>2026-07-23T21:42:12Z</time></trkpt>
<trkpt lat="35.191177" lon="-84.865983"><ele>244.4</ele><time>2026-07-23T21:42:14Z</time></trkpt>
<trkpt lat="35.191154" lon="-84.866003"><ele>245.1</ele><time>2026-07-23T21:42:16Z</time></trkpt>
<trkpt lat="35.191123" lon="-84.866028"><ele>244.8</ele><time>2026-07-23T21:42:19Z</time></trkpt>
<trkpt lat="35.191094" lon="-84.866055"><ele>244.8</ele><time>2026-07-23T21:42:22Z</time></trkpt>
<trkpt lat="35.191066" lon="-84.86608"><ele>245.1</ele><time>2026-07-23T21:42:25Z</time></trkpt>
<trkpt lat="35.191035" lon="-84.866101"><ele>244.8</ele><time>2026-07-23T21:42:28Z</time></trkpt>
<trkpt lat="35.191002" lon="-84.866126"><ele>244.8</ele><time>2026-07-23T21:42:31Z</time></trkpt>
<trkpt lat="35.190991" lon="-84.866171"><ele>244.4</ele><time>2026-07-23T21:42:34Z</time></trkpt>
<trkpt lat="35.191005" lon="-84.866202"><ele>244.8</ele><time>2026-07-23T21:42:36Z</time></trkpt>
<trkpt lat="35.191019" lon="-84.866232"><ele>245.1</ele><time>2026-07-23T21:42:38Z</time></trkpt>
<trkpt lat="35.191034" lon="-84.866263"><ele>245.1</ele><time>2026-07-23T21:42:40Z</time></trkpt>
<trkpt lat="35.191049" lon="-84.866293"><ele>244.4</ele><time>2026-07-23T21:42:42Z</time></trkpt>
<trkpt lat="35.191062" lon="-84.866324"><ele>243.8</ele><time>2026-07-23T21:42:44Z</time></trkpt>
<trkpt lat="35.191075" lon="-84.866357"><ele>244.1</ele><time>2026-07-23T21:42:46Z</time></trkpt>
<trkpt lat="35.19109" lon="-84.866388"><ele>244.1</ele><time>2026-07-23T21:42:48Z</time></trkpt>
<trkpt lat="35.191101" lon="-84.866421"><ele>243.5</ele><time>2026-07-23T21:42:50Z</time></trkpt>
<trkpt lat="35.19111" lon="-84.866463"><ele>244.4</ele><time>2026-07-23T21:42:53Z</time></trkpt>
<trkpt lat="35.191094" lon="-84.866499"><ele>244.8</ele><time>2026-07-23T21:42:55Z</time></trkpt>
<trkpt lat="35.19107" lon="-84.866516"><ele>245.1</ele><time>2026-07-23T21:42:57Z</time></trkpt>
<trkpt lat="35.191037" lon="-84.86653"><ele>245.1</ele><time>2026-07-23T21:43:00Z</time></trkpt>
<trkpt lat="35.191015" lon="-84.866528"><ele>243.5</ele><time>2026-07-23T21:43:02Z</time></trkpt>
</trkseg></trk></gpx>